KC8MSY>APRTLM:T#073,225,000,202,204,214,00000000, MIM v1.07 KC8MSY>APRTLM:T#074,226,000,202,204,213,00000000, MIM v1.07 KC8MSY>APRS:$GPGGA,141644,4059.2226,N,08335.3280,W,1,10,1.2,1312.2,M,-33.8,M,,/GPS FIX KC8MSY>APRTLM:T#075,225,000,197,204,213,00000000, MIM v1.07 KC8MSY>APRS:WSU SUNTRACKER 091402 FINDLAY,OH KC8MSY>APRTLM:T#076,226,000,201,204,214,00000000, MIM v1.07 KC8MSY>APRTLM:T#077,226,000,199,204,214,00000000, MIM v1.07 KC8MSY>APRS:$GPGGA,141701,4059.2733,N,08335.1754,W,1,10,1.2,1401.2,M,-33.8,M,,/GPS FIX KC8MSY>APRTLM:T#078,226,000,200,204,214,00000000, MIM v1.07 KC8MSY>APRTLM:T#079,226,000,200,204,210,00000000, MIM v1.07 KC8MSY>APRS:$GPGGA,141711,4059.3041,N,08335.0894,W,1,10,1.4,1451.0,M,-33.8,M,,/GPS FIX KC8MSY>APRTLM:T#080,226,000,200,204,212,00000000, MIM v1.07 KC8MSY>APRTLM:T#081,226,000,200,204,213,00000000, MIM v1.07 KC8MSY>APRTLM:T#082,226,000,200,204,213,00000000, MIM v1.07 KC8MSY>APRS:$GPGGA,141721,4059.3344,N,08335.0058,W,1,10,1.2,1501.1,M,-33.8,M,,/GPS FIX KC8MSY>APRTLM:T#083,226,000,200,204,213,00000000, MIM v1.07 KC8MSY>APRTLM:T#084,226,000,199,204,215,00000000, MIM v1.07 KC8MSY>APRS:$GPGGA,141731,4059.3657,N,08334.9218,W,1,10,1.3,1551.2,M,-33.8,M,,/GPS FIX KC8MSY>APRTLM:T#085,227,000,199,204,214,00000000, MIM v1.07 KC8MSY>APRTLM:T#086,227,000,200,204,214,00000000, MIM v1.07 KC8MSY>APRTLM:T#087,226,000,196,204,214,00000000, MIM v1.07 KC8MSY>APRS:$GPGGA,141741,4059.3992,N,08334.8374,W,1,10,1.1,1600.3,M,-33.8,M,,/GPS FIX KC8MSY>APRTLM:T#088,227,000,198,204,214,00000000, MIM v1.07 KC8MSY>APRTLM:T#089,227,000,199,204,211,00000000, MIM v1.07 KC8MSY>APRS:$GPGGA,141751,4059.4337,N,08334.7526,W,1,10,1.5,1654.4,M,-33.8,M,,/GPS FIX KC8MSY>APRTLM:T#090,227,000,198,204,213,00000000, MIM v1.07 KC8MSY>APRS:WSU SUNTRACKER 091402 FINDLAY,OH KC8MSY>APRTLM:T#091,227,000,194,204,214,00000000, MIM v1.07 KC8MSY>APRTLM:T#092,227,000,198,204,215,00000000, MIM v1.07 KC8MSY>APRS:$GPGGA,141808,4059.4926,N,08334.6113,W,1,10,1.7,1742.8,M,-33.8,M,,/GPS FIX KC8MSY>APRTLM:T#093,227,000,197,204,214,00000000, MIM v1.07 KC8MSY>APRTLM:T#094,227,000,197,204,214,00000000, MIM v1.07 KC8MSY>APRS:$GPGGA,141818,4059.5300,N,08334.5315,W,1,09,1.3,1794.5,M,-33.8,M,,/GPS FIX KC8MSY>APRTLM:T#095,228,000,195,204,213,00000000, MIM v1.07 KC8MSY>APRTLM:T#096,227,000,195,204,213,00000000, MIM v1.07 KC8MSY>APRTLM:T#097,227,000,193,204,213,00000000, MIM v1.07 KC8MSY>APRS:$GPGGA,141828,4059.5680,N,08334.4531,W,1,10,1.3,1847.2,M,-33.8,M,,/GPS FIX KC8MSY>APRTLM:T#098,228,000,195,204,210,00000000, MIM v1.07 KC8MSY>APRTLM:T#099,228,000,194,204,210,00000000, MIM v1.07 KC8MSY>APRS:$GPGGA,141838,4059.6107,N,08334.3752,W,1,10,1.4,1901.4,M,-33.8,M,,/GPS FIX KC8MSY>APRTLM:T#100,228,000,192,204,213,00000000, MIM v1.07 KC8MSY>APRTLM:T#101,228,000,192,204,214,00000000, MIM v1.07 KC8MSY>APRTLM:T#102,228,000,191,204,215,00000000, MIM v1.07 KC8MSY>APRS:$GPGGA,141848,4059.6517,N,08334.3020,W,1,10,1.5,1954.6,M,-33.8,M,,/GPS FIX KC8MSY>APRTLM:T#103,228,000,194,204,210,00000000, MIM v1.07 KC8MSY>APRTLM:T#104,228,000,190,204,211,00000000, MIM v1.07 KC8MSY>APRS:$GPGGA,141858,4059.6914,N,08334.2288,W,1,11,1.1,2006.4,M,-33.8,M,,/GPS FIX KC8MSY>APRTLM:T#105,228,000,193,203,213,00000000, MIM v1.07 KC8MSY>APRS:WSU SUNTRACKER 091402 FINDLAY,OH KC8MSY>APRTLM:T#106,228,000,193,204,210,00000000, MIM v1.07 KC8MSY>APRTLM:T#107,228,000,187,204,214,00000000, MIM v1.07 KC8MSY>APRS:$GPGGA,141915,4059.7682,N,08334.1027,W,1,11,1.2,2099.7,M,-33.8,M,,/GPS FIX KC8MSY>APRTLM:T#108,228,000,192,204,212,00000000, MIM v1.07 KC8MSY>APRTLM:T#109,229,000,191,204,213,00000000, MIM v1.07 KC8MSY>APRS:$GPGGA,141925,4059.8189,N,08334.0327,W,1,11,1.4,2154.9,M,-33.8,M,,/GPS FIX KC8MSY>APRTLM:T#110,229,000,191,204,210,00000000, MIM v1.07 KC8MSY>APRTLM:T#111,228,000,191,204,215,00000000, MIM v1.07 KC8MSY>APRTLM:T#112,229,000,191,204,211,00000000, MIM v1.07 KC8MSY>APRS:$GPGGA,141935,4059.8670,N,08333.9597,W,1,11,1.2,2210.0,M,-33.8,M,,/GPS FIX KC8MSY>APRTLM:T#113,229,000,191,204,211,00000000, MIM v1.07 KC8MSY>APRTLM:T#114,229,000,191,204,211,00000000, MIM v1.07 KC8MSY>APRS:$GPGGA,141945,4059.9181,N,08333.8925,W,1,11,1.4,2263.5,M,-33.8,M,,/GPS FIX KC8MSY>APRTLM:T#115,229,000,191,204,213,00000000, MIM v1.07 KC8MSY>APRTLM:T#116,229,KC8MSY>APRTLM:T#117,229,000,189,204,210,00000000, MIM v1.07 KC8MSY>APRS:$GPGGA,141955,4059.9709,N,08333.8223,W,1,11,1.2,2319.0,M,-33.8,M,,/GPS FIX KC8MSY>APRTLM:T#118,229,000,187,204,214,00000000, MIM v1.07 KC8MSY>APRTLM:T#119,230,000,188,204,210,00000000, MIM v1.07 KC8MSY>APRS:$GPGGA,142005,4100.0247,N,08333.7522,W,1,11,1.1,2375.0,M,-33.8,M,,/GPS FIX KC8MSY>APRTLM:T#120,230,000,186,204,214,00000000, MIM v1.07 KC8MSY>APRS:WSU SUNTRACKER 091402 FINDLAY,OH KC8MSY>APRTLM:T#121,230,000,186,204,212,00000000, MIM v1.07 KC8MSY>APRTLM:T#122,230,000,186,204,215,00000000, MIM v1.07 KC8MSY>APRS:$GPGGA,142021,4100.1146,N,08333.6443,W,1,11,1.4,2460.5,M,-33.8,M,,/GPS FIX KC8MSY>APRTLM:T#123,230,000,187,204,214,00000000, MIM v1.07 KC8MSY>APRTLM:T#124,230,000,187,204,213,00000000, MIM v1.07 KC8MSY>APRS:$GPGGA,142031,4100.1663,N,08333.5764,W,1,11,1.3,2512.4,M,-33.8,M,,/GPS FIX KC8MSY>APRTLM:T#125,230,000,182,204,214,00000000, MIM v1.07 KC8MSY>APRTLM:T#126,230,000,185,204,211,00000000, MIM v1.07 KC8MSY>APRTLM:T#127,230,000,182,204,215,00000000, MIM v1.07 KC8MSY>APRS:$GPGGA,142041,4100.2205,N,08333.5079,W,1,11,1.1,2567.8,M,-33.8,M,,/GPS FIX KC8MSY>APRTLM:T#128,230,000,184,204,211,00000000, MIM v1.07 KC8MSY>APRTLM:T#129,230,000,184,204,213,00000000, MIM v1.07 KC8MSY>APRS:$GPGGA,142051,4100.2723,N,08333.4432,W,1,11,1.1,2622.5,M,-33.8,M,,/GPS FIX KC8MSY>APRTLM:T#130,230,000,185,204,214,00000000, MIM v1.07 KC8MSY>APRTLM:T#131,231,000,182,204,214,00000000, MIM v1.07 KC8MSY>APRTLM:T#132,231,000,182,204,215,00000000, MIM v1.07 KC8MSY>APRS:$GPGGA,142101,4100.3245,N,08333.3738,W,1,11,1.4,2676.0,M,-33.8,M,,/GPS FIX KC8MSY>APRTLM:T#133,231,000,184,204,210,00000000, MIM v1.07 KC8MSY>APRTLM:T#134,231,000,181,204,214,00000000, MIM v1.07 KC8MSY>APRS:$GPGGA,142111,4100.3794,N,08333.3061,W,1,11,1.4,2728.9,M,-33.8,M,,/GPS FIX KC8MSY>APRTLM:T#135,231,000,180,204,213,00000000, MIM v1.07 KC8MSY>APRS:WSU SUNTRACKER 091402 FINDLAY,OH KC8MSY>APRTLM:T#136,231,000,181,204,212,00000000, MIM v1.07 KC8MSY>APRTLM:T#137,231,000,181,204,212,00000000, MIM v1.07 KC8MSY>APRS:$GPGGA,142127,4100.4636,N,08333.1945,W,1,11,1.2,2819.6,M,-33.8,M,,/GPS FIX KC8MSY>APRTLM:T#138,231,000,182,203,214,00000000, MIM v1.07 KC8MSY>APRTLM:T#139,231,000,178,204,211,00000000, MIM v1.07 KC8MSY>APRS:$GPGGA,142137,4100.5GPS FIX KC8MSY>APRTLM:T#140,231,000,181,204,213,00000000, MIM v1.07 KC8MSY>APRTLM:T#141,232,000,181,204,214,00000000, MIM v1.07 KC8MSY>APRTLM:T#142,231,000,179,204,210,00000000, MIM v1.07 KC8MSY>APRS:$GPGGA,142147,4100.5703,N,08333.0516,W,1,11,1.2,2926.9,M,-33.8,M,,/GPS FIX KC8MSY>APRTLM:T#143,231,000,181,204,214,00000000, MIM v1.07 KC8MSY>APRTLM:T#144,231,000,179,204,209,00000000, MIM v1.07 KC8MSY>APRS:$GPGGA,142157,4100.6230,N,08332.9794,W,1,11,1.2,2983.3,M,-33.8,M,,/GPS FIX KC8MSY>APRTLM:T#145,232,000,178,204,213,00000000, MIM v1.07 KC8MSY>APRTLM:T#146,232,000,179,204,212,00000000, MIM v1.07 KC8MSY>APRTLM:T#147,232,000,177,204,213,00000000, MIM v1.07 KC8MSY>APRS:$GPGGA,142207,4100.6738,N,08332.9035,W,1,11,1.4,3040.1,M,-33.8,M,,/GPS FIX KC8MSY>APRTLM:T#148,232,000,179,204,214,00000000, MIM v1.07 KC8MSY>APRTLM:T#149,232,000,179,204,215,00000000, MIM v1.07 KC8MSY>APRS:$GPGGA,142217,4100.7171,N,08332.8315,W,1,11,1.4,3091.7,M,-33.8,M,,/GPS FIX KC8MSY>APRTLM:T#150,232,000,178,204,211,00000000, MIM v1.07 KC8MSY>APRS:WSU SUNTRACKER 091402 FINDLAY,OH KC8MSY>APRTLM:T#151,232,000,177,204,215,00000000, MIM v1.07 KC8MSY>APRTLM:T#152,232,000,179,204,215,00000000, MIM v1.07 KC8MSY>APRS:$GPGGA,142233,4100.7939,N,08332.7148,W,1,11,1.4,3180.6,M,-33.8,M,,/GPS FIX KC8MSY>APRTLM:T#153,232,000,175,203,212,00000000, MIM v1.07 KC8MSY>APRTLM:T#154,232,000,175,204,213,00000000, MIM v1.07 KC8MSY>APRS:$GPGGA,142243,4100.8466,N,08332.6457,W,1,11,1.4,3237.3,M,-33.8,M,,/GPS FIX KC8MSY>APRTLM:T#155,233,000,173,204,210,00000000, MIM v1.07 KC8MSY>APRTLM:T#156,233,000,174,204,214,00000000, MIM v1.07 KC8MSY>APRTLM:T#157,233,000,175,204,214,00000000, MIM v1.07 KC8MSY>APRS:$GPGGA,142253,4100.8999,N,08332.5736,W,1,11,1.1,3294.7,M,-33.8,M,,/GPS FIX KC8MSY>APRTLM:T#158,232,000,174,204,210,00000000, MIM v1.07 KC8MSY>APRTLM:T#159,233,000,176,204,214,00000000, MIM v1.07 KC8MSY>APRS:$GPGGA,142303,4100.9594,N,08332.5111,W,1,11,1.2,3346.0,M,-33.8,M,,/GPS FIX KC8MSY>APRTLM:T#160,233,000,175,204,211,00000000, MIM v1.07 KC8MSY>APRTLM:T#161,233,000,173,204,214,00000000, MIM v1.07 KC8MSY>APRTLM:T#162,233,000,170,204,210,00000000, MIM v1.07 KC8MSY>APRS:$GPGGA,142313,4101.0196,N,08332.4479,W,1,11,1.4,3401.8,M,-33.8,M,,/GPS FIX KC8MSY>APRTLM:T#163,233,000,173,204,212,00000000, MIM v1.07 KC8MSY>APRTLM:T#164,233,000,172,204,211,00000000, MIM v1.07 KC8MSY>APRS:$GPGGA,142323,4101.0828,N,08332.3891,W,1,11,1.2,3457.2,M,-33.8,M,,/GPS FIX KC8MSY>APRTLM:T#165,233,000,172,204,213,00000000, MIM v1.07 KC8MSY>APRS:WSU SUNTRACKER 091402 FINDLAY,OH KC8MSY>APRTLM:T#166,233,000,168,204,210,00000000, MIM v1.07 KC8MSY>APRTLM:T#167,233,000,171,204,214,00000000, MIM v1.07 KC8MSY>APRS:$GPGGA,142339,4101.1872,N,08332.2970,W,1,11,1.1,3550.3,M,-33.8,M,,/GPS FIX KC8MSY>APRTLM:T#168,233,000,171,204,211,00000000, MIM v1.07 KC8MSY>APRTLM:T#169,233,000,169,204,211,00000000, MIM v1.07 KC8MSY>APRS:$GPGGA,142349,4101.2487,N,08332.2360,W,1,11,1.3,3607.4,M,-33.9,M,,/GPS FIX KC8MSY>APRTLM:T#170,233,000,169,204,213,00000000, MIM v1.07 KC8MSY>APRTLM:T#171,234,000,169,204,209,00000000, MIM v1.07 KC8MSY>APRTLM:T#172,234,000,166,204,214,00000000, MIM v1.07 KC8MSY>APRS:$GPGGA,142359,4101.3072,N,08332.1787,W,1,11,1.2,3664.7,M,-33.9,M,,/GPS FIX KC8MSY>APRTLM:T#173,234,000,169,204,213,00000000, MIM v1.07 KC8MSY>APRTLM:T#174,233,000,170,204,211,00000000, MIM v1.07 KC8MSY>APRS:$GPGGA,142409,4101.3606,N,08332.1281,W,1,11,1.3,3723.1,M,-33.9,M,,/GPS FIX KC8MSY>APRTLM:T#175,234,000,169,204,213,00000000, MIM v1.07 KC8MSY>APRTLM:T#176,234,000,169,204,210,00000000, MIM v1.07 KC8MSY>APRTLM:T#177,234,000,169,204,214,00000000, MIM v1.07 KC8MSY>APRS:$GPGGA,142419,4101.4078,N,08332.0806,W,1,11,1.3,3783.9,M,-33.9,M,,/GPS FIX KC8MSY>APRTLM:T#178,234,000,166,204,214,00000000, MIM v1.07 KC8MSY>APRTLM:T#179,234,000,164,204,214,00000000, MIM v1.07 KC8MSY>APRS:$GPGGA,142429,4101.4490,N,08332.0296,W,1,11,1.1,3844.2,M,-33.9,M,,/GPS FIX KC8MSY>APRTLM:T#180,234,000,166,204,214,00000000, MIM v1.07 KC8MSY>APRS:WSU SUNTRACKER 091402 FINDLAY,OH KC8MSY>APRTLM:T#181,234,000,164,204,213,00000000, MIM v1.07 KC8MSY>APRTLM:T#182,234,000,165,204,213,00000000, MIM v1.07 KC8MSY>APRS:$GPGGA,142445,4101.5076,N,08331.9400,W,1,11,1.1,3941.3,M,-33.9,M,,/GPS FIX KC8MSY>APRTLM:T#183,234,000,162,204,210,00000000, MIM v1.07 KC8MSY>APRTLM:T#184,235,000,162,204,210,00000000, MIM v1.07 KC8MSY>APRS:$GPGGA,142455,4101.5454,N,08331.8709,W,1,11,1.5,3998.7,M,-33.9,M,,/GPS FIX KC8MSY>APRTLM:T#185,235,000,161,204,210,00000000, MIM v1.07 KC8MSY>APRTLM:T#186,234,000,163,204,211,00000000, MIM v1.07 KC8MSY>APRTLM:T#187,235,000,163,204,211,00000000, MIM v1.07 KC8MSY>APRS:$GPGGA,142505,4101.5763,N,08331.7994,W,1,11,1.0,4058.8,M,-33.9,M,,/GPS FIX KC8MSY>APRTLM:T#188,235,000,164,204,214,00000000, MIM v1.07 KC8MSY>APRTLM:T#189,235,000,162,204,210,00000000, MIM v1.07 KC8MSY>APRS:$GPGGA,142515,4101.6094,N,08331.7239,W,1,11,1.3,4116.8,M,-33.9,M,,/GPS FIX KC8MSY>APRTLM:T#190,235,000,161,204,214,00000000, MIM v1.07 KC8MSY>APRTLM:T#191,235,000,162,204,213,00000000, MIM v1.07 KC8MSY>APRTLM:T#192,235,000,160,204,213,00000000, MIM v1.07 KC8MSY>APRS:$GPGGA,142525,4101.6431,N,08331.6367,W,1,11,1.4,4168.0,M,-33.9,M,,/GPS FIX KC8MSY>APRTLM:T#193,235,000,161,204,214,00000000, MIM v1.07 KC8MSY>APRTLM:T#194,235,000,159,204,211,00000000, MIM v1.07 KC8MSY>APRS:$GPGGA,142535,4101.6758,N,08331.5490,W,1,11,1.4,4230.4,M,-33.9,M,,/GPS FIX KC8MSY>APRTLM:T#195,235,000,160,204,212,00000000, MIM v1.07 KC8MSY>APRS:WSU SUNTRACKER 091402 FINDLAY,OH KC8MSY>APRTLM:T#196,235,000,159,204,212,00000000, MIM v1.07 KC8MSY>APRTLM:T#197,235,000,158,204,213,00000000, MIM v1.07 KC8MSY>APRS:$GPGGA,142551,4101.7276,N,08331.4138,W,1,11,1.3,4333.2,M,-33.9,M,,/GPS FIX KC8MSY>APRTLM:T#198,235,000,157,204,213,00000000, MIM v1.07 KC8MSY>APRTLM:T#199,235,000,160,204,211,00000000, MIM v1.07 KC8MSY>APRS:$GPGGA,142601,4101.7592,N,08331.3289,W,1,11,1.3,4394.6,M,-33.9,M,,/GPS FIX KC8MSY>APRTLM:T#200,235,000,157,204,212,00000000, MIM v1.07 KC8MSY>APRTLM:T#201,235,000,157,204,210,00000000, MIM v1.07 KC8MSY>APRTLM:T#202,236,000,160,204,214,00000000, MIM v1.07 KC8MSY>APRS:$GPGGA,142611,4101.7898,N,08331.2521,W,1,11,1.3,4450.5,M,-33.9,M,,/GPS FIX KC8MSY>APRTLM:T#203,236,000,157,205,214,00000000, MIM v1.07 KC8MSY>APRTLM:T#204,236,000,155,204,215,00000000, MIM v1.07 KC8MSY>APRS:$GPGGA,142621,4101.8236,N,08331.1706,W,1,11,1.1,4513.3,M,-33.9,M,,/GPS FIX KC8MSY>APRTLM:T#205,236,000,154,204,214,00000000, MIM v1.07 KC8MSY>APRTLM:T#206,236,000,154,204,211,00000000, MIM v1.07 KC8MSY>APRTLM:T#207,236,000,155,204,213,00000000, MIM v1.07 KC8MSY>APRS:$GPGGA,142631,4101.8560,N,08331.0924,W,1,11,1.5,4573.3,M,-33.9,M,,/GPS FIX KC8MSY>APRTLM:T#208,236,000,155,204,210,00000000, MIM v1.07 KC8MSY>APRTLM:T#209,236,000,156,204,214,00000000, MIM v1.07 KC8MSY>APRS:$GPGGA,142641,4101.8862,N,08331.0120,W,1,11,1.1,4637.6,M,-33.9,M,,/GPS FIX KC8MSY>APRTLM:T#210,236,000,154,204,213,00000000, MIM v1.07 KC8MSY>APRS:WSU SUNTRACKER 091402 FINDLAY,OH KC8MSY>APRTLM:T#211,236,000,149,204,214,00000000, MIM v1.07 KC8MSY>APRTLM:T#212,236,000,151,204,212,00000000, MIM v1.07 KC8MSY>APRS:$GPGGA,142657,4101.9351,N,08330.8768,W,1,11,1.2,4734.4,M,-33.9,M,,/GPS FIX KC8MSY>APRTLM:T#213,237,000,153,203,212,00000000, MIM v1.07 KC8MSY>APRTLM:T#214,236,000,151,204,211,00000000, MIM v1.07 KC8MSY>APRS:$GPGGA,142707,4101.9592,N,08330.7947,W,1,11,1.1,4795.4,M,-33.9,M,,/GPS FIX KC8MSY>APRTLM:T#215,236,000,149,204,212,00000000, MIM v1.07 KC8MSY>APRTLM:T#216,236,000,149,204,213,00000000, MIM v1.07 KC8MSY>APRTLM:T#217,236,000,152,204,211,00000000, MIM v1.07 KC8MSY>APRS:$GPGGA,142717,4101.9883,N,08330.7110,W,1,11,1.1,4857.5,M,-33.9,M,,/GPS FIX KC8MSY>APRTLM:T#218,237,000,149,204,213,00000000, MIM v1.07 KC8MSY>APRTLM:T#219,237,000,150,204,214,00000000, MIM v1.07 KC8MSY>APRS:$GPGGA,142727,4102.0170,N,08330.6192,W,1,11,1.7,4920.9,M,-33.9,M,,/GPS FIX KC8MSY>APRTLM:T#220,237,000,150,204,212,00000000, MIM v1.07 KC8MSY>APRTLM:T#221,237,000,148,204,211,00000000, MIM v1.07 KC8MSY>APRTLM:T#222,237,000,148,204,213,00000000, MIM v1.07 KC8MSY>APRS:$GPGGA,142737,4102.0419,N,08330.5392,W,1,11,1.1,4974.2,M,-33.9,M,,/GPS FIX KC8MSY>APRTLM:T#223,237,000,148,204,211,00000000, MIM v1.07 KC8MSY>APRTLM:T#224,237,000,149,204,211,00000000, MIM v1.07 KC8MSY>APRS:$GPGGA,142747,4102.0654,N,08330.4510,W,1,11,1.4,5032.3,M,-33.9,M,,/GPS FIX KC8MSY>APRTLM:T#225,237,000,149,204,210,00000000, MIM v1.07 KC8MSY>APRS:WSU SUNTRACKER 091402 FINDLAY,OH KC8MSY>APRTLM:T#226,238,000,148,204,214,00000000, MIM v1.07 KC8MSY>APRTLM:T#227,237,000,148,205,212,00000000, MIM v1.07 KC8MSY>APRS:$GPGGA,142803,4102.0973,N,08330.3084,W,1,11,1.2,5123.6,M,-33.9,M,,/GPS FIX KC8MSY>APRTLM:T#228,237,000,146,204,214,00000000, MIM v1.07 KC8MSY>APRTLM:T#229,237,000,145,204,211,00000000, MIM v1.07 KC8MSY>APRS:$GPGGA,142813,4102.1179,N,08330.2231,W,1,11,1.1,5189.7,M,-33.9,M,,/GPS FIX KC8MSY>APRTLM:T#230,238,000,146,204,214,00000000, MIM v1.07 KC8MSY>APRTLM:T#231,238,000,146,204,212,00000000, MIM v1.07 KC8MSY>APRTLM:T#232,237,000,143,204,214,00000000, MIM v1.07 KC8MSY>APRS:$GPGGA,142823,4102.1410,N,08330.1321,W,1,11,1.1,5248.9,M,-33.9,M,,/GPS FIX KC8MSY>APRTLM:T#233,238,000,145,204,213,00000000, MIM v1.07 KC8MSY>APRTLM:T#234,238,000,144,203,210,00000000, MIM v1.07 KC8MSY>APRS:$GPRMC,142834,A,4102.1713,N,08330.0352,W,025.5,065.8,140902,006.3,W/GPS FIX KC8MSY>APRTLM:T#235,238,000,143,204,213,00000000, MIM v1.07 KC8MSY>APRTLM:T#236,237,000,146,204,213,00000000, MIM v1.07 KC8MSY>APRTLM:T#237,238,000,141,204,214,00000000, MIM v1.07 KC8MSY>APRS:$GPGGA,142843,4102.1970,N,08329.9564,W,1,11,1.2,5367.9,M,-33.9,M,,/GPS FIX KC8MSY>APRTLM:T#238,237,000,141,204,214,00000000, MIM v1.07 KC8MSY>APRTLM:T#239,238,000,146,204,213,00000000, MIM v1.07 KC8MSY>APRS:$GPGGA,142853,4102.2328,N,08329.8567,W,1,11,1.0,5428.8,M,-33.9,M,,/GPS FIX KC8MSY>APRTLM:T#240,238,000,143,204,214,00000000, MIM v1.07 KC8MSY>APRS:WSU SUNTRACKER 091402 FINDLAY,OH KC8MSY>APRTLM:T#241,238,000,143,204,214,00000000, MIM v1.07 KC8MSY>APRTLM:T#242,238,000,140,204,214,00000000, MIM v1.07 KC8MSY>APRS:$GPGGA,142909,4102.2869,N,08329.7120,W,1,11,1.0,5538.7,M,-33.9,M,,/GPS FIX KC8MSY>APRTLM:T#243,238,000,141,205,210,00000000, MIM v1.07 KC8MSY>APRTLM:T#244,238,000,142,204,211,00000000, MIM v1.07 KC8MSY>APRS:$GPGGA,142919,4102.3182,N,08329.6176,W,1,11,1.3,5603.3,M,-33.9,M,,/GPS FIX KC8MSY>APRTLM:T#245,239,000,139,204,212,00000000, MIM v1.07 KC8MSY>APRTLM:T#246,238,000,138,204,214,00000000, MIM v1.07 KC8MSY>APRTLM:T#247,238,000,138,204,212,00000000, MIM v1.07 KC8MSY>APRS:$GPGGA,142929,4102.3524,N,08329.5344,W,1,11,1.3,5666.3,M,-33.9,M,,/GPS FIX KC8MSY>APRTLM:T#248,238,000,137,204,214,00000000, MIM v1.07 KC8MSY>APRTLM:T#249,238,000,139,204,213,00000000, MIM v1.07 KC8MSY>APRS:$GPGGA,142939,4102.3935,N,08329.4363,W,1,11,1.2,5725.7,M,-33.9,M,,/GPS FIX KC8MSY>APRTLM:T#250,238,000,139,204,212,00000000, MIM v1.07 KC8MSY>APRTLM:T#251,238,000,140,204,214,00000000, MIM v1.07 KC8MSY>APRTLM:T#252,238,000,142,204,209,00000000, MIM v1.07 KC8MSY>APRS:$GPGGA,142949,4102.4323,N,08329.3224,W,1,09,1.3,5786.8,M,-33.9,M,,/GPS FIX KC8MSY>APRTLM:T#253,239,000,138,204,210,00000000, MIM v1.07 KC8MSY>APRTLM:T#254,239,000,141,204,211,00000000, MIM v1.07 KC8MSY>APRS:$GPGGA,142959,4102.4699,N,08329.2123,W,1,11,1.0,5852.0,M,-33.9,M,,/GPS FIX KC8MSY>APRTLM:T#255,239,000,141,204,210,00000000, MIM v1.07 KC8MSY>APRS:WSU SUNTRACKER 091402 FINDLAY,OH KC8MSY>APRTLM:T#000,239,000,137,204,210,00000000, MIM v1.07 KC8MSY>APRTLM:T#001,239,000,140,204,214,00000000, MIM v1.07 KC8MSY>APRS:$GPGGA,143015,4102.5243,N,08329.0359,W,1,11,1.3,5953.1,M,-33.9,M,,/GPS FIX KC8MSY>APRTLM:T#002,239,000,137,204,210,00000000, MIM v1.07 KC8MSY>APRTLM:T#003,239,000,141,204,214,00000000, MIM v1.07 KC8MSY>APRS:$GPGGA,143025,4102.5584,N,08328.9263,W,1,11,1.1,6012.9,M,-33.9,M,,/GPS FIX KC8MSY>APRTLM:T#004,239,000,139,204,212,00000000, MIM v1.07 KC8MSY>APRTLM:T#005,239,000,140,204,210,00000000, MIM v1.07 KC8MSY>APRTLM:T#006,239,000,135,204,212,00000000, MIM v1.07 KC8MSY>APRS:$GPGGA,143035,4102.5950,N,08328.8233,W,1,11,1.1,6070.7,M,-33.9,M,,/GPS FIX KC8MSY>APRTLM:T#007,239,000,138,204,213,00000000, MIM v1.07 KC8MSY>APRTLM:T#008,239,163,137,204,214,00000000, MIM v1.07 KC8MSY>APRS:$GPGGA,143045,4102.6375,N,08328.7194,W,1,11,1.2,6127.1,M,-33.9,M,,/GPS FIX KC8MSY>APRTLM:T#009,239,000,141,204,213,00000000, MIM v1.07 KC8MSY>APRTLM:T#010,239,000,139,204,213,00000000, MIM v1.07 KC8MSY>APRTLM:T#011,240,027,139,205,215,00000000, MIM v1.07 KC8MSY>APRS:$GPGGA,143055,4102.6815,N,08328.6132,W,1,11,1.3,6184.0,M,-33.9,M,,/GPS FIX KC8MSY>APRTLM:T#012,240,000,138,204,213,00000000, MIM v1.07 KC8MSY>APRTLM:T#013,240,018,140,205,212,00000000, MIM v1.07 KC8MSY>APRS:$GPGGA,143105,4102.7253,N,08328.5104,W,1,11,1.2,6243.7,M,-33KC8MSY>APRTLM:T#014,239,000,139,204,213,00000000, MIM v1.07 KC8MSY>APRS:WSU SUNTRACKER 091402 FINDLAY,OH KC8MSY>APRTLM:T#015,240,000,139,204,214,00000000, MIM v1.07 KC8MSY>APRTLM:T#016,240,000,138,204,210,00000000, MIM v1.07 KC8MSY>APRS:$GPGGA,143121,4102.8019,N,08328.3540,W,1,11,1.5,6337.9,M,-33.9,M,,/GPS FIX KC8MSY>APRTLM:T#017,240,055,141,204,213,00000000, MIM v1.07 KC8MSY>APRTLM:T#018,240,000,140,204,210,00000000, MIM v1.07 KC8MSY>APRS:$GPGGA,143131,4102.8434,N,08328.2566,W,1,11,1.3,6394.6,M,-33.9,M,,/GPS FIX KC8MSY>APRTLM:T#019,240,000,138,204,211,00000000, MIM v1.07 KC8MSY>APRTLM:T#020,240,000,140,204,213,00000000, MIM v1.07 KC8MSY>APRTLM:T#021,240,000,139,204,213,00000000, MIM v1.07 KC8MSY>APRS:$GPRMC,143142,A,4102.8891,N,08328.1523,W,030.6,063.1,140902,006.3,W/GPS FIX KC8MSY>APRTLM:T#022,240,000,136,204,213,00000000, MIM v1.07 KC8MSY>APRTLM:T#023,240,000,134,204,211,00000000, MIM v1.07 KC8MSY>APRS:$GPGGA,143151,4102.9221,N,08328.0579,W,1,11,1.3,6513.7,M,-33.9,M,,/GPS FIX KC8MSY>APRTLM:T#024,240,065,140,205,212,00000000, MIM v1.07 KC8MSY>APRTLM:T#025,240,000,140,204,214,00000000, MIM v1.07 KC8MSY>APRTLM:T#026,240,000,138,204,210,00000000, MIM v1.07 KC8MSY>APRS:$GPGGA,143201,4102.9608,N,08327.9540,W,1,11,1.1,6572.8,M,-33.9,M,,/GPS FIX KC8MSY>APRTLM:T#027,240,000,137,204,211,00000000, MIM v1.07 KC8MSY>APRTLM:T#028,240,000,138,204,212,00000000, MIM v1.07 KC8MSY>APRS:$GPRMC,143212,A,4103.0020,N,08327.8336,W,032.2,067.1,140902,006.3,W/GPS FIX KC8MSY>APRTLM:T#029,240,000,136,204,212,00000000, MIM v1.07 KC8MSY>APRS:WSU SUNTRACKER 091402 FINDLAY,OH KC8MSY>APRTLM:T#030,240,000,136,204,211,00000000, MIM v1.07 KC8MSY>APRTLM:T#031,240,075,134,205,215,00000000, MIM v1.07 KC8MSY>APRS:$GPRMC,143228,A,4103.0616,N,08327.6695,W,031.4,066.7,140902,006.3,W/GPS FIX KC8MSY>APRTLM:T#032,240,052,134,205,213,00000000, MIM v1.07 KC8MSY>APRTLM:T#033,240,000,133,204,212,00000000, MIM v1.07 KC8MSY>APRS:$GPGGA,143237,4103.0994,N,08327.5762,W,1,11,1.2,6799.0,M,-33.9,M,,/GPS FIX KC8MSY>APRTLM:T#034,241,000,134,204,213,00000000, MIM v1.07 KC8MSY>APRTLM:T#035,240,000,134,204,214,00000000, MIM v1.07 KC8MSY>APRTLM:T#036,241,000,132,204,212,00000000, MIM v1.07 KC8MSY>APRS:$GPGGA,143247,4103.1435,N,08327.4694,W,1,11,1.4,6854.0,M,-33.9,M,,/GPS FIX KC8MSY>APRTLM:T#037,240,000,133,204,212,00000000, MIM v1.07 KC8MSY>APRTLM:T#038,241,000,131,204,214,00000000, MIM v1.07 KC8MSY>APRS:$GPGGA,143257,4103.1856,N,08327.3675,W,1,11,1.4,6910.8,M,-33.9,M,,/GPS FIX KC8MSY>APRTLM:T#039,241,000,132,204,210,00000000, MIM v1.07 KC8MSY>APRTLM:T#040,241,000,130,204,213,00000000, MIM v1.07 KC8MSY>APRTLM:T#041,241,000,129,204,210,00000000, MIM v1.07 KC8MSY>APRS:$GPGGA,143307,4103.2258,N,08327.2695,W,1,11,1.2,6968.0,M,-33.9,M,,/GPS FIX KC8MSY>APRTLM:T#042,241,000,127,204,210,00000000, MIM v1.07 KC8MSY>APRTLM:T#043,241,000,131,204,213,00000000, MIM v1.07 KC8MSY>APRS:$GPGGA,143317,4103.2695,N,08327.1695,W,1,11,1.0,7030.1,M,-33.9,M,,/GPS FIX KC8MSY>APRTLM:T#044,241,000,127,204,211,00000000, MIM v1.07 KC8MSY>APRS:WSU SUNTRACKER 091402 FINDLAY,OH KC8MSY>APRTLM:T#045,241,008,128,204,214,00000000, MIM v1.07 KC8MSY>APRTLM:T#046,241,000,130,204,210,00000000, MIM v1.07 KC8MSY>APRS:$GPGGA,143333,4103.3403,N,08327.0206,W,1,11,1.3,7132.9,M,-33.9,M,,/GPS FIX KC8MSY>APRTLM:T#047,240,000,128,204,213,00000000, MIM v1.07 KC8MSY>APRTLM:T#048,241,000,126,204,210,00000000, MIM v1.07 KC8MSY>APRS:$GPRMC,143344,A,4103.3834,N,08326.9100,W,033.1,060.6,140902,006.4,W/GPS FIX KC8MSY>APRTLM:T#049,241,000,128,204,212,00000000, MIM v1.07 KC8MSY>APRTLM:T#050,241,000,126,204,213,00000000, MIM v1.07 KC8MSY>APRTLM:T#051,241,000,126,204,213,00000000, MIM v1.07 KC8MSY>APRS:$GPRMC,143354,A,4103.4257,N,08326.8099,W,032.0,058.7,140902,006.4,W/GPS FIX KC8MSY>APRTLM:T#052,241,000,127,204,212,00000000, MIM v1.07 KC8MSY>APRTLM:T#053,241,000,125,204,213,00000000, MIM v1.07 KC8MSY>APRS:$GPRMC,143404,A,4103.4685,N,08326.7044,W,032.4,062.0,140902,006.4,W/GPS FIX KC8MSY>APRTLM:T#054,241,000,125,204,212,00000000, MIM v1.07 KC8MSY>APRTLM:T#055,241,000,126,204,210,00000000, MIM v1.07 KC8MSY>APRTLM:T#056,241,000,124,204,213,00000000, MIM v1.07 KC8MSY>APRS:$GPGGA,143413,4103.5067,N,08326.6086,W,1,11,1.2,7388.9,M,-33.9,M,,/GPS FIX KC8MSY>APRTLM:T#057,241,000,120,204,210,00000000, MIM v1.07 KC8MSY>APRTLM:T#058,241,000,123,204,211,00000000, MIM v1.07 KC8MSY>APRS:$GPGGA,143423,4103.5512,N,08326.5069,W,1,11,1.2,7453.8,M,-33.9,M,,/GPS FIX KC8MSY>APRTLM:T#059,242,011,124,205,214,00000000, MIM v1.07 KC8MSY>APRS:WSU SUNTRACKER 091402 FINDLAY,OH KC8MSY>APRTLM:T#060,242,000,121,204,212,00000000, MIM v1.07 KC8MSY>APRTLM:T#061,242,000,123,204,210,00000000, MIM v1.07 KC8MSY>APRS:$GPGGA,143439,4103.6173,N,08326.3521,W,1,11,1.0,7555.5,M,-33.9,M,,/GPS FIX KC8MSY>APRTLM:T#062,241,000,122,204,213,00000000, MIM v1.07 KC8MSY>APRTLM:T#063,242,000,120,204,212,00000000, MIM v1.07 KC8MSY>APRS:$GPRMC,143450,A,4103.6639,N,08326.2456,W,031.2,065.7,140902,006.4,W/GPS FIX KC8MSY>APRTLM:T#064,242,000,118,204,212,00000000, MIM v1.07 KC8MSY>APRTLM:T#065,242,007,117,204,210,00000000, MIM v1.07 KC8MSY>APRTLM:T#066,241,000,117,204,213,00000000, MIM v1.07 KC8MSY>APRS:$GPGGA,143459,4103.7027,N,08326.1507,W,1,11,1.1,7690.9,M,-33.9,M,,/GPS FIX KC8MSY>APRTLM:T#067,242,050,117,204,214,00000000, MIM v1.07 KC8MSY>APRTLM:T#068,242,000,116,204,207,00000000, MIM v1.07 KC8MSY>APRS:$GPGGA,143509,4103.7429,N,08326.0575,W,1,11,1.4,7753.1,M,-33.9,M,,/GPS FIX KC8MSY>APRTLM:T#069,242,000,116,204,212,00000000, MIM v1.07 KC8MSY>APRTLM:T#070,242,000,116,204,210,00000000, MIM v1.07 KC8MSY>APRTLM:T#071,242,000,115,204,210,00000000, MIM v1.07 KC8MSY>APRS:$GPGGA,143519,4103.7854,N,08325.9654,W,1,11,1.1,7816.5,M,-33.9,M,,/GPS FIX KC8MSY>APRTLM:T#072,242,000,114,204,214,00000000, MIM v1.07 KC8MSY>APRTLM:T#073,242,000,113,204,214,00000000, MIM v1.07 KC8MSY>APRS:$GPGGA,143529,4103.8278,N,08325.8654,W,1,11,1.0,7882.0,M,-33.9,M,,/GPS FIX KC8MSY>APRTLM:T#074,242,000,112,204,214,00000000, MIM v1.07 KC8MSY>APRS:WSU SUNTRACKER 091402 FINDLAY,OH KC8MSY>APRTLM:T#075,242,000,112,204,213,00000000, MIM v1.07 KC8MSY>APRTLM:T#076,242,000,109,204,210,00000000, MIM v1.07 KC8MSY>APRS:$GPGGA,143545,4103.8737,N,08325.7075,W,1,11,1.2,7985.6,M,-33.9,M,,/GPS FIX KC8MSY>APRTLM:T#077,242,000,110,204,213,00000000, MIM v1.07 KC8MSY>APRTLM:T#078,242,000,111,204,214,00000000, MIM v1.07 KC8MSY>APRS:$GPRMC,143556,A,4103.8962,N,08325.5993,W,028.5,080.7,140902,006.4,W/GPS FIX KC8MSY>APRTLM:T#079,242,000,110,204,214,00000000, MIM v1.07 KC8MSY>APRTLM:T#080,242,000,110,204,210,00000000, MIM v1.07 KC8MSY>APRTLM:T#081,242,000,111,204,212,00000000, MIM v1.07 KC8MSY>APRS:$GPGGA,143605,4103.9161,N,08325.5056,W,1,11,1.3,8107.8,M,-33.9,M,,/GPS FIX KC8MSY>APRTLM:T#082,242,000,111,204,212,00000000, MIM v1.07 KC8MSY>APRTLM:T#083,242,000,107,204,213,00000000, MIM v1.07 KC8MSY>APRS:$GPRMC,143616,A,4103.9338,N,08325.4068,W,026.5,077.4,140902,006.4,W/GPS FIX KC8MSY>APRTLM:T#084,242,000,111,204,213,00000000, MIM v1.07 KC8MSY>APRTLM:T#085,243,000,109,204,211,00000000, MIM v1.07 KC8MSY>APRTLM:T#086,242,000,110,204,213,00000000, MIM v1.07 KC8MSY>APRS:$GPRMC,143626,A,4103.9470,N,08325.3135,W,025.1,069.6,140902,006.4,W/GPS FIX KC8MSY>APRTLM:T#087,243,090,108,205,215,00000000, MIM v1.07 KC8MSY>APRTLM:T#088,243,000,107,204,212,00000000, MIM v1.07 KC8MSY>APRS:$GPRMC,143636,A,4103.9627,N,08325.2166,W,027.6,084.3,140902,006.4,W/GPS FIX KC8MSY>APRTLM:T#089,242,000,106,204,213,00000000, MIM v1.07 KC8MSY>APRS:WSU SUNTRACKER 091402 FINDLAY,OH KC8MSY>APRTLM:T#090,243,000,107,204,212,00000000, MIM v1.07 KC8MSY>APRTLM:T#091,243,080,109,205,213,00000000, MIM v1.07 KC8MSY>APRS:$GPRMC,143653,A,4103.9982,N,08325.0577,W,027.5,073.8,140902,006.4,W/GPS FIX KC8MSY>APRTLM:T#092,243,135,110,205,212,00000000, MIM v1.07 KC8MSY>APRTLM:T#093,243,000,109,205,211,00000000, MIM v1.07 KC8MSY>APRS:$GPGGA,143702,4104.0117,N,08324.9735,W,1,11,1.1,8413.1,M,-33.9,M,,/GPS FIX KC8MSY>APRTLM:T#094,243,000,108,204,211,00000000, MIM v1.07 KC8MSY>APRTLM:T#095,243,000,111,204,210,00000000, MIM v1.07 KC8MSY>APRTLM:T#096,243,000,111,204,214,00000000, MIM v1.07 KC8MSY>APRS:$GPGGA,143713,4104.0272,N,08324.8799,W,1,11,1.0,8443.5,M,-33.9,M,,/GPS FIX KC8MSY>APRTLM:T#097,243,089,110,205,214,00000000, MIM v1.07 KC8MSY>APRTLM:T#098,243,000,111,204,214,00000000, MIM v1.07 KC8MSY>APRS:$GPRMC,143723,A,4104.0458,N,08324.7855,W,026.0,074.9,140902,006.4,W/GPS FIX KC8MSY>APRTLM:T#099,243,000,112,204,211,00000000, MIM v1.07 KC8MSY>APRTLM:T#100,243,000,114,204,212,00000000, MIM v1.07 KC8MSY>APRTLM:T#101,243,000,114,204,214,00000000, MIM v1.07 KC8MSY>APRS:$GPRMC,143733,A,4104.0686,N,08324.6971,W,023.3,070.5,140902,006.4,W/GPS FIX KC8MSY>APRTLM:T#102,243,000,113,204,213,00000000, MIM v1.07 KC8MSY>APRTLM:T#103,243,006,111,204,213,00000000, MIM v1.07 KC8MSY>APRS:$GPGGA,143743,4104.0807,N,08324.6153,W,1,11,1.2,8550.0,M,-33.9,M,,/GPS FIX KC8MSY>APRTLM:T#104,243,000,110,204,210,00000000, MIM v1.07 KC8MSY>APRS:WSU SUNTRACKER 091402 FINDLAY,OH KC8MSY>APRTLM:T#105,242,000,107,204,213,00000000, MIM v1.07 KC8MSY>APRTLM:T#106,243,060,108,204,212,00000000, MIM v1.07 KC8MSY>APRS:$GPRMC,143759,A,4104.0932,N,08324.4954,W,019.4,086.8,140902,006.4,W/GPS FIX KC8MSY>APRTLM:T#107,243,000,106,205,209,00000000, MIM v1.07 KC8MSY>APRTLM:T#108,243,000,106,204,212,00000000, MIM v1.07 KC8MSY>APRS:$GPGGA,143808,4104.0991,N,08324.4350,W,1,11,1.0,8707.5,M,-33.9,M,,/GPS FIX KC8MSY>APRTLM:T#109,244,000,105,204,212,00000000, MIM v1.07 KC8MSY>APRTLM:T#110,243,000,104,204,211,00000000, MIM v1.07 KC8MSY>APRTLM:T#111,243,000,104,204,211,00000000, MIM v1.07 KC8MSY>APRS:$GPGGA,143818,4104.0996,N,08324.3670,W,1,11,1.1,8777.2,M,-33.9,M,,/GPS FIX KC8MSY>APRTLM:T#112,243,000,102,204,212,00000000, MIM v1.07 KC8MSY>APRTLM:T#113,243,000,098,204,212,00000000, MIM v1.07 KC8MSY>APRS:$GPRMC,143829,A,4104.1010,N,08324.2818,W,016.6,098.4,140902,006.4,W/GPS FIX KC8MSY>APRTLM:T#114,243,000,102,204,211,00000000, MIM v1.07 KC8MSY>APRTLM:T#115,243,000,099,204,211,00000000, MIM v1.07 KC8MSY>APRTLM:T#116,243,000,096,204,213,00000000, MIM v1.07 KC8MSY>APRS:$GPGGA,143838,4104.1043,N,08324.2173,W,1,11,1.2,8886.4,M,-33.9,M,,/GPS FIX KC8MSY>APRTLM:T#117,243,000,098,204,210,00000000, MIM v1.07 KC8MSY>APRTLM:T#118,243,000,096,204,213,00000000, MIM v1.07 KC8MSY>APRS:$GPRMC,143849,A,4104.1005,N,08324.1215,W,025.9,093.3,140902,006.4,W/GPS FIX KC8MSY>APRTLM:T#119,244,000,097,204,212,00000000, MIM v1.07 KC8MSY>APRS:WSU SUNTRACKER 091402 FINDLAY,OH KC8MSY>APRTLM:T#120,244,000,096,204,214,00000000, MIM v1.07 KC8MSY>APRTLM:T#121,244,000,096,204,213,00000000, MIM v1.07 KC8MSY>APRS:$GPGGA,143905,4104.0905,N,08323.9865,W,1,11,1.2,9031.7,M,-33.9,M,,/GPS FIX KC8MSY>APRTLM:T#122,244,000,096,204,213,00000000, MIM v1.07 KC8MSY>APRTLM:T#123,244,008,096,204,214,00000000, MIM v1.07 KC8MSY>APRS:$GPRMC,143915,A,4104.0861,N,08323.9046,W,020.9,091.6,140902,006.4,W/GPS FIX KC8MSY>APRTLM:T#124,244,000,098,204,211,00000000, MIM v1.07 KC8MSY>APRTLM:T#125,244,000,099,204,214,00000000, MIM v1.07 KC8MSY>APRTLM:T#126,244,000,097,204,214,00000000, MIM v1.07 KC8MSY>APRS:$GPGGA,143925,4104.0815,N,08323.8187,W,1,11,1.2,9094.6,M,-33.9,M,,/GPS FIX KC8MSY>APRTLM:T#127,244,036,098,205,215,00000000, MIM v1.07 KC8MSY>APRTLM:T#128,244,062,099,205,212,00000000, MIM v1.07 KC8MSY>APRS:$GPGGA,143935,4104.0783,N,08323.7286,W,1,11,1.1,9121.4,M,-33.9,M,,/GPS FIX KC8MSY>APRTLM:T#129,244,000,100,204,211,00000000, MIM v1.07 KC8MSY>APRTLM:T#130,244,000,101,204,211,00000000, MIM v1.07 KC8MSY>APRTLM:T#131,244,000,099,204,214,00000000, MIM v1.07 KC8MSY>APRS:$GPGGA,143944,4104.0798,N,08323.6553,W,1,10,1.1,9149.7,M,-33.9,M,,/GPS FIX KC8MSY>APRTLM:T#132,244,000,100,204,214,00000000, MIM v1.07 KC8MSY>APRTLM:T#133,244,000,101,204,210,00000000, MIM v1.07 KC8MSY>APRS:$GPGGA,143954,4104.0767,N,08323.5806,W,1,11,1.1,9197.0,M,-33.9,M,,/GPS FIX KC8MSY>APRTLM:T#134,244,000,100,204,214,00000000, MIM v1.07 KC8MSY>APRS:WSU SUNTRACKER 091402 FINDLAY,OH KC8MSY>APRTLM:T#135,244,000,092,204,212,00000000, MIM v1.07 KC8MSY>APRTLM:T#136,244,000,095,204,211,00000000, MIM v1.07 KC8MSY>APRS:$GPGGA,144010,4104.0648,N,08323.4485,W,1,11,0.9,9296.8,M,-33.9,M,,/GPS FIX KC8MSY>APRTLM:T#137,245,000,088,204,213,00000000, MIM v1.07 KC8MSY>APRTLM:T#138,244,000,091,204,210,00000000, MIM v1.07 KC8MSY>APRS:$GPRMC,144021,A,4104.0448,N,08323.3569,W,023.4,098.3,140902,006.4,W/GPS FIX KC8MSY>APRTLM:T#139,244,000,093,204,213,00000000, MIM v1.07 KC8MSY>APRTLM:T#140,244,000,094,204,212,00000000, MIM v1.07 KC8MSY>APRTLM:T#141,244,000,094,204,213,00000000, MIM v1.07 KC8MSY>APRS:$GPGGA,144030,4104.0328,N,08323.2916,W,1,11,1.1,9376.1,M,-33.9,M,,/GPS FIX KC8MSY>APRTLM:T#142,244,000,096,204,210,00000000, MIM v1.07 KC8MSY>APRTLM:T#143,244,000,096,204,212,00000000, MIM v1.07 KC8MSY>APRS:$GPRMC,144041,A,4104.0227,N,08323.2036,W,023.3,093.6,140902,006.4,W/GPS FIX KC8MSY>APRTLM:T#144,244,000,095,204,210,00000000, MIM v1.07 KC8MSY>APRTLM:T#145,244,000,097,204,214,00000000, MIM v1.07 KC8MSY>APRTLM:T#146,244,000,095,204,212,00000000, MIM v1.07 KC8MSY>APRS:$GPGGA,144050,4104.0095,N,08323.1320,W,1,11,1.1,9426.4,M,-33.9,M,,/GPS FIX KC8MSY>APRTLM:T#147,244,000,097,204,211,00000000, MIM v1.07 KC8MSY>APRTLM:T#148,244,000,095,204,212,00000000, MIM v1.07 KC8MSY>APRS:$GPGGA,144101,4104.0014,N,08323.0426,W,1,11,1.2,9454.8,M,-33.9,M,,/GPS FIX KC8MSY>APRTLM:T#149,245,000,096,204,213,00000000, MIM v1.07 KC8MSY>APRS:WSU SUNTRACKER 091402 FINDLAY,OH KC8MSY>APRTLM:T#150,245,000,095,204,210,00000000, MIM v1.07 KC8MSY>APRTLM:T#151,245,000,098,204,213,00000000, MIM v1.07 KC8MSY>APRS:$GPRMC,144117,A,4103.9876,N,08322.9227,W,020.4,098.1,140902,006.4,W/GPS FIX KC8MSY>APRTLM:T#152,245,000,096,204,213,00000000, MIM v1.07 KC8MSY>APRTLM:T#153,245,018,097,204,211,00000000, MIM v1.07 KC8MSY>APRS:$GPRMC,144127,A,4103.9824,N,08322.8428,W,021.4,094.3,140902,006.4,W/GPS FIX KC8MSY>APRTLM:T#154,245,000,096,204,211,00000000, MIM v1.07 KC8MSY>APRTLM:T#155,244,000,097,204,213,00000000, MIM v1.07 KC8MSY>APRTLM:T#156,245,073,100,205,214,00000000, MIM v1.07 KC8MSY>APRS:$GPGGA,144136,4103.9766,N,08322.7741,W,1,11,1.1,9539.9,M,-33.9,M,,/GPS FIX KC8MSY>APRTLM:T#157,245,000,099,204,213,00000000, MIM v1.07 KC8MSY>APRTLM:T#158,245,088,100,205,216,00000000, MIM v1.07 KC8MSY>APRS:$GPGGA,144146,4103.9687,N,08322.6975,W,1,11,0.9,9564.0,M,-33.9,M,,/GPS FIX KC8MSY>APRTLM:T#159,244,000,097,204,213,00000000, MIM v1.07 KC8MSY>APRTLM:T#160,245,000,097,204,211,00000000, MIM v1.07 KC8MSY>APRTLM:T#161,245,000,100,204,214,00000000, MIM v1.07 KC8MSY>APRS:$GPRMC,144157,A,4103.9618,N,08322.6107,W,019.9,094.9,140902,006.4,W/GPS FIX KC8MSY>APRTLM:T#162,244,000,097,204,213,00000000, MIM v1.07 KC8MSY>APRTLM:T#163,245,000,101,204,210,00000000, MIM v1.07 KC8MSY>APRS:$GPRMC,144207,A,4103.9528,N,08322.5301,W,023.7,098.9,140902,006.4,W/GPS FIX KC8MSY>APRTLM:T#164,245,000,098,204,212,00000000, MIM v1.07 KC8MSY>APRS:WSU SUNTRACKER 091402 FINDLAY,OH KC8MSY>APRTLM:T#165,245,000,101,204,213,00000000, MIM v1.07 KC8MSY>APRTLM:T#166,245,000,099,204,210,00000000, MIM v1.07 KC8MSY>APRS:$GPRMC,144223,A,4103.9335,N,08322.3995,W,020.8,104.0,140902,006.4,W/GPS FIX KC8MSY>APRTLM:T#167,245,000,098,204,210,00000000, MIM v1.07 KC8MSY>APRTLM:T#168,245,000,099,204,212,00000000, MIM v1.07 KC8MSY>APRS:$GPRMC,144233,A,4103.9234,N,08322.3157,W,023.3,102.1,140902,006.4,W/GPS FIX KC8MSY>APRTLM:T#169,245,000,100,204,210,00000000, MIM v1.07 KC8MSY>APRTLM:T#170,245,000,098,204,210,00000000, MIM v1.07 KC8MSY>APRTLM:T#171,245,000,099,204,214,00000000, MIM v1.07 KC8MSY>APRS:$GPRMC,144243,A,4103.9090,N,08322.2331,W,024.3,101.6,140902,006.4,W/GPS FIX KC8MSY>APRTLM:T#172,245,075,098,205,213,00000000, MIM v1.07 KC8MSY>APRTLM:T#173,245,000,094,204,213,00000000, MIM v1.07 KC8MSY>APRS:$GPRMC,144253,A,4103.9016,N,08322.1478,W,023.6,098.5,140902,006.4,W/GPS FIX KC8MSY>APRTLM:T#174,246,000,098,204,213,00000000, MIM v1.07 KC8MSY>APRTLM:T#175,245,000,100,204,210,00000000, MIM v1.07 KC8MSY>APRTLM:T#178,245,000,097,204,213,00000000, MIM v1.07 KC8MSY>APRS:$GPRMC,144313,A,4103.8782,N,08321.9662,W,024.4,092.7,140902,006.4,W/GPS FIX KC8MSY>APRTLM:T#179,246,014,098,204,210,00000000, MIM v1.07 KC8MSY>APRS:WSU SUNTRACKER 091402 FINDLAY,OH KC8MSY>APRTLM:T#180,245,000,098,204,211,00000000, MIM v1.07 KC8MSY>APRTLM:T#181,245,000,098,204,213,00000000, MIM v1.07 KC8MSY>APRS:$GPRMC,144329,A,4103.8627,N,08321.8245,W,024.0,100.0,140902,006.4,W/GPS FIX KC8MSY>APRTLM:T#182,245,000,098,204,213,00000000, MIM v1.07 KC8MSY>APRTLM:T#183,246,000,099,204,211,00000000, MIM v1.07 KC8MSY>APRS:$GPRMC,144339,A,4103.8487,N,08321.7325,W,026.2,103.2,140902,006.4,W/GPS FIX KC8MSY>APRTLM:T#184,246,000,096,204,210,00000000, MIM v1.07 KC8MSY>APRTLM:T#185,246,000,094,204,213,00000000, MIM v1.07 KC8MSY>APRTLM:T#186,245,074,099,205,212,00000000, MIM v1.07 KC8MSY>APRS:$GPGGA,144348,4103.8351,N,08321.6522,W,1,11,1.1,9875.8,M,-33.9,M,,/GPS FIX KC8MSY>APRTLM:T#187,245,000,099,204,210,00000000, MIM v1.07 KC8MSY>APRTLM:T#188,246,000,097,204,214,00000000, MIM v1.07 KC8MSY>APRS:$GPGGA,144358,4103.8232,N,08321.5600,W,1,11,1.2,9908.0,M,-33.9,M,,/GPS FIX KC8MSY>APRTLM:T#189,246,000,094,204,211,00000000, MIM v1.07 KC8MSY>APRTLM:T#190,246,000,094,204,210,00000000, MIM v1.07 KC8MSY>APRTLM:T#191,246,004,094,205,213,00000000, MIM v1.07 KC8MSY>APRS:$GPGGA,144409,4103.8011,N,08321.4532,W,1,11,1.1,9939.0,M,-33.9,M,,/GPS FIX KC8MSY>APRTLM:T#192,246,000,095,204,211,00000000, MIM v1.07 KC8MSY>APRTLM:T#193,246,000,097,204,211,00000000, MIM v1.07 KC8MSY>APRS:$GPGGA,144419,4103.7900,N,08321.3578,W,1,11,1.1,9966.3,M,-33.9,M,,/GPS FIX KC8MSY>APRTLM:T#194,246,000,096,204,211,00000000, MIM v1.07 KC8MSY>APRS:WSU SUNTRACKER 091402 FINDLAY,OH KC8MSY>APRTLM:T#195,246,000,099,204,213,00000000, MIM v1.07 KC8MSY>APRTLM:T#196,246,000,097,204,213,00000000, MIM v1.07 KC8MSY>APRS:$GPRMC,144436,A,4103.7676,N,08321.2031,W,025.0,102.5,140902,006.4,W/GPS FIX KC8MSY>APRTLM:T#197,246,000,098,204,213,00000000, MIM v1.07 KC8MSY>APRTLM:T#198,246,000,098,204,210,00000000, MIM v1.07 KC8MSY>APRS:$GPRMC,144446,A,4103.7505,N,08321.1114,W,027.1,097.5,140902,006.4,W/GPS FIX KC8MSY>APRTLM:T#199,246,000,099,204,209,00000000, MIM v1.07 KC8MSY>APRTLM:T#200,246,000,097,204,211,00000000, MIM v1.07 KC8MSY>APRTLM:T#201,246,000,094,204,213,00000000, MIM v1.07 KC8MSY>APRS:$GPGGA,144456,4103.7353,N,08321.0240,W,1,11,1.1,10073.6,M,-33.9,M,,/GPS FIX KC8MSY>APRTLM:T#202,246,000,096,204,213,00000000, MIM v1.07 KC8MSY>APRTLM:T#203,247,012,096,205,214,00000000, MIM v1.07 KC8MSY>APRS:$GPRMC,144506,A,4103.7155,N,08320.9314,W,026.9,106.6,140902,006.4,W/GPS FIX KC8MSY>APRTLM:T#204,246,000,093,204,213,00000000, MIM v1.07 KC8MSY>APRTLM:T#205,246,000,093,204,213,00000000, MIM v1.07 KC8MSY>APRTLM:T#206,246,000,093,204,214,00000000, MIM v1.07 KC8MSY>APRS:$GPRMC,144516,A,4103.6897,N,08320.8433,W,026.4,114.2,140902,006.5,W/GPS FIX KC8MSY>APRTLM:T#207,246,000,093,204,211,00000000, MIM v1.07 KC8MSY>APRTLM:T#208,246,000,089,204,212,00000000, MIM v1.07 KC8MSY>APRS:$GPRMC,144526,A,4103.6663,N,08320.7502,W,024.6,109.3,140902,006.5,W/GPS FIX KC8MSY>APRTLM:T#209,246,000,089,204,213,00000000, MIM v1.07 KC8MSY>APRS:WSU SUNTRACKER 091402 FINDLAY,OH KC8MSY>APRTLM:T#210,246,000,089,204,210,00000000, MIM v1.07 KC8MSY>APRTLM:T#211,246,000,089,204,211,00000000, MIM v1.07 KC8MSY>APRS:$GPGGA,144541,4103.6382,N,08320.6235,W,1,11,1.0,10243.2,M,-33.9,M,,/GPS FIX KC8MSY>APRTLM:T#212,246,000,087,204,212,00000000, MIM v1.07 KC8MSY>APRTLM:T#213,246,000,086,204,213,00000000, MIM v1.07 KC8MSY>APRS:$GPGGA,144552,4103.6250,N,08320.5192,W,1,11,1.0,10285.9,M,-33.9,M,,/GPS FIX KC8MSY>APRTLM:T#214,246,000,085,204,213,00000000, MIM v1.07 KC8MSY>APRTLM:T#215,247,074,087,205,212,00000000, MIM v1.07 KC8MSY>APRTLM:T#216,246,000,088,204,213,00000000, MIM v1.07 KC8MSY>APRS:$GPGGA,144602,4103.6119,N,08320.4250,W,1,11,1.1,10314.4,M,-33.9,M,,/GPS FIX KC8MSY>APRTLM:T#217,246,000,086,204,211,00000000, MIM v1.07 KC8MSY>APRTLM:T#218,247,014,088,205,213,00000000, MIM v1.07 KC8MSY>APRS:$GPRMC,144612,A,4103.5955,N,08320.3442,W,023.4,104.1,140902,006.5,W/GPS FIX KC8MSY>APRTLM:T#219,247,009,085,205,214,00000000, MIM v1.07 KC8MSY>APRTLM:T#220,247,000,086,204,213,00000000, MIM v1.07 KC8MSY>APRTLM:T#221,246,000,087,204,213,00000000, MIM v1.07 KC8MSY>APRS:$GPGGA,144622,4103.5767,N,08320.2570,W,1,11,1.1,10374.6,M,-33.9,M,,/GPS FIX KC8MSY>APRTLM:T#222,247,000,087,204,213,00000000, MIM v1.07 KC8MSY>APRTLM:T#223,246,000,086,204,209,00000000, MIM v1.07 KC8MSY>APRS:$GPGGA,144632,4103.5600,N,08320.1744,W,1,11,1.1,10407.7,M,-33.9,M,,/GPS FIX KC8MSY>APRTLM:T#224,246,000,084,204,211,00000000, MIM v1.07 KC8MSY>APRS:WSU SUNTRACKER 091402 FINDLAY,OH KC8MSY>APRTLM:T#225,247,000,085,204,212,00000000, MIM v1.07 KC8MSY>APRTLM:T#226,246,000,087,204,213,00000000, MIM v1.07 KC8MSY>APRS:$GPRMC,144648,A,4103.5302,N,08320.0455,W,021.3,105.0,140902,006.5,W/GPS FIX KC8MSY>APRTLM:T#227,247,080,088,205,212,00000000, MIM v1.07 KC8MSY>APRTLM:T#228,246,000,088,204,210,00000000, MIM v1.07 KC8MSY>APRS:$GPRMC,144658,A,4103.5203,N,08319.9657,W,019.6,099.3,140902,006.5,W/GPS FIX KC8MSY>APRTLM:T#229,246,000,088,204,212,00000000, MIM v1.07 KC8MSY>APRTLM:T#230,246,000,087,204,212,00000000, MIM v1.07 KC8MSY>APRTLM:T#231,247,000,086,203,210,00000000, MIM v1.07 KC8MSY>APRS:$GPRMC,144708,A,4103.5125,N,08319.8878,W,023.6,093.9,140902,006.5,W/GPS FIX KC8MSY>APRTLM:T#232,247,000,085,204,213,00000000, MIM v1.07 KC8MSY>APRTLM:T#233,247,000,085,204,213,00000000, MIM v1.07 KC8MSY>APRS:$GPRMC,144718,A,4103.4977,N,08319.8049,W,022.8,113.4,140902,006.5,W/GPS FIX KC8MSY>APRTLM:T#234,247,000,084,204,212,00000000, MIM v1.07 KC8MSY>APRTLM:T#235,247,000,083,204,210,00000000, MIM v1.07 KC8MSY>APRTLM:T#236,247,000,081,204,210,00000000, MIM v1.07 KC8MSY>APRS:$GPRMC,144728,A,4103.4797,N,08319.7377,W,020.4,113.2,140902,006.5,W/GPS FIX KC8MSY>APRTLM:T#237,247,000,080,204,209,00000000, MIM v1.07 KC8MSY>APRTLM:T#238,247,000,078,204,210,00000000, MIM v1.07 KC8MSY>APRS:$GPGGA,144738,4103.4603,N,08319.6700,W,1,11,1.1,10618.2,M,-33.9,M,,/GPS FIX KC8MSY>APRTLM:T#239,247,000,081,204,212,00000000, MIM v1.07 KC8MSY>APRS:WSU SUNTRACKER 091402 FINDLAY,OH KC8MSY>APRTLM:T#240,247,000,079,204,206,00000000, MIM v1.07 KC8MSY>APRTLM:T#241,247,000,079,204,213,00000000, MIM v1.07 KC8MSY>APRS:$GPGGA,144755,4103.4287,N,08319.5383,W,1,11,1.1,10707.7,M,-33.9,M,,/GPS FIX KC8MSY>APRTLM:T#242,247,115,074,205,215,00000000, MIM v1.07 KC8MSY>APRTLM:T#243,247,152,077,204,215,00000000, MIM v1.07 KC8MSY>APRS:$GPGGA,144805,4103.4191,N,08319.4488,W,1,11,1.1,10749.2,M,-33.9,M,,/GPS FIX KC8MSY>APRTLM:T#244,247,000,076,204,209,00000000, MIM v1.07 KC8MSY>APRTLM:T#245,247,000,077,204,213,00000000, MIM v1.07 KC8MSY>APRTLM:T#246,247,000,076,204,213,00000000, MIM v1.07 KC8MSY>APRS:$GPRMC,144815,A,4103.4082,N,08319.3757,W,019.4,098.2,140902,006.5,W/GPS FIX KC8MSY>APRTLM:T#247,247,000,076,204,210,00000000, MIM v1.07 KC8MSY>APRTLM:T#248,247,000,074,204,211,00000000, MIM v1.07 KC8MSY>APRS:$GPGGA,144825,4103.3996,N,08319.3053,W,1,11,1.1,10810.9,M,-33.9,M,,/GPS FIX KC8MSY>APRTLM:T#249,247,000,076,203,209,00000000, MIM v1.07 KC8MSY>APRTLM:T#250,247,002,076,204,210,00000000, MIM v1.07 KC8MSY>APRTLM:T#251,247,000,077,204,213,00000000, MIM v1.07 KC8MSY>APRS:$GPRMC,144835,A,4103.3858,N,08319.2337,W,021.8,100.9,140902,006.5,W/GPS FIX KC8MSY>APRTLM:T#252,247,055,076,205,210,00000000, MIM v1.07 KC8MSY>APRTLM:T#253,247,000,075,204,210,00000000, MIM v1.07 KC8MSY>APRS:$GPGGA,144845,4103.3719,N,08319.1535,W,1,11,1.0,10871.6,M,-33.9,M,,/GPS FIX KC8MSY>APRTLM:T#254,247,000,075,204,213,00000000, MIM v1.07 KC8MSY>APRS:WSU SUNTRACKER 091402 FINDLAY,OH KC8MSY>APRTLM:T#255,248,000,079,204,213,00000000, MIM v1.07 KC8MSY>APRTLM:T#000,247,000,078,204,213,00000000, MIM v1.07 KC8MSY>APRS:$GPRMC,144902,A,4103.3436,N,08319.0351,W,023.9,103.8,140902,006.5,W/GPS FIX KC8MSY>APRTLM:T#001,247,000,078,204,213,00000000, MIM v1.07 KC8MSY>APRTLM:T#002,247,000,077,204,211,00000000, MIM v1.07 KC8MSY>APRS:$GPRMC,144912,A,4103.3315,N,08318.9610,W,021.6,103.0,140902,006.5,W/GPS FIX KC8MSY>APRTLM:T#003,247,000,078,204,208,00000000, MIM v1.07 KC8MSY>APRTLM:T#004,247,000,076,204,212,00000000, MIM v1.07 KC8MSY>APRTLM:T#005,247,000,077,204,213,00000000, MIM v1.07 KC8MSY>APRS:$GPRMC,144922,A,4103.3136,N,08318.8798,W,019.8,106.3,140902,006.5,W/GPS FIX KC8MSY>APRTLM:T#006,247,000,076,204,213,00000000, MIM v1.07 KC8MSY>APRTLM:T#007,247,000,076,203,209,00000000, MIM v1.07 KC8MSY>APRS:$GPRMC,144932,A,4103.2988,N,08318.8129,W,020.3,104.6,140902,006.5,W/GPS FIX KC8MSY>APRTLM:T#008,247,000,077,204,211,00000000, MIM v1.07 KC8MSY>APRTLM:T#009,248,000,076,204,213,00000000, MIM v1.07 KC8MSY>APRTLM:T#010,248,000,075,204,209,00000000, MIM v1.07 KC8MSY>APRS:$GPGGA,144942,4103.2837,N,08318.7329,W,1,10,1.0,11036.1,M,-33.9,M,,/GPS FIX KC8MSY>APRTLM:T#011,247,000,075,204,211,00000000, MIM v1.07 KC8MSY>APRTLM:T#012,248,000,073,204,213,00000000, MIM v1.07 KC8MSY>APRS:$GPRMC,144952,A,4103.2632,N,08318.6608,W,021.4,107.0,140902,006.5,W/GPS FIX KC8MSY>APRTLM:T#013,248,000,075,204,212,00000000, MIM v1.07 KC8MSY>APRS:WSU SUNTRACKER 091402 FINDLAY,OH KC8MSY>APRTLM:T#014,248,100,076,205,215,00000000, MIM v1.07 KC8MSY>APRTLM:T#015,247,000,077,204,213,00000000, MIM v1.07 KC8MSY>APRS:$GPGGA,145009,4103.2273,N,08318.5233,W,1,11,1.0,11114.9,M,-33.9,M,,/GPS FIX KC8MSY>APRTLM:T#016,248,000,076,204,209,00000000, MIM v1.07 KC8MSY>APRTLM:T#017,248,000,076,204,213,00000000, MIM v1.07 KC8MSY>APRS:$GPRMC,145019,A,4103.2034,N,08318.4446,W,026.1,110.4,140902,006.5,W/GPS FIX KC8MSY>APRTLM:T#018,248,000,076,204,209,00000000, MIM v1.07 KC8MSY>APRTLM:T#019,248,000,075,204,211,00000000, MIM v1.07 KC8MSY>APRTLM:T#020,248,000,077,204,213,00000000, MIM v1.07 KC8MSY>APRS:$GPGGA,145029,4103.1775,N,08318.3654,W,1,11,1.0,11172.1,M,-33.9,M,,/GPS FIX KC8MSY>APRTLM:T#021,248,000,076,204,210,00000000, MIM v1.07 KC8MSY>APRTLM:T#022,248,000,075,204,213,00000000, MIM v1.07 KC8MSY>APRS:$GPGGA,145039,4103.1432,N,08318.2740,W,1,11,0.9,11199.4,M,-33.9,M,,/GPS FIX KC8MSY>APRTLM:T#023,248,000,075,204,208,00000000, MIM v1.07 KC8MSY>APRTLM:T#024,248,000,076,204,209,00000000, MIM v1.07 KC8MSY>APRTLM:T#025,248,000,074,204,209,00000000, MIM v1.07 KC8MSY>APRS:$GPRMC,145049,A,4103.1134,N,08318.1845,W,028.4,117.3,140902,006.5,W/GPS FIX KC8MSY>APRTLM:T#026,248,000,075,204,211,00000000, MIM v1.07 KC8MSY>APRTLM:T#027,248,000,074,204,213,00000000, MIM v1.07 KC8MSY>APRS:$GPGGA,145059,4103.0820,N,08318.0991,W,1,11,1.0,11255.9,M,-33.9,M,,/GPS FIX KC8MSY>APRTLM:T#028,248,000,073,204,212,00000000, MIM v1.07 KC8MSY>APRS:WSU SUNTRACKER 091402 FINDLAY,OH KC8MSY>APRTLM:T#029,248,000,074,204,213,00000000, MIM v1.07 KC8MSY>APRTLM:T#030,248,000,075,204,209,00000000, MIM v1.07 KC8MSY>APRS:$GPRMC,145116,A,4103.0272,N,08317.9539,W,028.7,118.1,140902,006.5,W/GPS FIX KC8MSY>APRTLM:T#031,248,000,074,204,209,00000000, MIM v1.07 KC8MSY>APRTLM:T#032,248,036,074,205,212,00000000, MIM v1.07 KC8MSY>APRS:$GPGGA,145126,4103.0011,N,08317.8696,W,1,11,0.9,11330.8,M,-33.9,M,,/GPS FIX KC8MSY>APRTLM:T#033,248,000,073,204,211,00000000, MIM v1.07 KC8MSY>APRTLM:T#034,248,082,073,204,215,00000000, MIM v1.07 KC8MSY>APRTLM:T#035,248,053,075,204,215,00000000, MIM v1.07 KC8MSY>APRS:$GPGGA,145136,4102.9642,N,08317.7916,W,1,11,1.1,11355.5,M,-33.9,M,,/GPS FIX KC8MSY>APRTLM:T#036,248,000,075,203,212,00000000, MIM v1.07 KC8MSY>APRTLM:T#037,248,000,075,204,211,00000000, MIM v1.07 KC8MSY>APRS:$GPGGA,145146,4102.9306,N,08317.7136,W,1,11,1.1,11387.8,M,-33.9,M,,/GPS FIX KC8MSY>APRTLM:T#038,248,000,073,204,209,00000000, MIM v1.07 KC8MSY>APRTLM:T#039,248,113,074,204,214,00000000, MIM v1.07 KC8MSY>APRTLM:T#040,248,000,076,204,213,00000000, MIM v1.07 KC8MSY>APRS:$GPRMC,145156,A,4102.8927,N,08317.6458,W,022.4,130.3,140902,006.5,W/GPS FIX KC8MSY>APRTLM:T#041,248,110,075,204,213,00000000, MIM v1.07 KC8MSY>APRTLM:T#042,248,000,077,204,212,00000000, MIM v1.07 KC8MSY>APRS:$GPRMC,145206,A,4102.8546,N,08317.5837,W,020.9,126.7,140902,006.5,W/GPS FIX KC8MSY>APRTLM:T#043,248,036,076,205,212,00000000, MIM v1.07 KC8MSY>APRS:WSU SUNTRACKER 091402 FINDLAY,OH KC8MSY>APRTLM:T#044,248,000,072,204,213,00000000, MIM v1.07 KC8MSY>APRTLM:T#045,248,000,072,204,210,00000000, MIM v1.07 KC8MSY>APRS:$GPRMC,145223,A,4102.7907,N,08317.4795,W,021.3,130.0,140902,006.5,W/GPS FIX KC8MSY>APRTLM:T#046,248,104,075,204,212,00000000, MIM v1.07 KC8MSY>APRTLM:T#047,248,032,074,205,212,00000000, MIM v1.07 KC8MSY>APRS:$GPGGA,145233,4102.7531,N,08317.4099,W,1,10,1.1,11526.3,M,-33.9,M,,/GPS FIX KC8MSY>APRTLM:T#048,249,051,075,204,215,00000000, MIM v1.07 KC8MSY>APRTLM:T#049,248,000,075,204,209,00000000, MIM v1.07 KC8MSY>APRTLM:T#050,248,000,073,204,210,00000000, MIM v1.07 KC8MSY>APRS:$GPRMC,145243,A,4102.7115,N,08317.3505,W,021.1,130.0,140902,006.5,W/GPS FIX KC8MSY>APRTLM:T#051,248,000,074,204,212,00000000, MIM v1.07 KC8MSY>APRTLM:T#052,248,000,075,204,209,00000000, MIM v1.07 KC8MSY>APRS:$GPGGA,145253,4102.6728,N,08317.2915,W,1,11,1.1,11580.8,M,-33.9,M,,/GPS FIX KC8MSY>APRTLM:T#053,248,000,074,204,209,00000000, MIM v1.07 KC8MSY>APRTLM:T#054,248,000,073,204,212,00000000, MIM v1.07 KC8MSY>APRTLM:T#055,248,000,071,204,210,00000000, MIM v1.07 KC8MSY>APRS:$GPRMC,145303,A,4102.6302,N,08317.2237,W,023.2,129.7,140902,006.5,W/GPS FIX KC8MSY>APRTLM:T#056,248,000,071,204,210,00000000, MIM v1.07 KC8MSY>APRTLM:T#057,248,000,071,204,209,00000000, MIM v1.07 KC8MSY>APRS:$GPGGA,145313,4102.5844,N,08317.1553,W,1,11,1.0,11643.9,M,-33.9,M,,/GPS FIX KC8MSY>APRTLM:T#058,248,000,071,204,211,00000000, MIM v1.07 KC8MSY>APRS:WSU SUNTRACKER 091402 FINDLAY,OH KC8MSY>APRTLM:T#059,248,000,069,204,213,00000000, MIM v1.07 KC8MSY>APRTLM:T#060,249,000,069,204,212,00000000, MIM v1.07 KC8MSY>APRS:$GPRMC,145330,A,4102.5095,N,08317.0445,W,024.2,134.5,140902,006.5,W/GPS FIX KC8MSY>APRTLM:T#061,249,010,068,205,213,00000000, MIM v1.07 KC8MSY>APRTLM:T#062,248,000,069,204,213,00000000, MIM v1.07 KC8MSY>APRS:$GPGGA,145340,4102.4701,N,08316.9737,W,1,11,1.0,11725.6,M,-33.9,M,,/GPS FIX KC8MSY>APRTLM:T#063,249,000,067,204,212,00000000, MIM v1.07 KC8MSY>APRTLM:T#064,249,000,068,204,212,00000000, MIM v1.07 KC8MSY>APRTLM:T#065,249,000,069,204,213,00000000, MIM v1.07 KC8MSY>APRS:$GPGGA,145350,4102.4303,N,08316.9028,W,1,11,1.0,11755.5,M,-33.9,M,,/GPS FIX KC8MSY>APRTLM:T#066,249,000,067,204,211,00000000, MIM v1.07 KC8MSY>APRTLM:T#067,249,000,067,204,212,00000000, MIM v1.07 KC8MSY>APRS:$GPGGA,145400,4102.3869,N,08316.8225,W,1,11,1.1,11786.5,M,-33.9,M,,/GPS FIX KC8MSY>APRTLM:T#068,249,000,067,204,212,00000000, MIM v1.07 KC8MSY>APRTLM:T#069,249,009,066,204,213,00000000, MIM v1.07 KC8MSY>APRTLM:T#070,249,000,065,204,213,00000000, MIM v1.07 KC8MSY>APRS:$GPGGA,145410,4102.3453,N,08316.7512,W,1,11,1.0,11815.7,M,-33.9,M,,/GPS FIX KC8MSY>APRTLM:T#071,249,072,064,204,212,00000000, MIM v1.07 KC8MSY>APRTLM:T#072,249,000,067,204,210,00000000, MIM v1.07 KC8MSY>APRS:$GPGGA,145420,4102.2984,N,08316.6712,W,1,10,1.0,11848.6,M,-33.9,M,,/GPS FIX KC8MSY>APRTLM:T#073,249,000,066,204,210,00000000, MIM v1.07 KC8MSY>APRS:WSU SUNTRACKER 091402 FINDLAY,OH KC8MSY>APRTLM:T#074,249,000,064,204,209,00000000, MIM v1.07 KC8MSY>APRTLM:T#075,249,000,065,204,208,00000000, MIM v1.07 KC8MSY>APRS:$GPGGA,145437,4102.2314,N,08316.5609,W,1,11,1.0,11906.9,M,-33.9,M,,/GPS FIX KC8MSY>APRTLM:T#076,249,000,063,204,210,00000000, MIM v1.07 KC8MSY>APRTLM:T#077,249,000,059,204,209,00000000, MIM v1.07 KC8MSY>APRS:$GPGGA,145447,4102.1894,N,08316.4827,W,1,11,1.0,11940.8,M,-33.9,M,,/GPS FIX KC8MSY>APRTLM:T#078,249,000,059,204,210,00000000, MIM v1.07 KC8MSY>APRTLM:T#079,249,000,060,204,210,00000000, MIM v1.07 KC8MSY>APRTLM:T#080,249,000,059,204,206,00000000, MIM v1.07 KC8MSY>APRS:$GPGGA,145457,4102.1506,N,08316.4060,W,1,10,1.0,11968.2,M,-33.9,M,,/GPS FIX KC8MSY>APRTLM:T#081,249,000,059,203,209,00000000, MIM v1.07 KC8MSY>APRTLM:T#082,249,000,057,204,210,00000000, MIM v1.07 KC8MSY>APRS:$GPRMC,145507,A,4102.1102,N,08316.3386,W,022.5,135.6,140902,006.5,W/GPS FIX KC8MSY>APRTLM:T#083,249,000,058,204,210,00000000, MIM v1.07 KC8MSY>APRTLM:T#084,249,000,057,204,210,00000000, MIM v1.07 KC8MSY>APRTLM:T#085,249,000,057,204,207,00000000, MIM v1.07 KC8MSY>APRS:$GPGGA,145517,4102.0729,N,08316.2700,W,1,11,1.0,12029.0,M,-33.8,M,,/GPS FIX KC8MSY>APRTLM:T#086,249,000,057,204,207,00000000, MIM v1.07 KC8MSY>APRTLM:T#087,249,000,055,204,209,00000000, MIM v1.07 KC8MSY>APRS:$GPGGA,145527,4102.0408,N,08316.2022,W,1,10,1.2,12059.1,M,-33.8,M,,/GPS FIX KC8MSY>APRTLM:T#088,249,000,056,204,210,00000000, MIM v1.07 KC8MSY>APRS:WSU SUNTRACKER 091402 FINDLAY,OH KC8MSY>APRTLM:T#089,249,000,055,204,207,00000000, MIM v1.07 KC8MSY>APRTLM:T#090,249,000,053,204,210,00000000, MIM v1.07 KC8MSY>APRS:$GPRMC,145544,A,4101.9706,N,08316.0812,W,024.6,123.2,140902,006.5,W/GPS FIX KC8MSY>APRTLM:T#091,249,000,052,204,206,00000000, MIM v1.07 KC8MSY>APRTLM:T#092,249,000,053,204,210,00000000, MIM v1.07 KC8MSY>APRS:$GPGGA,145554,4101.9369,N,08315.9984,W,1,11,1.0,12161.0,M,-33.8,M,,/GPS FIX KC8MSY>APRTLM:T#093,249,000,051,204,210,00000000, MIM v1.07 KC8MSY>APRTLM:T#094,249,000,049,204,209,00000000, MIM v1.07 KC8MSY>APRTLM:T#095,250,000,048,204,209,00000000, MIM v1.07 KC8MSY>APRS:$GPRMC,145604,A,4101.8990,N,08315.9103,W,026.7,107.0,140902,006.5,W/GPS FIX KC8MSY>APRTLM:T#096,249,000,050,204,206,00000000, MIM v1.07 KC8MSY>APRTLM:T#097,249,000,049,204,210,00000000, MIM v1.07 KC8MSY>APRS:$GPGGA,145614,4101.8741,N,08315.8055,W,1,11,0.9,12241.7,M,-33.8,M,,/GPS FIX KC8MSY>APRTLM:T#098,249,000,048,204,210,00000000, MIM v1.07 KC8MSY>APRTLM:T#099,249,000,047,204,206,00000000, MIM v1.07 KC8MSY>APRTLM:T#100,249,000,047,204,207,00000000, MIM v1.07 KC8MSY>APRS:$GPGGA,145624,4101.8487,N,08315.6883,W,1,11,0.9,12283.5,M,-33.8,M,,/GPS FIX KC8MSY>APRTLM:T#101,249,000,044,204,207,00000000, MIM v1.07 KC8MSY>APRTLM:T#102,249,000,045,204,211,00000000, MIM v1.07 KC8MSY>APRS:$GPGGA,145634,4101.8264,N,08315.5668,W,1,11,1.0,12324.9,M,-33.8,M,,/GPS FIX KC8MSY>APRTLM:T#103,250,000,044,204,207,00000000, MIM v1.07 KC8MSY>APRS:WSU SUNTRACKER 091402 FINDLAY,OH KC8MSY>APRTLM:T#104,250,000,045,204,208,00000000, MIM v1.07 KC8MSY>APRTLM:T#105,249,000,045,204,209,00000000, MIM v1.07 KC8MSY>APRS:$GPGGA,145649,4101.8016,N,08315.3768,W,1,11,1.0,12375.8,M,-33.8,M,,/GPS FIX KC8MSY>APRTLM:T#106,250,000,045,204,209,00000000, MIM v1.07 KC8MSY>APRTLM:T#107,249,000,047,204,210,00000000, MIM v1.07 KC8MSY>APRS:$GPGGA,145700,4101.7817,N,08315.2295,W,1,11,1.1,12406.7,M,-33.8,M,,/GPS FIX KC8MSY>APRTLM:T#108,249,000,046,204,208,00000000, MIM v1.07 KC8MSY>APRTLM:T#109,250,000,047,204,211,00000000, MIM v1.07 KC8MSY>APRTLM:T#110,250,000,046,204,207,00000000, MIM v1.07 KC8MSY>APRS:$GPGGA,145710,4101.7803,N,08315.1026,W,1,11,1.2,12432.6,M,-33.8,M,,/GPS FIX KC8MSY>APRTLM:T#111,250,000,046,204,209,00000000, MIM v1.07 KC8MSY>APRTLM:T#112,250,000,048,204,209,00000000, MIM v1.07 KC8MSY>APRS:$GPGGA,145720,4101.7791,N,08314.9782,W,1,11,1.0,12457.0,M,-33.8,M,,/GPS FIX KC8MSY>APRTLM:T#113,249,000,047,203,207,00000000, MIM v1.07 KC8MSY>APRTLM:T#114,250,000,048,204,207,00000000, MIM v1.07 KC8MSY>APRTLM:T#115,250,000,048,204,211,00000000, MIM v1.07 KC8MSY>APRS:$GPGGA,145730,4101.7755,N,08314.8615,W,1,11,1.1,12479.0,M,-33.8,M,,/GPS FIX KC8MSY>APRTLM:T#116,250,000,049,204,206,00000000, MIM v1.07 KC8MSY>APRTLM:T#117,250,000,049,204,207,00000000, MIM v1.07 KC8MSY>APRS:$GPRMC,145740,A,4101.7666,N,08314.7359,W,030.2,094.1,140902,006.5,W/GPS FIX KC8MSY>APRTLM:T#118,250,000,050,204,207,00000000, MIM v1.07 KC8MSY>APRS:WSU SUNTRACKER 091402 FINDLAY,OH KC8MSY>APRTLM:T#119,250,000,051,204,208,00000000, MIM v1.07 KC8MSY>APRTLM:T#120,250,000,050,204,206,00000000, MIM v1.07 KC8MSY>APRS:$GPGGA,145757,4101.7496,N,08314.5252,W,1,10,0.9,12542.8,M,-33.8,M,,/GPS FIX KC8MSY>APRTLM:T#121,250,000,050,204,209,00000000, MIM v1.07 KC8MSY>APRTLM:T#122,250,000,051,204,209,00000000, MIM v1.07 KC8MSY>APRS:$GPGGA,145807,4101.7416,N,08314.3895,W,1,11,1.0,12567.8,M,-33.8,M,,/GPS FIX KC8MSY>APRTLM:T#123,250,000,050,204,209,00000000, MIM v1.07 KC8MSY>APRTLM:T#124,250,000,051,204,209,00000000, MIM v1.07 KC8MSY>APRTLM:T#125,250,000,052,204,210,00000000, MIM v1.07 KC8MSY>APRS:$GPGGA,145817,4101.7323,N,08314.2534,W,1,11,1.1,12591.1,M,-33.8,M,,/GPS FIX KC8MSY>APRTLM:T#126,250,000,052,204,210,00000000, MIM v1.07 KC8MSY>APRTLM:T#127,250,000,052,204,210,00000000, MIM v1.07 KC8MSY>APRS:$GPGGA,145827,4101.7220,N,08314.1146,W,1,11,1.0,12614.7,M,-33.8,M,,/GPS FIX KC8MSY>APRTLM:T#128,250,000,052,204,210,00000000, MIM v1.07 KC8MSY>APRTLM:T#129,250,000,051,204,211,00000000, MIM v1.07 KC8MSY>APRTLM:T#130,250,000,049,204,211,00000000, MIM v1.07 KC8MSY>APRS:$GPGGA,145837,4101.7085,N,08313.9747,W,1,11,0.9,12641.4,M,-33.8,M,,/GPS FIX KC8MSY>APRTLM:T#131,250,000,050,204,209,00000000, MIM v1.07 KC8MSY>APRTLM:T#132,250,000,050,204,208,00000000, MIM v1.07 KC8MSY>APRS:$GPGGA,145847,4101.7061,N,08313.8166,W,1,11,1.1,12670.8,M,-33.8,M,,/GPS FIX KC8MSY>APRTLM:T#133,250,000,052,204,210,00000000, MIM v1.07 KC8MSY>APRS:WSU SUNTRACKER 091402 FINDLAY,OH KC8MSY>APRTLM:T#134,250,000,050,204,206,00000000, MIM v1.07 KC8MSY>APRTLM:T#135,250,000,050,204,211,00000000, MIM v1.07 KC8MSY>APRS:$GPGGA,145904,4101.7003,N,08313.5344,W,1,11,1.0,12728.3,M,-33.8,M,,/GPS FIX KC8MSY>APRTLM:T#136,250,000,049,204,209,00000000, MIM v1.07 KC8MSY>APRTLM:T#137,250,000,050,204,210,00000000, MIM v1.07 KC8MSY>APRS:$GPGGA,145914,4101.6992,N,08313.3595,W,1,11,0.9,12759.9,M,-33.8,M,,/GPS FIX KC8MSY>APRTLM:T#138,250,000,049,204,210,00000000, MIM v1.07 KC8MSY>APRTLM:T#139,250,000,050,204,210,00000000, MIM v1.07 KC8MSY>APRTLM:T#140,250,000,048,204,209,00000000, MIM v1.07 KC8MSY>APRS:$GPGGA,145924,4101.6918,N,08313.1740,W,1,10,0.9,12789.0,M,-33.8,M,,/GPS FIX KC8MSY>APRTLM:T#141,250,000,050,204,207,00000000, MIM v1.07 KC8MSY>APRTLM:T#142,250,000,050,204,209,00000000, MIM v1.07 KC8MSY>APRS:$GPGGA,145934,4101.6886,N,08312.9882,W,1,11,1.0,12815.5,M,-33.8,M,,/GPS FIX KC8MSY>APRTLM:T#143,251,000,051,204,206,00000000, MIM v1.07 KC8MSY>APRTLM:T#144,251,000,049,204,207,00000000, MIM v1.07 KC8MSY>APRTLM:T#145,251,000,049,204,210,00000000, MIM v1.07 KC8MSY>APRS:$GPGGA,145944,4101.6827,N,08312.7917,W,1,10,1.0,12844.2,M,-33.8,M,,/GPS FIX KC8MSY>APRTLM:T#146,251,000,051,204,206,00000000, MIM v1.07 KC8MSY>APRTLM:T#147,251,000,051,204,208,00000000, MIM v1.07 KC8MSY>APRS:$GPGGA,145954,4101.6756,N,08312.5986,W,1,10,0.9,12872.8,M,-33.8,M,,/GPS FIX KC8MSY>APRTLM:T#148,251,000,051,204,209,00000000, MIM v1.07 KC8MSY>APRS:WSU SUNTRACKER 091402 FINDLAY,OH KC8MSY>APRTLM:T#149,251,000,052,204,209,00000000, MIM v1.07 KC8MSY>APRTLM:T#150,251,000,050,203,211,00000000, MIM v1.07 KC8MSY>APRS:$GPGGA,150011,4101.6736,N,08312.2484,W,1,11,1.0,12928.8,M,-33.8,M,,/GPS FIX KC8MSY>APRTLM:T#151,250,000,052,204,210,00000000, MIM v1.07 KC8MSY>APRTLM:T#152,251,000,052,204,209,00000000, MIM v1.07 KC8MSY>APRS:$GPGGA,150021,4101.6706,N,08312.0467,W,1,11,0.9,12956.1,M,-33.8,M,,/GPS FIX KC8MSY>APRTLM:T#153,250,000,052,204,209,00000000, MIM v1.07 KC8MSY>APRTLM:T#154,251,000,052,204,210,00000000, MIM v1.07 KC8MSY>APRTLM:T#155,251,000,053,204,208,00000000, MIM v1.07 KC8MSY>APRS:$GPGGA,150031,4101.6645,N,08311.8488,W,1,10,1.0,12982.2,M,-33.8,M,,/GPS FIX KC8MSY>APRTLM:T#156,251,000,051,204,209,00000000, MIM v1.07 KC8MSY>APRTLM:T#157,251,000,053,204,209,00000000, MIM v1.07 KC8MSY>APRS:$GPRMC,150041,A,4101.6567,N,08311.6560,W,053.2,094.0,140902,006.6,W/GPS FIX KC8MSY>APRTLM:T#158,251,000,052,204,208,00000000, MIM v1.07 KC8MSY>APRTLM:T#159,251,000,053,204,206,00000000, MIM v1.07 KC8MSY>APRTLM:T#160,251,000,053,204,209,00000000, MIM v1.07 KC8MSY>APRS:$GPGGA,150051,4101.6519,N,08311.4681,W,1,10,1.2,13032.8,M,-33.8,M,,/GPS FIX KC8MSY>APRTLM:T#161,251,000,053,204,211,00000000, MIM v1.07 KC8MSY>APRTLM:T#162,251,000,054,204,210,00000000, MIM v1.07 KC8MSY>APRS:$GPRMC,150101,A,4101.6431,N,08311.2882,W,047.7,093.3,140902,006.6,W/GPS FIX KC8MSY>APRTLM:T#163,251,000,056,204,211,00000000, MIM v1.07 KC8MSY>APRS:WSU SUNTRACKER 091402 FINDLAY,OH KC8MSY>APRTLM:T#164,251,000,057,204,212,00000000, MIM v1.07 KC8MSY>APRTLM:T#165,251,000,057,204,211,00000000, MIM v1.07 KC8MSY>APRS:$GPGGA,150117,4101.6211,N,08311.0011,W,1,11,1.4,13103.7,M,-33.8,M,,/GPS FIX KC8MSY>APRTLM:T#166,251,000,059,204,210,00000000, MIM v1.07 KC8MSY>APRTLM:T#167,251,000,059,204,212,00000000, MIM v1.07 KC8MSY>APRS:$GPGGA,150127,4101.6023,N,08310.8295,W,1,10,1.0,13131.2,M,-33.8,M,,/GPS FIX KC8MSY>APRTLM:T#168,251,000,056,204,211,00000000, MIM v1.07 KC8MSY>APRTLM:T#169,251,058,057,205,213,00000000, MIM v1.07 KC8MSY>APRTLM:T#170,251,000,058,204,213,00000000, MIM v1.07 KC8MSY>APRS:$GPGGA,150137,4101.5872,N,08310.6675,W,1,11,1.0,13162.0,M,-33.8,M,,/GPS FIX KC8MSY>APRTLM:T#171,251,000,058,204,211,00000000, MIM v1.07 KC8MSY>APRTLM:T#172,251,000,060,204,211,00000000, MIM v1.07 KC8MSY>APRS:$GPGGA,150147,4101.5673,N,08310.5047,W,1,09,1.0,13187.2,M,-33.8,M,,/GPS FIX KC8MSY>APRTLM:T#173,251,000,059,204,212,00000000, MIM v1.07 KC8MSY>APRTLM:T#174,251,000,060,204,209,00000000, MIM v1.07 KC8MSY>APRTLM:T#175,251,000,058,203,210,00000000, MIM v1.07 KC8MSY>APRS:$GPGGA,150157,4101.5463,N,08310.3470,W,1,10,1.4,13216.4,M,-33.8,M,,/GPS FIX KC8MSY>APRTLM:T#176,251,000,059,204,209,00000000, MIM v1.07 KC8MSY>APRTLM:T#177,251,000,057,204,212,00000000, MIM v1.07 KC8MSY>APRS:$GPGGA,150207,4101.5237,N,08310.1937,W,1,10,1.2,13244.7,M,-33.8,M,,/GPS FIX KC8MSY>APRTLM:T#178,251,000,059,204,211,00000000, MIM v1.07 KC8MSY>APRS:WSU SUNTRACKER 091402 FINDLAY,OH KC8MSY>APRTLM:T#179,251,000,060,204,210,00000000, MIM v1.07 KC8MSY>APRTLM:T#180,251,085,059,205,212,00000000, MIM v1.07 KC8MSY>APRS:$GPGGA,150224,4101.4886,N,08309.9550,W,1,10,1.2,13291.1,M,-33.8,M,,/GPS FIX KC8MSY>APRTLM:T#181,251,000,059,204,209,00000000, MIM v1.07 KC8MSY>APRTLM:T#182,252,012,060,204,211,00000000, MIM v1.07 KC8MSY>APRS:$GPGGA,150234,4101.4708,N,08309.8212,W,1,10,1.0,13316.7,M,-33.8,M,,/GPS FIX KC8MSY>APRTLM:T#183,251,110,063,205,214,00000000, MIM v1.07 KC8MSY>APRTLM:T#184,251,000,062,204,212,00000000, MIM v1.07 KC8MSY>APRTLM:T#185,251,000,062,204,211,00000000, MIM v1.07 KC8MSY>APRS:$GPGGA,150244,4101.4563,N,08309.6841,W,1,10,1.0,13342.7,M,-33.8,M,,/GPS FIX KC8MSY>APRTLM:T#186,251,000,061,204,212,00000000, MIM v1.07 KC8MSY>APRTLM:T#187,251,036,062,205,215,00000000, MIM v1.07 KC8MSY>APRS:$GPGGA,150254,4101.4400,N,08309.5392,W,1,10,1.0,13373.2,M,-33.8,M,,/GPS FIX KC8MSY>APRTLM:T#188,251,000,061,204,211,00000000, MIM v1.07 KC8MSY>APRTLM:T#189,251,000,060,204,209,00000000, MIM v1.07 KC8MSY>APRTLM:T#190,251,000,060,204,208,00000000, MIM v1.07 KC8MSY>APRS:$GPGGA,150304,4101.4258,N,08309.3873,W,1,10,1.2,13407.2,M,-33.8,M,,/GPS FIX KC8MSY>APRTLM:T#191,251,090,056,204,215,00000000, MIM v1.07 KC8MSY>APRTLM:T#192,251,000,060,204,212,00000000, MIM v1.07 KC8MSY>APRS:$GPGGA,150314,4101.4180,N,08309.2301,W,1,10,1.2,13436.1,M,-33.8,M,,/GPS FIX KC8MSY>APRTLM:T#193,251,000,059,204,212,00000000, MIM v1.07 KC8MSY>APRS:WSU SUNTRACKER 091402 FINDLAY,OH KC8MSY>APRTLM:T#194,251,000,057,204,209,00000000, MIM v1.07 KC8MSY>APRTLM:T#195,251,000,054,204,209,00000000, MIM v1.07 KC8MSY>APRS:$GPGGA,150331,4101.4047,N,08308.9311,W,1,10,1.1,13503.4,M,-33.8,M,,/GPS FIX KC8MSY>APRTLM:T#196,252,179,055,204,215,00000000, MIM v1.07 KC8MSY>APRTLM:T#197,251,077,058,204,213,00000000, MIM v1.07 KC8MSY>APRS:$GPGGA,150341,4101.3893,N,08308.7425,W,1,10,1.2,13540.4,M,-33.8,M,,/GPS FIX KC8MSY>APRTLM:T#198,251,000,057,204,209,00000000, MIM v1.07 KC8MSY>APRTLM:T#199,252,000,056,204,212,00000000, MIM v1.07 KC8MSY>APRTLM:T#200,252,000,057,204,211,00000000, MIM v1.07 KC8MSY>APRS:$GPGGA,150351,4101.3746,N,08308.5437,W,1,10,1.0,13574.9,M,-33.8,M,,/GPS FIX KC8MSY>APRTLM:T#201,252,000,056,204,208,00000000, MIM v1.07 KC8MSY>APRTLM:T#202,252,000,055,204,211,00000000, MIM v1.07 KC8MSY>APRS:$GPGGA,150401,4101.3611,N,08308.3425,W,1,10,1.1,13608.5,M,-33.8,M,,/GPS FIX KC8MSY>APRTLM:T#203,252,034,056,204,214,00000000, MIM v1.07 KC8MSY>APRS:$GPGGA,150411,4101.3534,N,08308.1333,W,1,09,1.0,13634.8,M,-33.8,M,,/GPS FIX KC8MSY>APRTLM:T#206,251,000,061,204,211,00000000, MIM v1.07 KC8MSY>APRTLM:T#207,251,000,062,204,212,00000000, MIM v1.07 KC8MSY>APRS:$GPGGA,150421,4101.3466,N,08307.9194,W,1,10,1.2,13659.7,M,-33.8,M,,/GPS FIX KC8MSY>APRTLM:T#208,251,000,061,204,208,00000000, MIM v1.07 KC8MSY>APRS:WSU SUNTRACKER 091402 FINDLAY,OH KC8MSY>APRTLM:T#209,252,000,061,204,212,00000000, MIM v1.07 KC8MSY>APRTLM:T#210,252,000,062,204,210,00000000, MIM v1.07 KC8MSY>APRS:$GPGGA,150438,4101.3288,N,08307.5453,W,1,10,1.3,13703.5,M,-33.8,M,,/GPS FIX KC8MSY>APRTLM:T#211,251,000,062,204,212,00000000, MIM v1.07 KC8MSY>APRTLM:T#212,252,000,062,204,212,00000000, MIM v1.07 KC8MSY>APRS:$GPGGA,150448,4101.3174,N,08307.3221,W,1,10,1.1,13731.5,M,-33.8,M,,/GPS FIX KC8MSY>APRTLM:T#213,251,000,061,204,212,00000000, MIM v1.07 KC8MSY>APRTLM:T#214,252,008,061,205,214,00000000, MIM v1.07 KC8MSY>APRTLM:T#215,251,000,062,204,213,00000000, MIM v1.07 KC8MSY>APRS:$GPGGA,150458,4101.3083,N,08307.0967,W,1,10,1.1,13758.4,M,-33.8,M,,/GPS FIX KC8MSY>APRTLM:T#216,251,000,062,204,210,00000000, MIM v1.07 KC8MSY>APRTLM:T#217,251,000,060,204,211,00000000, MIM v1.07 KC8MSY>APRS:$GPGGA,150508,4101.2980,N,08306.8752,W,1,09,1.1,13786.1,M,-33.8,M,,/GPS FIX KC8MSY>APRTLM:T#218,251,000,061,204,208,00000000, MIM v1.07 KC8MSY>APRTLM:T#219,251,000,060,204,206,00000000, MIM v1.07 KC8MSY>APRTLM:T#220,251,000,060,204,208,00000000, MIM v1.07 KC8MSY>APRS:$GPGGA,150518,4101.2853,N,08306.6542,W,1,10,1.0,13812.0,M,-33.8,M,,/GPS FIX KC8MSY>APRTLM:T#221,252,000,059,204,209,00000000, MIM v1.07 KC8MSY>APRTLM:T#222,251,000,059,204,210,00000000, MIM v1.07 KC8MSY>APRS:$GPGGA,150528,4101.2745,N,08306.4277,W,1,10,0.9,13837.1,M,-33.8,M,,/GPS FIX KC8MSY>APRTLM:T#223,251,000,058,204,207,00000000, MIM v1.07 KC8MSY>APRS:WSU SUNTRACKER 091402 FINDLAY,OH KC8MSY>APRTLM:T#224,251,000,059,203,209,00000000, MIM v1.07 KC8MSY>APRTLM:T#225,251,000,056,204,210,00000000, MIM v1.07 KC8MSY>APRS:$GPGGA,150545,4101.2489,N,08306.0490,W,1,10,1.0,13883.5,M,-33.8,M,,/GPS FIX KC8MSY>APRTLM:T#226,252,000,053,204,210,00000000, MIM v1.07 KC8MSY>APRTLM:T#227,251,000,057,204,208,00000000, MIM v1.07 KC8MSY>APRS:$GPGGA,150555,4101.2305,N,08305.8357,W,1,10,1.0,13908.9,M,-33.8,M,,/GPS FIX KC8MSY>APRTLM:T#228,252,000,056,204,208,00000000, MIM v1.07 KC8MSY>APRTLM:T#229,251,000,056,204,210,00000000, MIM v1.07 KC8MSY>APRTLM:T#230,251,000,056,204,210,00000000, MIM v1.07 KC8MSY>APRS:$GPGGA,150605,4101.2096,N,08305.6230,W,1,10,0.9,13935.8,M,-33.8,M,,/GPS FIX KC8MSY>APRTLM:T#231,252,000,055,204,208,00000000, MIM v1.07 KC8MSY>APRTLM:T#232,252,000,056,203,207,00000000, MIM v1.07 KC8MSY>APRS:$GPGGA,150615,4101.1845,N,08305.4100,W,1,10,1.1,13965.5,M,-33.8,M,,/GPS FIX KC8MSY>APRTLM:T#233,252,000,056,204,209,00000000, MIM v1.07 KC8MSY>APRTLM:T#234,251,000,055,204,206,00000000, MIM v1.07 KC8MSY>APRTLM:T#235,252,000,054,204,206,00000000, MIM v1.07 KC8MSY>APRS:$GPGGA,150625,4101.1629,N,08305.2030,W,1,10,1.0,13997.1,M,-33.8,M,,/GPS FIX KC8MSY>APRTLM:T#236,251,000,053,204,210,00000000, MIM v1.07 KC8MSY>APRTLM:T#237,251,000,052,204,207,00000000, MIM v1.07 KC8MSY>APRS:$GPGGA,150635,4101.1338,N,08305.0097,W,1,10,1.2,14027.5,M,-33.8,M,,/GPS FIX KC8MSY>APRTLM:T#238,251,000,054,204,209,00000000, MIM v1.07 KC8MSY>APRS:WSU SUNTRACKER 091402 FINDLAY,OH KC8MSY>APRTLM:T#239,251,000,054,204,209,00000000, MIM v1.07 KC8MSY>APRTLM:T#240,251,000,052,204,207,00000000, MIM v1.07 KC8MSY>APRS:$GPGGA,150652,4101.0900,N,08304.6898,W,1,10,1.1,14079.6,M,-33.8,M,,/GPS FIX KC8MSY>APRTLM:T#241,251,000,054,204,210,00000000, MIM v1.07 KC8MSY>APRTLM:T#242,251,000,053,204,209,00000000, MIM v1.07 KC8MSY>APRS:$GPGGA,150702,4101.0660,N,08304.5075,W,1,10,1.2,14109.6,M,-33.8,M,,/GPS FIX KC8MSY>APRTLM:T#243,252,000,053,204,210,00000000, MIM v1.07 KC8MSY>APRTLM:T#244,251,000,053,204,207,00000000, MIM v1.07 KC8MSY>APRTLM:T#245,252,000,054,204,208,00000000, MIM v1.07 KC8MSY>APRS:$GPGGA,150712,4101.0438,N,08304.3236,W,1,10,1.2,14138.6,M,-33.8,M,,/GPS FIX KC8MSY>APRTLM:T#246,252,000,054,204,207,00000000, MIM v1.07 KC8MSY>APRTLM:T#247,251,000,053,204,206,00000000, MIM v1.07 KC8MSY>APRS:$GPGGA,150722,4101.0240,N,08304.1584,W,1,10,1.2,14172.5,M,-33.8,M,,/GPS FIX KC8MSY>APRTLM:T#248,252,000,053,204,210,00000000, MIM v1.07 KC8MSY>APRTLM:T#249,252,000,054,204,210,00000000, MIM v1.07 KC8MSY>APRTLM:T#250,252,000,054,204,210,00000000, MIM v1.07 KC8MSY>APRS:$GPGGA,150732,4101.0082,N,08303.9897,W,1,10,1.1,14205.6,M,-33.8,M,,/GPS FIX KC8MSY>APRTLM:T#251,252,000,053,204,210,00000000, MIM v1.07 KC8MSY>APRTLM:T#252,252,000,053,204,210,00000000, MIM v1.07 KC8MSY>APRS:$GPGGA,150742,4100.9959,N,08303.8347,W,1,10,1.1,14237.1,M,-33.8,M,,/GPS FIX KC8MSY>APRTLM:T#253,252,000,054,204,210,00000000, MIM v1.07 KC8MSY>APRS:WSU SUNTRACKER 091402 FINDLAY,OH KC8MSY>APRTLM:T#254,252,000,053,204,210,00000000, MIM v1.07 KC8MSY>APRTLM:T#255,252,000,055,204,206,00000000, MIM v1.07 KC8MSY>APRS:$GPGGA,150759,4100.9691,N,08303.5566,W,1,10,1.0,14289.7,M,-33.8,M,,/GPS FIX KC8MSY>APRTLM:T#000,252,000,054,204,209,00000000, MIM v1.07 KC8MSY>APRTLM:T#001,252,000,054,204,210,00000000, MIM v1.07 KC8MSY>APRS:$GPGGA,150809,4100.9511,N,08303.3966,W,1,10,1.2,14320.0,M,-33.8,M,,/GPS FIX KC8MSY>APRTLM:T#002,252,000,055,204,209,00000000, MIM v1.07 KC8MSY>APRTLM:T#003,252,000,055,204,210,00000000, MIM v1.07 KC8MSY>APRTLM:T#004,252,000,055,204,208,00000000, MIM v1.07 KC8MSY>APRS:$GPGGA,150819,4100.9331,N,08303.2354,W,1,10,0.9,14352.2,M,-33.8,M,,/GPS FIX KC8MSY>APRTLM:T#005,252,000,054,204,206,00000000, MIM v1.07 KC8MSY>APRTLM:T#006,252,000,054,204,207,00000000, MIM v1.07 KC8MSY>APRS:$GPGGA,150829,4100.9113,N,08303.0707,W,1,10,1.0,14381.9,M,-33.8,M,,/GPS FIX KC8MSY>APRTLM:T#007,252,000,054,204,207,00000000, MIM v1.07 KC8MSY>APRTLM:T#008,252,000,056,203,209,00000000, MIM v1.07 KC8MSY>APRTLM:T#009,252,000,056,204,206,00000000, MIM v1.07 KC8MSY>APRS:$GPGGA,150839,4100.8940,N,08302.9031,W,1,10,1.1,14412.0,M,-33.8,M,,/GPS FIX KC8MSY>APRTLM:T#010,252,000,055,204,206,00000000, MIM v1.07 KC8MSY>APRTLM:T#011,252,000,055,204,207,00000000, MIM v1.07 KC8MSY>APRS:$GPGGA,150849,4100.8797,N,08302.7389,W,1,10,1.1,14442.4,M,-33.8,M,,/GPS FIX KC8MSY>APRTLM:T#012,252,000,055,204,209,00000000, MIM v1.07 KC8MSY>APRS:WSU SUNTRACKER 091402 FINDLAY,OH KC8MSY>APRTLM:T#013,252,000,055,204,208,00000000, MIM v1.07 KC8MSY>APRTLM:T#014,252,000,055,204,208,00000000, MIM v1.07 KC8MSY>APRS:$GPGGA,150905,4100.8589,N,08302.4754,W,1,10,0.9,14490.9,M,-33.8,M,,/GPS FIX KC8MSY>APRTLM:T#015,252,000,055,204,209,00000000, MIM v1.07 KC8MSY>APRTLM:T#016,252,000,056,204,208,00000000, MIM v1.07 KC8MSY>APRS:$GPGGA,150915,4100.8420,N,08302.3148,W,1,10,1.1,14521.9,M,-33.8,M,,/GPS FIX KC8MSY>APRTLM:T#017,252,000,056,204,207,00000000, MIM v1.07 KC8MSY>APRTLM:T#018,252,000,055,204,206,00000000, MIM v1.07 KC8MSY>APRTLM:T#019,252,000,055,204,210,00000000, MIM v1.07 KC8MSY>APRS:$GPGGA,150925,4100.8302,N,08302.1517,W,1,09,1.1,14552.0,M,-33.8,M,,/GPS FIX KC8MSY>APRTLM:T#020,252,000,055,204,206,00000000, MIM v1.07 KC8MSY>APRTLM:T#021,252,000,054,204,210,00000000, MIM v1.07 KC8MSY>APRS:$GPGGA,150935,4100.8158,N,08301.9898,W,1,09,1.2,14582.2,M,-33.8,M,,/GPS FIX KC8MSY>APRTLM:T#022,252,000,055,203,208,00000000, MIM v1.07 KC8MSY>APRTLM:T#023,252,000,052,204,208,00000000, MIM v1.07 KC8MSY>APRTLM:T#024,252,000,054,204,206,00000000, MIM v1.07 KC8MSY>APRS:$GPGGA,150945,4100.8031,N,08301.8321,W,1,10,1.0,14612.2,M,-33.8,M,,/GPS FIX KC8MSY>APRTLM:T#025,252,000,053,204,209,00000000, MIM v1.07 KC8MSY>APRTLM:T#026,252,000,054,204,207,00000000, MIM v1.07 KC8MSY>APRS:$GPGGA,150955,4100.7902,N,08301.6712,W,1,10,1.2,14643.1,M,-33.8,M,,/GPS FIX KC8MSY>APRTLM:T#027,252,000,054,204,210,00000000, MIM v1.07 KC8MSY>APRS:WSU SUNTRACKER 091402 FINDLAY,OH KC8MSY>APRTLM:T#028,252,000,054,203,209,00000000, MIM v1.07 KC8MSY>APRTLM:T#029,252,000,053,204,210,00000000, MIM v1.07 KC8MSY>APRS:$GPGGA,151012,4100.7641,N,08301.3811,W,1,10,1.0,14696.7,M,-33.8,M,,/GPS FIX KC8MSY>APRTLM:T#030,252,000,053,203,209,00000000, MIM v1.07 KC8MSY>APRTLM:T#031,252,000,055,204,210,00000000, MIM v1.07 KC8MSY>APRS:$GPGGA,151022,4100.7493,N,08301.2095,W,1,10,1.1,14723.8,M,-33.8,M,,/GPS FIX KC8MSY>APRTLM:T#032,252,000,053,204,209,00000000, MIM v1.07 KC8MSY>APRTLM:T#033,252,000,055,204,206,00000000, MIM v1.07 KC8MSY>APRTLM:T#034,252,000,053,204,206,00000000, MIM v1.07 KC8MSY>APRS:$GPGGA,151032,4100.7346,N,08301.0366,W,1,10,0.9,14753.5,M,-33.8,M,,/GPS FIX KC8MSY>APRTLM:T#035,252,000,052,203,210,00000000, MIM v1.07 KC8MSY>APRTLM:T#036,252,000,054,204,210,00000000, MIM v1.07 KC8MSY>APRS:$GPGGA,151042,4100.7183,N,08300.8609,W,1,10,1.0,14785.1,M,-33.8,M,,/GPS FIX KC8MSY>APRTLM:T#037,252,000,054,204,210,00000000, MIM v1.07 KC8MSY>APRTLM:T#038,252,000,054,204,210,00000000, MIM v1.07 KC8MSY>APRTLM:T#039,252,000,055,204,206,00000000, MIM v1.07 KC8MSY>APRS:$GPGGA,151052,4100.7045,N,08300.6802,W,1,10,1.2,14813.0,M,-33.8,M,,/GPS FIX KC8MSY>APRTLM:T#040,252,000,054,204,208,00000000, MIM v1.07 KC8MSY>APRTLM:T#041,252,000,054,203,209,00000000, MIM v1.07 KC8MSY>APRS:$GPGGA,151102,4100.6832,N,08300.4933,W,1,09,1.2,14841.7,M,-33.8,M,,/GPS FIX KC8MSY>APRTLM:T#042,252,000,052,204,206,00000000, MIM v1.07 KC8MSY>APRS:WSU SUNTRACKER 091402 FINDLAY,OH KC8MSY>APRTLM:T#043,252,000,054,204,210,00000000, MIM v1.07 KC8MSY>APRTLM:T#044,252,000,054,204,207,00000000, MIM v1.07 KC8MSY>APRS:$GPGGA,151119,4100.6350,N,08300.1628,W,1,10,1.0,14891.9,M,-33.8,M,,/GPS FIX KC8MSY>APRTLM:T#045,253,000,053,204,209,00000000, MIM v1.07 KC8MSY>APRTLM:T#046,253,000,050,204,210,00000000, MIM v1.07 KC8MSY>APRS:$GPGGA,151129,4100.5993,N,08259.9723,W,1,10,0.9,14924.8,M,-33.8,M,,/GPS FIX KC8MSY>APRTLM:T#047,252,000,052,204,208,00000000, MIM v1.07 KC8MSY>APRTLM:T#048,253,000,053,204,210,00000000, MIM v1.07 KC8MSY>APRTLM:T#049,252,000,053,203,209,00000000, MIM v1.07 KC8MSY>APRS:$GPGGA,151139,4100.5631,N,08259.7738,W,1,10,1.1,14955.0,M,-33.8,M,,/GPS FIX KC8MSY>APRTLM:T#050,253,000,053,204,210,00000000, MIM v1.07 KC8MSY>APRTLM:T#051,252,000,053,203,210,00000000, MIM v1.07 KC8MSY>APRS:$GPGGA,151149,4100.5237,N,08259.5820,W,1,10,1.0,14983.7,M,-33.8,M,,/GPS FIX KC8MSY>APRTLM:T#052,252,000,054,204,210,00000000, MIM v1.07 KC8MSY>APRTLM:T#053,252,000,053,204,209,00000000, MIM v1.07 KC8MSY>APRTLM:T#054,252,000,053,204,209,00000000, MIM v1.07 KC8MSY>APRS:$GPGGA,151159,4100.4796,N,08259.3909,W,1,10,1.0,15011.1,M,-33.8,M,,/GPS FIX KC8MSY>APRTLM:T#055,252,000,054,204,208,00000000, MIM v1.07 KC8MSY>APRTLM:T#056,252,000,054,204,210,00000000, MIM v1.07 KC8MSY>APRS:$GPGGA,151209,4100.4337,N,08259.2076,W,1,10,1.0,15044.3,M,-33.8,M,,/GPS FIX KC8MSY>APRTLM:T#057,252,000,054,204,209,00000000, MIM v1.07 KC8MSY>APRS:WSU SUNTRACKER 091402 FINDLAY,OH KC8MSY>APRTLM:T#058,253,000,053,203,209,00000000, MIM v1.07 KC8MSY>APRTLM:T#059,253,000,050,204,210,00000000, MIM v1.07 KC8MSY>APRS:$GPGGA,151226,4100.3509,N,08258.9100,W,1,10,1.1,15096.4,M,-33.8,M,,/GPS FIX KC8MSY>APRTLM:T#060,253,000,051,204,210,00000000, MIM v1.07 KC8MSY>APRTLM:T#061,253,000,053,204,207,00000000, MIM v1.07 KC8MSY>APRS:$GPGGA,151236,4100.3033,N,08258.7345,W,1,10,0.9,15127.8,M,-33.8,M,,/GPS FIX KC8MSY>APRTLM:T#062,252,000,053,204,210,00000000, MIM v1.07 KC8MSY>APRTLM:T#063,253,000,052,204,207,00000000, MIM v1.07 KC8MSY>APRTLM:T#064,253,000,053,204,206,00000000, MIM v1.07 KC8MSY>APRS:$GPGGA,151246,4100.2582,N,08258.5619,W,1,09,0.9,15159.0,M,-33.8,M,,/GPS FIX KC8MSY>APRTLM:T#065,253,000,053,204,207,00000000, MIM v1.07 KC8MSY>APRTLM:T#066,253,000,052,204,210,00000000, MIM v1.07 KC8MSY>APRS:$GPGGA,151256,4100.2146,N,08258.3957,W,1,10,1.1,15193.4,M,-33.8,M,,/GPS FIX KC8MSY>APRTLM:T#067,253,000,053,203,206,00000000, MIM v1.07 KC8MSY>APRTLM:T#068,253,000,052,204,207,00000000, MIM v1.07 KC8MSY>APRTLM:T#069,253,000,052,204,210,00000000, MIM v1.07 KC8MSY>APRS:$GPGGA,151306,4100.1758,N,08258.2352,W,1,10,1.0,15224.8,M,-33.8,M,,/GPS FIX KC8MSY>APRTLM:T#070,253,000,052,204,206,00000000, MIM v1.07 KC8MSY>APRTLM:T#071,253,000,054,204,209,00000000, MIM v1.07 KC8MSY>APRS:$GPGGA,151316,4100.1406,N,08258.0816,W,1,10,0.9,15257.4,M,-33.8,M,,/GPS FIX KC8MSY>APRTLM:T#072,253,000,054,204,207,00000000, MIM v1.07 KC8MSY>APRS:WSU SUNTRACKER 091402 FINDLAY,OH KC8MSY>APRTLM:T#073,253,000,053,204,210,00000000, MIM v1.07 KC8MSY>APRTLM:T#074,253,000,054,204,206,00000000, MIM v1.07 KC8MSY>APRS:$GPGGA,151333,4100.0865,N,08257.8106,W,1,10,1.2,15314.9,M,-33.8,M,,/GPS FIX KC8MSY>APRTLM:T#075,253,000,053,204,207,00000000, MIM v1.07 KC8MSY>APRTLM:T#076,253,000,054,204,206,00000000, MIM v1.07 KC8MSY>APRS:$GPGGA,151343,4100.0614,N,08257.6535,W,1,10,0.9,15348.2,M,-33.8,M,,/GPS FIX KC8MSY>APRTLM:T#077,253,000,054,204,206,00000000, MIM v1.07 KC8MSY>APRTLM:T#078,253,000,054,204,209,00000000, MIM v1.07 KC8MSY>APRTLM:T#079,253,000,054,204,210,00000000, MIM v1.07 KC8MSY>APRS:$GPGGA,151353,4100.0333,N,08257.4987,W,1,10,1.1,15379.7,M,-33.8,M,,/GPS FIX KC8MSY>APRTLM:T#080,253,000,053,204,208,00000000, MIM v1.07 KC8MSY>APRTLM:T#081,253,000,052,204,206,00000000, MIM v1.07 KC8MSY>APRS:$GPGGA,151403,4100.0092,N,08257.3426,W,1,10,1.1,15411.5,M,-33.8,M,,/GPS FIX KC8MSY>APRTLM:T#082,253,000,052,204,209,00000000, MIM v1.07 KC8MSY>APRTLM:T#083,253,000,053,204,206,00000000, MIM v1.07 KC8MSY>APRTLM:T#084,253,000,054,204,210,00000000, MIM v1.07 KC8MSY>APRS:$GPGGA,151413,4059.9890,N,08257.1868,W,1,10,1.0,15442.3,M,-33.8,M,,/GPS FIX KC8MSY>APRTLM:T#085,253,000,053,204,206,00000000, MIM v1.07 KC8MSY>APRTLM:T#086,253,000,053,203,207,00000000, MIM v1.07 KC8MSY>APRS:$GPGGA,151423,4059.9745,N,08257.0247,W,1,10,0.9,15472.7,M,-33.8,M,,/GPS FIX KC8MSY>APRTLM:T#087,253,000,053,203,208,00000000, MIM v1.07 KC8MSY>APRS:WSU SUNTRACKER 091402 FINDLAY,OH KC8MSY>APRTLM:T#088,253,000,052,203,206,00000000, MIM v1.07 KC8MSY>APRTLM:T#089,253,000,051,204,209,00000000, MIM v1.07 KC8MSY>APRS:$GPGGA,151440,4059.9441,N,08256.7480,W,1,10,1.0,15522.9,M,-33.8,M,,/GPS FIX KC8MSY>APRTLM:T#090,253,000,053,204,207,00000000, MIM v1.07 KC8MSY>APRTLM:T#091,253,000,052,203,211,00000000, MIM v1.07 KC8MSY>APRS:$GPGGA,151450,4059.9179,N,08256.5868,W,1,10,1.0,15548.8,M,-33.8,M,,/GPS FIX KC8MSY>APRTLM:T#092,253,000,052,203,209,00000000, MIM v1.07 KC8MSY>APRTLM:T#093,253,000,051,204,207,00000000, MIM v1.07 KC8MSY>APRTLM:T#094,253,000,050,204,208,00000000, MIM v1.07 KC8MSY>APRS:$GPGGA,151500,4059.8887,N,08256.4268,W,1,10,1.0,15576.3,M,-33.8,M,,/GPS FIX KC8MSY>APRTLM:T#095,253,000,052,204,206,00000000, MIM v1.07 KC8MSY>APRTLM:T#096,253,000,052,204,206,00000000, MIM v1.07 KC8MSY>APRS:$GPGGA,151510,4059.8517,N,08256.2708,W,1,10,1.2,15604.5,M,-33.8,M,,/GPS FIX KC8MSY>APRTLM:T#097,253,000,053,204,210,00000000, MIM v1.07 KC8MSY>APRTLM:T#098,253,000,052,204,206,00000000, MIM v1.07 KC8MSY>APRTLM:T#099,253,000,053,204,209,00000000, MIM v1.07 KC8MSY>APRS:$GPGGA,151520,4059.8157,N,08256.1138,W,1,10,1.1,15629.4,M,-33.8,M,,/GPS FIX KC8MSY>APRTLM:T#100,253,000,051,204,206,00000000, MIM v1.07 KC8MSY>APRTLM:T#101,253,000,053,204,206,00000000, MIM v1.07 KC8MSY>APRS:$GPGGA,151530,4059.7806,N,08255.9640,W,1,10,1.2,15652.9,M,-33.8,M,,/GPS FIX KC8MSY>APRTLM:T#102,253,000,052,204,210,00000000, MIM v1.07 KC8MSY>APRS:WSU SUNTRACKER 091402 FINDLAY,OH KC8MSY>APRTLM:T#103,253,000,052,204,207,00000000, MIM v1.07 KC8MSY>APRTLM:T#104,253,000,051,204,211,00000000, MIM v1.07 KC8MSY>APRS:$GPGGA,151547,4059.7107,N,08255.7002,W,1,09,1.2,15696.6,M,-33.8,M,,/GPS FIX KC8MSY>APRTLM:T#105,253,000,052,204,209,00000000, MIM v1.07 KC8MSY>APRTLM:T#106,253,000,053,204,211,00000000, MIM v1.07 KC8MSY>APRS:$GPGGA,151557,4059.6614,N,08255.5556,W,1,10,0.9,15723.3,M,-33.8,M,,/GPS FIX KC8MSY>APRTLM:T#107,253,000,055,204,210,00000000, MIM v1.07 KC8MSY>APRTLM:T#108,253,000,055,204,210,00000000, MIM v1.07 KC8MSY>APRTLM:T#109,253,000,054,204,207,00000000, MIM v1.07 KC8MSY>APRS:$GPGGA,151607,4059.6123,N,08255.4150,W,1,10,1.0,15749.2,M,-33.8,M,,/GPS FIX KC8MSY>APRTLM:T#110,253,000,055,204,209,00000000, MIM v1.07 KC8MSY>APRTLM:T#111,253,000,055,204,208,00000000, MIM v1.07 KC8MSY>APRS:$GPGGA,151617,4059.5664,N,08255.2814,W,1,10,1.0,15776.5,M,-33.8,M,,/GPS FIX KC8MSY>APRTLM:T#112,253,000,055,204,210,00000000, MIM v1.07 KC8MSY>APRTLM:T#113,253,000,053,204,208,00000000, MIM v1.07 KC8MSY>APRTLM:T#114,253,000,055,204,208,00000000, MIM v1.07 KC8MSY>APRS:$GPGGA,151627,4059.5130,N,08255.1590,W,1,10,1.0,15802.0,M,-33.8,M,,/GPS FIX KC8MSY>APRTLM:T#115,253,000,054,203,209,00000000, MIM v1.07 KC8MSY>APRTLM:T#116,253,000,054,204,206,00000000, MIM v1.07 KC8MSY>APRS:$GPGGA,151637,4059.4615,N,08255.0316,W,1,10,1.1,15831.4,M,-33.8,M,,/GPS FIX KC8MSY>APRTLM:T#117,253,000,054,204,207,00000000, MIM v1.07 KC8MSY>APRS:WSU SUNTRACKER 091402 FINDLAY,OH KC8MSY>APRTLM:T#118,253,000,053,204,206,00000000, MIM v1.07 KC8MSY>APRTLM:T#119,253,000,054,203,208,00000000, MIM v1.07 KC8MSY>APRS:$GPGGA,151654,4059.3885,N,08254.8279,W,1,09,1.2,15880.6,M,-33.8,M,,/GPS FIX KC8MSY>APRTLM:T#120,253,000,054,203,210,00000000, MIM v1.07 KC8MSY>APRTLM:T#121,253,000,055,204,210,00000000, MIM v1.07 KC8MSY>APRS:$GPGGA,151704,4059.3354,N,08254.7099,W,1,10,1.1,15907.0,M,-33.8,M,,/GPS FIX KC8MSY>APRTLM:T#122,253,000,055,204,210,00000000, MIM v1.07 KC8MSY>APRTLM:T#123,253,000,055,204,208,00000000, MIM v1.07 KC8MSY>APRTLM:T#124,253,000,054,204,210,00000000, MIM v1.07 KC8MSY>APRS:$GPGGA,151714,4059.2768,N,08254.5937,W,1,10,0.9,15933.6,M,-33.8,M,,/GPS FIX KC8MSY>APRTLM:T#125,253,000,055,204,207,00000000, MIM v1.07 KC8MSY>APRTLM:T#126,253,000,055,204,207,00000000, MIM v1.07 KC8MSY>APRS:$GPGGA,151724,4059.2268,N,08254.4913,W,1,10,1.2,15962.8,M,-33.8,M,,/GPS FIX KC8MSY>APRTLM:T#127,253,000,055,204,206,00000000, MIM v1.07 KC8MSY>APRTLM:T#128,253,000,054,204,207,00000000, MIM v1.07 KC8MSY>APRTLM:T#129,253,000,053,204,209,00000000, MIM v1.07 KC8MSY>APRS:$GPGGA,151734,4059.1882,N,08254.3856,W,1,10,1.3,15994.2,M,-33.8,M,,/GPS FIX KC8MSY>APRTLM:T#130,253,000,052,204,208,00000000, MIM v1.07 KC8MSY>APRTLM:T#131,253,000,052,204,210,00000000, MIM v1.07 KC8MSY>APRS:$GPGGA,151744,4059.1436,N,08254.2872,W,1,10,1.0,16027.3,M,-33.8,M,,/GPS FIX KC8MSY>APRTLM:T#132,253,000,052,204,207,00000000, MIM v1.07 KC8MSY>APRS:WSU SUNTRACKER 091402 FINDLAY,OH KC8MSY>APRTLM:T#133,253,000,053,204,208,00000000, MIM v1.07 KC8MSY>APRTLM:T#134,253,000,053,204,210,00000000, MIM v1.07 KC8MSY>APRS:$GPGGA,151801,4059.0820,N,08254.1117,W,1,08,1.5,16090.2,M,-33.8,M,,/GPS FIX KC8MSY>APRTLM:T#135,253,000,053,204,206,00000000, MIM v1.07 KC8MSY>APRTLM:T#136,253,000,053,204,207,00000000, MIM v1.07 KC8MSY>APRS:$GPGGA,151811,4059.0531,N,08254.0043,W,1,09,1.4,16117.3,M,-33.8,M,,/GPS FIX KC8MSY>APRTLM:T#137,253,000,053,203,207,00000000, MIM v1.07 KC8MSY>APRTLM:T#138,253,000,053,204,206,00000000, MIM v1.07 KC8MSY>APRTLM:T#139,253,000,053,204,208,00000000, MIM v1.07 KC8MSY>APRS:$GPGGA,151821,4059.0278,N,08253.9000,W,1,09,1.4,16140.7,M,-33.8,M,,/GPS FIX KC8MSY>APRTLM:T#140,253,000,054,203,207,00000000, MIM v1.07 KC8MSY>APRTLM:T#141,253,000,055,204,208,00000000, MIM v1.07 KC8MSY>APRS:$GPGGA,151831,4059.0023,N,08253.7980,W,1,09,1.2,16170.5,M,-33.8,M,,/GPS FIX KC8MSY>APRTLM:T#142,253,000,053,204,210,00000000, MIM v1.07 KC8MSY>APRTLM:T#143,254,000,054,204,210,00000000, MIM v1.07 KC8MSY>APRTLM:T#144,253,000,053,203,206,00000000, MIM v1.07 KC8MSY>APRS:$GPGGA,151841,4058.9758,N,08253.6934,W,1,09,1.2,16199.4,M,-33.8,M,,/GPS FIX KC8MSY>APRTLM:T#145,253,000,054,203,210,00000000, MIM v1.07 KC8MSY>APRTLM:T#146,253,000,054,204,209,00000000, MIM v1.07 KC8MSY>APRS:$GPGGA,151851,4058.9480,N,08253.5841,W,1,09,1.2,16228.4,M,-33.8,M,,/GPS FIX KC8MSY>APRTLM:T#147,253,000,054,204,210,00000000, MIM v1.07 KC8MSY>APRS:WSU SUNTRACKER 091402 FINDLAY,OH KC8MSY>APRTLM:T#148,253,000,056,204,207,00000000, MIM v1.07 KC8MSY>APRTLM:T#149,253,000,056,203,208,00000000, MIM v1.07 KC8MSY>APRS:$GPGGA,151908,4058.9057,N,08253.4062,W,1,09,1.5,16276.9,M,-33.8,M,,/GPS FIX KC8MSY>APRTLM:T#150,253,000,054,204,207,00000000, MIM v1.07 KC8MSY>APRTLM:T#151,253,000,055,204,208,00000000, MIM v1.07 KC8MSY>APRS:$GPGGA,151918,4058.8838,N,08253.3068,W,1,09,1.3,16304.9,M,-33.8,M,,/GPS FIX KC8MSY>APRTLM:T#152,254,000,055,204,207,00000000, MIM v1.07 KC8MSY>APRTLM:T#153,253,000,055,204,208,00000000, MIM v1.07 KC8MSY>APRTLM:T#154,253,000,054,204,210,00000000, MIM v1.07 KC8MSY>APRS:$GPGGA,151928,4058.8657,N,08253.2045,W,1,09,1.6,16335.6,M,-33.8,M,,/GPS FIX KC8MSY>APRTLM:T#155,254,000,057,204,206,00000000, MIM v1.07 KC8MSY>APRTLM:T#156,253,000,056,204,207,00000000, MIM v1.07 KC8MSY>APRS:$GPGGA,151938,4058.8476,N,08253.1026,W,1,09,1.6,16363.9,M,-33.8,M,,/GPS FIX KC8MSY>APRTLM:T#157,253,000,055,204,209,00000000, MIM v1.07 KC8MSY>APRTLM:T#158,254,000,056,204,206,00000000, MIM v1.07 KC8MSY>APRTLM:T#159,253,000,057,204,208,00000000, MIM v1.07 KC8MSY>APRS:$GPGGA,151948,4058.8319,N,08253.0032,W,1,09,1.4,16394.8,M,-33.8,M,,/GPS FIX KC8MSY>APRTLM:T#160,253,000,057,204,210,00000000, MIM v1.07 KC8MSY>APRTLM:T#161,254,000,057,204,208,00000000, MIM v1.07 KC8MSY>APRS:$GPGGA,151958,4058.8174,N,08252.9064,W,1,08,1.4,16423.6,M,-33.8,M,,/GPS FIX KC8MSY>APRTLM:T#162,253,000,057,203,209,00000000, MIM v1.07 KC8MSY>APRS:WSU SUNTRACKER 091402 FINDLAY,OH KC8MSY>APRTLM:T#163,253,000,056,204,209,00000000, MIM v1.07 KC8MSY>APRTLM:T#164,253,000,056,204,206,00000000, MIM v1.07 KC8MSY>APRS:$GPGGA,152015,4058.7875,N,08252.7313,W,1,09,2.1,16471.4,M,-33.8,M,,/GPS FIX KC8MSY>APRTLM:T#165,253,000,056,204,207,00000000, MIM v1.07 KC8MSY>APRTLM:T#166,254,000,056,203,208,00000000, MIM v1.07 KC8MSY>APRS:$GPGGA,152025,4058.7641,N,08252.6339,W,1,09,1.8,16498.7,M,-33.8,M,,/GPS FIX KC8MSY>APRTLM:T#167,253,000,057,204,208,00000000, MIM v1.07 KC8MSY>APRTLM:T#168,253,000,057,204,210,00000000, MIM v1.07 KC8MSY>APRTLM:T#169,253,000,057,204,206,00000000, MIM v1.07 KC8MSY>APRS:$GPGGA,152035,4058.7340,N,08252.5403,W,1,09,2.0,16532.6,M,-33.8,M,,/GPS FIX KC8MSY>APRTLM:T#170,254,000,057,204,206,00000000, MIM v1.07 KC8MSY>APRTLM:T#171,253,000,056,204,211,00000000, MIM v1.07 KC8MSY>APRS:$GPGGA,152045,4058.7060,N,08252.4505,W,1,09,2.1,16563.6,M,-33.8,M,,/GPS FIX KC8MSY>APRTLM:T#172,254,000,056,204,208,00000000, MIM v1.07 KC8MSY>APRTLM:T#173,254,000,057,204,210,00000000, MIM v1.07 KC8MSY>APRTLM:T#174,254,000,057,204,207,00000000, MIM v1.07 KC8MSY>APRS:$GPGGA,152055,4058.6813,N,08252.3560,W,1,09,2.2,16596.9,M,-33.8,M,,/GPS FIX KC8MSY>APRTLM:T#175,253,000,057,204,209,00000000, MIM v1.07 KC8MSY>APRTLM:T#176,254,000,057,204,206,00000000, MIM v1.07 KC8MSY>APRS:$GPGGA,152105,4058.6636,N,08252.2627,W,1,09,1.3,16627.4,M,-33.8,M,,/GPS FIX KC8MSY>APRTLM:T#177,253,000,057,204,210,00000000, MIM v1.07 KC8MSY>APRS:WSU SUNTRACKER 091402 FINDLAY,OH KC8MSY>APRTLM:T#178,254,000,056,204,210,00000000, MIM v1.07 KC8MSY>APRTLM:T#179,254,000,058,204,208,00000000, MIM v1.07 KC8MSY>APRS:$GPGGA,152122,4058.6325,N,08252.0962,W,1,09,1.2,16681.3,M,-33.8,M,,/GPS FIX KC8MSY>APRTLM:T#180,254,000,058,204,206,00000000, MIM v1.07 KC8MSY>APRTLM:T#181,253,000,058,204,208,00000000, MIM v1.07 KC8MSY>APRS:$GPGGA,152132,4058.6112,N,08251.9997,W,1,09,1.7,16714.9,M,-33.8,M,,/GPS FIX KC8MSY>APRTLM:T#182,253,000,058,204,206,00000000, MIM v1.07 KC8MSY>APRTLM:T#183,254,000,056,204,206,00000000, MIM v1.07 KC8MSY>APRTLM:T#184,254,000,059,204,210,00000000, MIM v1.07 KC8MSY>APRS:$GPGGA,152142,4058.5810,N,08251.9093,W,1,09,1.2,16754.1,M,-33.8,M,,/GPS FIX KC8MSY>APRTLM:T#185,254,000,058,204,209,00000000, MIM v1.07 KC8MSY>APRTLM:T#186,253,000,058,204,210,00000000, MIM v1.07 KC8MSY>APRS:$GPGGA,152152,4058.5525,N,08251.8332,W,1,09,1.3,16795.3,M,-33.8,M,,/GPS FIX KC8MSY>APRTLM:T#187,254,000,059,204,209,00000000, MIM v1.07 KC8MSY>APRTLM:T#188,254,000,059,204,210,00000000, MIM v1.07 KC8MSY>APRTLM:T#189,254,000,058,204,210,00000000, MIM v1.07 KC8MSY>APRS:$GPGGA,152202,4058.5206,N,08251.7593,W,1,09,1.5,16829.8,M,-33.8,M,,/GPS FIX KC8MSY>APRTLM:T#190,253,000,059,204,208,00000000, MIM v1.07 KC8MSY>APRTLM:T#191,254,000,059,204,206,00000000, MIM v1.07 KC8MSY>APRS:$GPGGA,152212,4058.4957,N,08251.6777,W,1,09,1.2,16866.9,M,-33.8,M,,/GPS FIX KC8MSY>APRTLM:T#192,254,000,058,204,210,00000000, MIM v1.07 KC8MSY>APRS:WSU SUNTRACKER 091402 FINDLAY,OH KC8MSY>APRTLM:T#193,253,000,060,204,210,00000000, MIM v1.07 KC8MSY>APRTLM:T#194,254,000,059,204,210,00000000, MIM v1.07 KC8MSY>APRS:$GPGGA,152229,4058.4570,N,08251.5277,W,1,09,1.5,16924.5,M,-33.8,M,,/GPS FIX KC8MSY>APRTLM:T#195,253,000,060,204,209,00000000, MIM v1.07 KC8MSY>APRTLM:T#196,254,000,060,203,207,00000000, MIM v1.07 KC8MSY>APRS:$GPGGA,152239,4058.4403,N,08251.4363,W,1,09,1.2,16956.7,M,-33.8,M,,/GPS FIX KC8MSY>APRTLM:T#197,254,000,059,204,209,00000000, MIM v1.07 KC8MSY>APRTLM:T#198,254,000,059,204,206,00000000, MIM v1.07 KC8MSY>APRTLM:T#199,254,000,060,204,207,00000000, MIM v1.07 KC8MSY>APRS:$GPGGA,152249,4058.4179,N,08251.3541,W,1,09,1.7,16987.9,M,-33.8,M,,/GPS FIX KC8MSY>APRTLM:T#200,254,000,061,204,210,00000000, MIM v1.07 KC8MSY>APRTLM:T#201,254,000,060,204,208,00000000, MIM v1.07 KC8MSY>APRS:$GPGGA,152259,4058.3944,N,08251.2745,W,1,09,1.5,17017.9,M,-33.8,M,,/GPS FIX KC8MSY>APRTLM:T#202,253,000,060,204,208,00000000, MIM v1.07 KC8MSY>APRTLM:T#203,253,000,060,204,207,00000000, MIM v1.07 KC8MSY>APRTLM:T#204,254,000,061,204,208,00000000, MIM v1.07 KC8MSY>APRS:$GPGGA,152309,4058.3749,N,08251.1957,W,1,09,1.3,17047.6,M,-33.8,M,,/GPS FIX KC8MSY>APRTLM:T#205,253,000,062,204,206,00000000, MIM v1.07 KC8MSY>APRTLM:T#206,254,000,061,204,211,00000000, MIM v1.07 KC8MSY>APRS:$GPGGA,152319,4058.3557,N,08251.1170,W,1,08,1.2,17073.0,M,-33.8,M,,/GPS FIX KC8MSY>APRTLM:T#207,254,000,061,204,207,00000000, MIM v1.07 KC8MSY>APRS:WSU SUNTRACKER 091402 FINDLAY,OH KC8MSY>APRTLM:T#208,254,000,063,204,208,00000000, MIM v1.07 KC8MSY>APRTLM:T#209,254,000,063,204,208,00000000, MIM v1.07 KC8MSY>APRS:$GPGGA,152335,4058.3275,N,08251.0006,W,1,07,1.2,17116.3,M,-33.8,M,,/GPS FIX KC8MSY>APRTLM:T#210,254,000,064,203,208,00000000, MIM v1.07 KC8MSY>APRTLM:T#211,254,000,063,204,210,00000000, MIM v1.07 KC8MSY>APRS:$GPGGA,152345,4058.3133,N,08250.9372,W,1,09,1.5,17142.9,M,-33.8,M,,/GPS FIX KC8MSY>APRTLM:T#212,254,000,063,204,209,00000000, MIM v1.07 KC8MSY>APRTLM:T#213,254,000,063,204,208,00000000, MIM v1.07 KC8MSY>APRTLM:T#214,254,000,063,203,206,00000000, MIM v1.07 KC8MSY>APRS:$GPGGA,152355,4058.2916,N,08250.8773,W,1,09,1.3,17168.4,M,-33.8,M,,/GPS FIX KC8MSY>APRTLM:T#215,254,000,064,204,208,00000000, MIM v1.07 KC8MSY>APRTLM:T#216,254,000,064,204,209,00000000, MIM v1.07 KC8MSY>APRS:$GPGGA,152405,4058.2681,N,08250.8143,W,1,09,1.5,17197.9,M,-33.8,M,,/GPS FIX KC8MSY>APRTLM:T#217,254,000,065,204,208,00000000, MIM v1.07 KC8MSY>APRTLM:T#218,254,000,065,203,210,00000000, MIM v1.07 KC8MSY>APRTLM:T#219,254,000,063,204,209,00000000, MIM v1.07 KC8MSY>APRS:$GPGGA,152415,4058.2459,N,08250.7463,W,1,09,1.3,17220.4,M,-33.8,M,,/GPS FIX KC8MSY>APRTLM:T#220,254,000,065,204,210,00000000, MIM v1.07 KC8MSY>APRTLM:T#221,254,000,066,204,209,00000000, MIM v1.07 KC8MSY>APRS:$GPGGA,152425,4058.2245,N,08250.6791,W,1,09,1.2,17247.5,M,-33.8,M,,/GPS FIX KC8MSY>APRTLM:T#222,253,000,065,204,206,00000000, MIM v1.07 KC8MSY>APRS:WSU SUNTRACKER 091402 FINDLAY,OH KC8MSY>APRTLM:T#223,254,000,066,203,209,00000000, MIM v1.07 KC8MSY>APRTLM:T#224,254,000,066,204,210,00000000, MIM v1.07 KC8MSY>APRS:$GPGGA,152442,4058.1816,N,08250.5913,W,1,09,1.0,17290.9,M,-33.8,M,,/GPS FIX KC8MSY>APRTLM:T#225,254,000,065,204,210,00000000, MIM v1.07 KC8MSY>APRTLM:T#226,254,000,066,204,207,00000000, MIM v1.07 KC8MSY>APRS:$GPGGA,152452,4058.1581,N,08250.5468,W,1,09,1.2,17328.4,M,-33.8,M,,/GPS FIX KC8MSY>APRTLM:T#227,254,000,064,204,207,00000000, MIM v1.07 KC8MSY>APRTLM:T#228,254,000,065,204,206,00000000, MIM v1.07 KC8MSY>APRTLM:T#229,254,000,065,204,210,00000000, MIM v1.07 KC8MSY>APRS:$GPGGA,152502,4058.1427,N,08250.5194,W,1,09,1.3,17364.1,M,-33.8,M,,/GPS FIX KC8MSY>APRTLM:T#230,254,000,064,203,209,00000000, MIM v1.07 KC8MSY>APRTLM:T#231,254,000,064,203,206,00000000, MIM v1.07 KC8MSY>APRS:$GPGGA,152512,4058.1325,N,08250.4868,W,1,09,1.3,17407.0,M,-33.8,M,,/GPS FIX KC8MSY>APRTLM:T#232,254,000,064,204,207,00000000, MIM v1.07 KC8MSY>APRTLM:T#233,254,000,063,204,208,00000000, MIM v1.07 KC8MSY>APRTLM:T#234,254,000,061,203,209,00000000, MIM v1.07 KC8MSY>APRS:$GPGGA,152522,4058.1262,N,08250.4693,W,1,09,1.4,17438.3,M,-33.8,M,,/GPS FIX KC8MSY>APRTLM:T#235,254,000,062,203,207,00000000, MIM v1.07 KC8MSY>APRTLM:T#236,254,000,063,204,207,00000000, MIM v1.07 KC8MSY>APRS:$GPGGA,152532,4058.1221,N,08250.4558,W,1,09,1.4,17468.4,M,-33.8,M,,/GPS FIX KC8MSY>APRTLM:T#237,254,000,063,204,209,00000000, MIM v1.07 KC8MSY>APRS:WSU SUNTRACKER 091402 FINDLAY,OH KC8MSY>APRTLM:T#238,254,000,063,204,207,00000000, MIM v1.07 KC8MSY>APRTLM:T#239,254,000,063,204,210,00000000, MIM v1.07 KC8MSY>APRS:$GPGGA,152548,4058.1198,N,08250.4281,W,1,09,1.1,17513.5,M,-33.8,M,,/GPS FIX KC8MSY>APRTLM:T#240,254,000,064,204,206,00000000, MIM v1.07 KC8MSY>APRTLM:T#241,254,000,063,203,206,00000000, MIM v1.07 KC8MSY>APRS:$GPGGA,152558,4058.1182,N,08250.4152,W,1,09,1.3,17544.9,M,-33.8,M,,/GPS FIX KC8MSY>APRTLM:T#242,254,000,062,204,209,00000000, MIM v1.07 KC8MSY>APRTLM:T#243,254,000,064,204,207,00000000, MIM v1.07 KC8MSY>APRTLM:T#244,254,000,066,204,210,00000000, MIM v1.07 KC8MSY>APRS:$GPGGA,152608,4058.1152,N,08250.4014,W,1,09,1.0,17573.1,M,-33.8,M,,/GPS FIX KC8MSY>APRTLM:T#245,254,000,065,204,207,00000000, MIM v1.07 KC8MSY>APRTLM:T#246,254,000,065,203,210,00000000, MIM v1.07 KC8MSY>APRS:$GPGGA,152618,4058.1036,N,08250.3847,W,1,09,1.8,17604.5,M,-33.8,M,,/GPS FIX KC8MSY>APRTLM:T#247,254,000,066,204,210,00000000, MIM v1.07 KC8MSY>APRTLM:T#248,254,000,066,204,209,00000000, MIM v1.07 KC8MSY>APRTLM:T#249,254,000,067,204,210,00000000, MIM v1.07 KC8MSY>APRS:$GPGGA,152628,4058.0948,N,08250.3574,W,1,08,1.3,17633.4,M,-33.8,M,,/GPS FIX KC8MSY>APRTLM:T#250,254,000,067,204,207,00000000, MIM v1.07 KC8MSY>APRTLM:T#251,254,000,067,204,208,00000000, MIM v1.07 KC8MSY>APRS:$GPGGA,152638,4058.0818,N,08250.3305,W,1,09,1.2,17664.3,M,-33.8,M,,/GPS FIX KC8MSY>APRTLM:T#252,254,000,067,204,209,00000000, MIM v1.07 KC8MSY>APRS:WSU SUNTRACKER 091402 FINDLAY,OH KC8MSY>APRTLM:T#253,254,000,067,204,210,00000000, MIM v1.07 KC8MSY>APRTLM:T#254,254,000,068,204,208,00000000, MIM v1.07 KC8MSY>APRS:$GPGGA,152655,4058.0589,N,08250.2760,W,1,09,1.4,17724.5,M,-33.8,M,,/GPS FIX KC8MSY>APRTLM:T#255,254,000,067,204,209,00000000, MIM v1.07 KC8MSY>APRTLM:T#000,254,000,068,204,207,00000000, MIM v1.07 KC8MSY>APRS:$GPGGA,152705,4058.0477,N,08250.2386,W,1,09,1.3,17754.4,M,-33.8,M,,/GPS FIX KC8MSY>APRTLM:T#001,254,000,067,204,207,00000000, MIM v1.07 KC8MSY>APRTLM:T#002,254,000,069,204,210,00000000, MIM v1.07 KC8MSY>APRTLM:T#003,254,000,069,204,208,00000000, MIM v1.07 KC8MSY>APRS:$GPGGA,152715,4058.0401,N,08250.2044,W,1,09,1.4,17790.5,M,-33.8,M,,/GPS FIX KC8MSY>APRTLM:T#004,254,000,068,204,210,00000000, MIM v1.07 KC8MSY>APRTLM:T#005,254,000,067,204,210,00000000, MIM v1.07 KC8MSY>APRS:$GPGGA,152725,4058.0433,N,08250.1655,W,1,09,1.2,17818.2,M,-33.8,M,,/GPS FIX KC8MSY>APRTLM:T#006,254,000,066,204,207,00000000, MIM v1.07 KC8MSY>APRTLM:T#007,254,000,066,204,206,00000000, MIM v1.07 KC8MSY>APRTLM:T#008,254,000,067,204,210,00000000, MIM v1.07 KC8MSY>APRS:$GPGGA,152735,4058.0532,N,08250.1215,W,1,09,1.1,17849.4,M,-33.8,M,,/GPS FIX KC8MSY>APRTLM:T#009,254,000,069,204,207,00000000, MIM v1.07 KC8MSY>APRTLM:T#010,254,000,069,204,206,00000000, MIM v1.07 KC8MSY>APRS:$GPGGA,152745,4058.0608,N,08250.0780,W,1,09,1.6,17879.6,M,-33.8,M,,/GPS FIX KC8MSY>APRTLM:T#011,254,000,068,204,208,00000000, MIM v1.07 KC8MSY>APRS:WSU SUNTRACKER 091402 FINDLAY,OH KC8MSY>APRTLM:T#012,254,000,069,204,210,00000000, MIM v1.07 KC8MSY>APRTLM:T#013,254,000,071,204,206,00000000, MIM v1.07 KC8MSY>APRS:$GPGGA,152801,4058.0782,N,08250.0038,W,1,09,1.5,17926.5,M,-33.8,M,,/GPS FIX KC8MSY>APRTLM:T#014,254,000,069,204,209,00000000, MIM v1.07 KC8MSY>APRTLM:T#015,254,000,070,203,207,00000000, MIM v1.07 KC8MSY>APRS:$GPGGA,152811,4058.0874,N,08249.9574,W,1,09,1.4,17962.5,M,-33.8,M,,/GPS FIX KC8MSY>APRTLM:T#016,254,000,069,204,207,00000000, MIM v1.07 KC8MSY>APRTLM:T#017,254,000,070,204,209,00000000, MIM v1.07 KC8MSY>APRTLM:T#018,254,000,069,203,210,00000000, MIM v1.07 KC8MSY>APRS:$GPGGA,152821,4058.1037,N,08249.8973,W,1,09,1.3,17991.3,M,-33.8,M,,/GPS FIX KC8MSY>APRTLM:T#019,254,000,068,203,209,00000000, MIM v1.07 KC8MSY>APRTLM:T#020,254,000,069,204,207,00000000, MIM v1.07 KC8MSY>APRS:$GPGGA,152831,4058.1196,N,08249.8322,W,1,08,1.2,18014.5,M,-33.8,M,,/GPS FIX KC8MSY>APRTLM:T#021,254,000,070,204,208,00000000, MIM v1.07 KC8MSY>APRTLM:T#022,254,000,070,204,207,00000000, MIM v1.07 KC8MSY>APRTLM:T#023,254,000,070,204,208,00000000, MIM v1.07 KC8MSY>APRS:$GPGGA,152841,4058.1293,N,08249.7661,W,1,08,1.5,18040.6,M,-33.8,M,,/GPS FIX KC8MSY>APRTLM:T#024,254,000,070,204,210,00000000, MIM v1.07 KC8MSY>APRTLM:T#025,254,000,068,204,210,00000000, MIM v1.07 KC8MSY>APRS:$GPGGA,152851,4058.1392,N,08249.7089,W,1,09,1.4,18069.9,M,-33.8,M,,/GPS FIX KC8MSY>APRTLM:T#026,254,000,070,204,209,00000000, MIM v1.07 KC8MSY>APRS:WSU SUNTRACKER 091402 FINDLAY,OH KC8MSY>APRTLM:T#027,254,000,071,204,208,00000000, MIM v1.07 KC8MSY>APRTLM:T#028,254,000,071,204,210,00000000, MIM v1.07 KC8MSY>APRS:$GPGGA,152908,4058.1614,N,08249.6107,W,1,08,1.3,18118.5,M,-33.8,M,,/GPS FIX KC8MSY>APRTLM:T#029,254,000,070,204,206,00000000, MIM v1.07 KC8MSY>APRTLM:T#030,254,000,071,204,206,00000000, MIM v1.07 KC8MSY>APRS:$GPGGA,152918,4058.1705,N,08249.5502,W,1,07,1.5,18146.2,M,-33.8,M,,/GPS FIX KC8MSY>APRTLM:T#031,254,000,072,204,206,00000000, MIM v1.07 KC8MSY>APRTLM:T#032,254,000,070,203,210,00000000, MIM v1.07 KC8MSY>APRTLM:T#033,254,000,070,204,209,00000000, MIM v1.07 KC8MSY>APRS:$GPGGA,152928,4058.1799,N,08249.5008,W,1,08,1.2,18175.8,M,-33.8,M,,/GPS FIX KC8MSY>APRTLM:T#034,254,000,071,204,209,00000000, MIM v1.07 KC8MSY>APRTLM:T#035,254,000,072,203,208,00000000, MIM v1.07 KC8MSY>APRS:$GPGGA,152938,4058.1891,N,08249.4440,W,1,09,1.4,18205.9,M,-33.8,M,,/GPS FIX KC8MSY>APRTLM:T#036,254,000,073,204,210,00000000, MIM v1.07 KC8MSY>APRTLM:T#037,254,000,071,204,208,00000000, MIM v1.07 KC8MSY>APRTLM:T#038,254,000,072,203,209,00000000, MIM v1.07 KC8MSY>APRS:$GPGGA,152948,4058.1970,N,08249.3969,W,1,09,2.0,18238.0,M,-33.8,M,,/GPS FIX KC8MSY>APRTLM:T#039,254,000,073,204,209,00000000, MIM v1.07 KC8MSY>APRTLM:T#040,254,000,073,203,209,00000000, MIM v1.07 KC8MSY>APRS:$GPGGA,152958,4058.2033,N,08249.3591,W,1,09,1.2,18280.7,M,-33.8,M,,/GPS FIX KC8MSY>APRTLM:T#041,254,000,072,204,207,00000000, MIM v1.07 KC8MSY>APRS:WSU SUNTRACKER 091402 FINDLAY,OH KC8MSY>APRTLM:T#042,254,000,072,204,210,00000000, MIM v1.07 KC8MSY>APRTLM:T#043,254,000,074,204,208,00000000, MIM v1.07 KC8MSY>APRS:$GPGGA,153014,4058.2194,N,08249.2993,W,1,09,1.2,18327.7,M,-33.8,M,,/GPS FIX KC8MSY>APRTLM:T#044,254,000,072,204,208,00000000, MIM v1.07 KC8MSY>APRTLM:T#045,254,000,074,204,207,00000000, MIM v1.07 KC8MSY>APRS:$GPGGA,153024,4058.2275,N,08249.2677,W,1,08,1.3,18354.8,M,-33.8,M,,/GPS FIX KC8MSY>APRTLM:T#046,254,000,074,204,207,00000000, MIM v1.07 KC8MSY>APRTLM:T#047,254,000,074,204,209,00000000, MIM v1.07 KC8MSY>APRTLM:T#048,254,000,076,204,206,00000000, MIM v1.07 KC8MSY>APRS:$GPGGA,153034,4058.2332,N,08249.2258,W,1,09,1.2,18382.9,M,-33.8,M,,/GPS FIX KC8MSY>APRTLM:T#049,254,000,076,204,209,00000000, MIM v1.07 KC8MSY>APRTLM:T#050,254,000,077,204,206,00000000, MIM v1.07 KC8MSY>APRS:$GPGGA,153044,4058.2380,N,08249.1791,W,1,09,1.4,18417.9,M,-33.8,M,,/GPS FIX KC8MSY>APRTLM:T#051,254,000,076,204,208,00000000, MIM v1.07 KC8MSY>APRTLM:T#052,254,000,076,204,210,00000000, MIM v1.07 KC8MSY>APRTLM:T#053,254,000,076,204,206,00000000, MIM v1.07 KC8MSY>APRS:$GPGGA,153054,4058.2385,N,08249.1325,W,1,09,1.1,18449.4,M,-33.8,M,,/GPS FIX KC8MSY>APRTLM:T#054,254,000,076,203,210,00000000, MIM v1.07 KC8MSY>APRTLM:T#055,254,000,076,204,206,00000000, MIM v1.07 KC8MSY>APRS:$GPGGA,153104,4058.2378,N,08249.0916,W,1,09,1.3,18480.2,M,-33.8,M,,/GPS FIX KC8MSY>APRTLM:T#056,254,000,077,203,206,00000000, MIM v1.07 KC8MSY>APRS:WSU SUNTRACKER 091402 FINDLAY,OH KC8MSY>APRTLM:T#057,254,000,076,204,206,00000000, MIM v1.07 KC8MSY>APRTLM:T#058,254,000,078,204,209,00000000, MIM v1.07 KC8MSY>APRS:$GPGGA,153121,4058.2453,N,08249.0246,W,1,10,1.3,18532.2,M,-33.8,M,,/GPS FIX KC8MSY>APRTLM:T#059,254,000,078,204,210,00000000, MIM v1.07 KC8MSY>APRTLM:T#060,254,000,077,204,210,00000000, MIM v1.07 KC8MSY>APRS:$GPGGA,153131,4058.2479,N,08248.9843,W,1,09,1.1,18563.3,M,-33.8,M,,/GPS FIX KC8MSY>APRTLM:T#061,254,000,078,203,206,00000000, MIM v1.07 KC8MSY>APRTLM:T#062,254,000,076,203,210,00000000, MIM v1.07 KC8MSY>APRTLM:T#063,254,000,077,203,206,00000000, MIM v1.07 KC8MSY>APRS:$GPGGA,153141,4058.2493,N,08248.9498,W,1,09,1.3,18594.7,M,-33.8,M,,/GPS FIX KC8MSY>APRTLM:T#064,254,000,078,204,209,00000000, MIM v1.07 KC8MSY>APRTLM:T#065,254,000,077,204,209,00000000, MIM v1.07 KC8MSY>APRS:$GPGGA,153151,4058.2469,N,08248.9137,W,1,09,1.3,18626.4,M,-33.8,M,,/GPS FIX KC8MSY>APRTLM:T#066,254,000,078,203,207,00000000, MIM v1.07 KC8MSY>APRTLM:T#067,254,000,078,203,209,00000000, MIM v1.07 KC8MSY>APRTLM:T#068,254,000,079,204,210,00000000, MIM v1.07 KC8MSY>APRS:$GPGGA,153201,4058.2466,N,08248.8859,W,1,09,1.4,18659.9,M,-33.8,M,,/GPS FIX KC8MSY>APRTLM:T#069,254,000,078,204,208,00000000, MIM v1.07 KC8MSY>APRTLM:T#070,254,000,078,204,208,00000000, MIM v1.07 KC8MSY>APRS:$GPGGA,153211,4058.2488,N,08248.8677,W,1,08,1.7,18697.2,M,-33.8,M,,/GPS FIX KC8MSY>APRTLM:T#071,254,000,077,204,206,00000000, MIM v1.07 KC8MSY>APRS:WSU SUNTRACKER 091402 FINDLAY,OH KC8MSY>APRTLM:T#072,254,000,079,204,207,00000000, MIM v1.07 KC8MSY>APRTLM:T#073,254,000,080,204,211,00000000, MIM v1.07 KC8MSY>APRS:$GPGGA,153228,4058.2593,N,08248.8370,W,1,10,1.0,18756.0,M,-33.8,M,,/GPS FIX KC8MSY>APRTLM:T#074,254,000,079,204,208,00000000, MIM v1.07 KC8MSY>APRTLM:T#075,254,000,081,204,206,00000000, MIM v1.07 KC8MSY>APRS:$GPGGA,153238,4058.2609,N,08248.8150,W,1,10,0.9,18788.4,M,-33.8,M,,/GPS FIX KC8MSY>APRTLM:T#076,254,000,080,204,206,00000000, MIM v1.07 KC8MSY>APRTLM:T#077,254,000,081,204,208,00000000, MIM v1.07 KC8MSY>APRTLM:T#078,254,000,080,204,207,00000000, MIM v1.07 KC8MSY>APRS:$GPGGA,153248,4058.2632,N,08248.7828,W,1,10,1.0,18821.9,M,-33.8,M,,/GPS FIX KC8MSY>APRTLM:T#079,254,000,080,204,210,00000000, MIM v1.07 KC8MSY>APRTLM:T#080,254,000,080,204,206,00000000, MIM v1.07 KC8MSY>APRS:$GPGGA,153258,4058.2688,N,08248.7421,W,1,10,1.0,18854.3,M,-33.8,M,,/GPS FIX KC8MSY>APRTLM:T#081,254,000,081,204,207,00000000, MIM v1.07 KC8MSY>APRTLM:T#082,254,000,080,204,211,00000000, MIM v1.07 KC8MSY>APRTLM:T#083,254,000,081,204,209,00000000, MIM v1.07 KC8MSY>APRS:$GPGGA,153308,4058.2689,N,08248.7012,W,1,10,1.1,18887.3,M,-33.8,M,,/GPS FIX KC8MSY>APRTLM:T#084,254,000,081,204,207,00000000, MIM v1.07 KC8MSY>APRTLM:T#085,254,000,081,204,206,00000000, MIM v1.07 KC8MSY>APRS:$GPGGA,153318,4058.2590,N,08248.6604,W,1,10,1.1,18919.9,M,-33.8,M,,/GPS FIX KC8MSY>APRTLM:T#086,254,000,083,204,208,00000000, MIM v1.07 KC8MSY>APRS:WSU SUNTRACKER 091402 FINDLAY,OH KC8MSY>APRTLM:T#087,254,000,084,204,207,00000000, MIM v1.07 KC8MSY>APRTLM:T#088,254,000,083,204,211,00000000, MIM v1.07 KC8MSY>APRS:$GPGGA,153335,4058.2475,N,08248.5782,W,1,10,1.1,18972.7,M,-33.8,M,,/GPS FIX KC8MSY>APRTLM:T#089,254,000,082,204,210,00000000, MIM v1.07 KC8MSY>APRTLM:T#090,255,000,083,204,210,00000000, MIM v1.07 KC8MSY>APRS:$GPGGA,153345,4058.2343,N,08248.5302,W,1,10,1.0,19003.7,M,-33.8,M,,/GPS FIX KC8MSY>APRTLM:T#091,254,000,081,203,206,00000000, MIM v1.07 KC8MSY>APRTLM:T#092,254,000,083,204,206,00000000, MIM v1.07 KC8MSY>APRTLM:T#093,254,000,083,204,207,00000000, MIM v1.07 KC8MSY>APRS:$GPGGA,153355,4058.2206,N,08248.4860,W,1,11,1.0,19036.7,M,-33.8,M,,/GPS FIX KC8MSY>APRTLM:T#094,254,000,083,204,209,00000000, MIM v1.07 KC8MSY>APRTLM:T#095,254,000,083,204,210,00000000, MIM v1.07 KC8MSY>APRS:$GPGGA,153405,4058.2162,N,08248.4520,W,1,11,1.0,19063.7,M,-33.8,M,,/GPS FIX KC8MSY>APRTLM:T#096,254,000,084,204,206,00000000, MIM v1.07 KC8MSY>APRTLM:T#097,254,000,084,204,210,00000000, MIM v1.07 KC8MSY>APRTLM:T#098,254,000,085,204,207,00000000, MIM v1.07 KC8MSY>APRS:$GPGGA,153415,4058.2136,N,08248.4206,W,1,11,1.1,19093.4,M,-33.8,M,,/GPS FIX KC8MSY>APRTLM:T#099,254,000,085,204,210,00000000, MIM v1.07 KC8MSY>APRTLM:T#100,254,000,084,204,207,00000000, MIM v1.07 KC8MSY>APRS:$GPGGA,153425,4058.2150,N,08248.3875,W,1,11,1.0,19121.1,M,-33.8,M,,/GPS FIX KC8MSY>APRTLM:T#101,254,000,084,204,209,00000000, MIM v1.07 KC8MSY>APRS:WSU SUNTRACKER 091402 FINDLAY,OH KC8MSY>APRTLM:T#102,255,000,086,204,210,00000000, MIM v1.07 KC8MSY>APRTLM:T#103,254,000,086,204,209,00000000, MIM v1.07 KC8MSY>APRS:$GPGGA,153442,4058.2111,N,08248.3326,W,1,11,1.0,19170.2,M,-33.8,M,,/GPS FIX KC8MSY>APRTLM:T#104,254,000,087,204,210,00000000, MIM v1.07 KC8MSY>APRTLM:T#105,254,000,087,204,210,00000000, MIM v1.07 KC8MSY>APRS:$GPGGA,153452,4058.1961,N,08248.2906,W,1,11,0.9,19201.6,M,-33.8,M,,/GPS FIX KC8MSY>APRTLM:T#106,255,000,086,204,206,00000000, MIM v1.07 KC8MSY>APRTLM:T#107,254,000,087,204,209,00000000, MIM v1.07 KC8MSY>APRTLM:T#108,254,000,086,204,208,00000000, MIM v1.07 KC8MSY>APRS:$GPGGA,153502,4058.1846,N,08248.2471,W,1,11,1.0,19231.3,M,-33.8,M,,/GPS FIX KC8MSY>APRTLM:T#109,254,000,088,204,210,00000000, MIM v1.07 KC8MSY>APRTLM:T#110,254,000,087,203,210,00000000, MIM v1.07 KC8MSY>APRS:$GPGGA,153512,4058.1538,N,08248.2007,W,1,11,1.0,19259.6,M,-33.8,M,,/GPS FIX KC8MSY>APRTLM:T#111,254,000,086,204,207,00000000, MIM v1.07 KC8MSY>APRTLM:T#112,254,000,088,204,206,00000000, MIM v1.07 KC8MSY>APRTLM:T#113,254,000,086,204,207,00000000, MIM v1.07 KC8MSY>APRS:$GPGGA,153522,4058.1238,N,08248.1604,W,1,09,1.2,19286.3,M,-33.8,M,,/GPS FIX KC8MSY>APRTLM:T#114,254,000,086,204,207,00000000, MIM v1.07 KC8MSY>APRTLM:T#115,254,000,087,203,210,00000000, MIM v1.07 KC8MSY>APRS:$GPGGA,153532,4058.0932,N,08248.1213,W,1,11,1.0,19316.5,M,-33.8,M,,/GPS FIX KC8MSY>APRTLM:T#116,254,000,087,204,207,00000000, MIM v1.07 KC8MSY>APRS:WSU SUNTRACKER 091402 FINDLAY,OH KC8MSY>APRTLM:T#117,254,000,087,204,209,00000000, MIM v1.07 KC8MSY>APRTLM:T#118,254,000,086,203,210,00000000, MIM v1.07 KC8MSY>APRS:$GPGGA,153549,4058.0507,N,08248.0624,W,1,11,0.9,19369.4,M,-33.8,M,,/GPS FIX KC8MSY>APRTLM:T#119,254,000,088,204,209,00000000, MIM v1.07 KC8MSY>APRTLM:T#120,254,000,088,203,208,00000000, MIM v1.07 KC8MSY>APRS:$GPGGA,153559,4058.0316,N,08248.0228,W,1,11,1.1,19401.7,M,-33.8,M,,/GPS FIX KC8MSY>APRTLM:T#121,254,000,089,204,210,00000000, MIM v1.07 KC8MSY>APRTLM:T#122,255,000,086,204,210,00000000, MIM v1.07 KC8MSY>APRTLM:T#123,255,000,089,204,210,00000000, MIM v1.07 KC8MSY>APRS:$GPGGA,153609,4057.9979,N,08247.9921,W,1,11,1.2,19431.9,M,-33.8,M,,/GPS FIX KC8MSY>APRTLM:T#124,254,000,089,204,206,00000000, MIM v1.07 KC8MSY>APRTLM:T#125,254,000,090,204,208,00000000, MIM v1.07 KC8MSY>APRS:$GPGGA,153619,4057.9696,N,08247.9644,W,1,11,1.0,19463.9,M,-33.8,M,,/GPS FIX KC8MSY>APRTLM:T#126,254,000,090,204,206,00000000, MIM v1.07 KC8MSY>APRTLM:T#127,255,000,090,204,208,00000000, MIM v1.07 KC8MSY>APRTLM:T#128,254,000,091,204,208,00000000, MIM v1.07 KC8MSY>APRS:$GPGGA,153629,4057.9319,N,08247.9366,W,1,11,1.0,19493.2,M,-33.8,M,,/GPS FIX KC8MSY>APRTLM:T#129,254,000,089,204,207,00000000, MIM v1.07 KC8MSY>APRTLM:T#130,255,000,090,204,208,00000000, MIM v1.07 KC8MSY>APRS:$GPGGA,153639,4057.8903,N,08247.9190,W,1,11,1.0,19526.5,M,-33.8,M,,/GPS FIX KC8MSY>APRTLM:T#131,254,000,089,204,209,00000000, MIM v1.07 KC8MSY>APRS:WSU SUNTRACKER 091402 FINDLAY,OH KC8MSY>APRTLM:T#132,254,000,091,204,208,00000000, MIM v1.07 KC8MSY>APRTLM:T#133,254,000,091,204,210,00000000, MIM v1.07 KC8MSY>APRS:$GPGGA,153656,4057.8383,N,08247.8914,W,1,11,1.1,19578.4,M,-33.8,M,,/GPS FIX KC8MSY>APRTLM:T#134,255,000,092,204,209,00000000, MIM v1.07 KC8MSY>APRTLM:T#135,254,000,092,204,208,00000000, MIM v1.07 KC8MSY>APRS:$GPGGA,153706,4057.8194,N,08247.8804,W,1,11,0.9,19606.5,M,-33.8,M,,/GPS FIX KC8MSY>APRTLM:T#136,254,000,092,204,207,00000000, MIM v1.07 KC8MSY>APRTLM:T#137,254,000,092,204,209,00000000, MIM v1.07 KC8MSY>APRTLM:T#138,254,000,092,203,208,00000000, MIM v1.07 KC8MSY>APRS:$GPGGA,153726,4057.7755,N,08247.8412,W,1,11,1.1,19665.4,M,-33.8,M,,/GPS FIX KC8MSY>APRTLM:T#141,254,000,093,204,208,00000000, MIM v1.07 KC8MSY>APRTLM:T#142,254,000,093,204,208,00000000, MIM v1.07 KC8MSY>APRTLM:T#143,254,000,094,204,210,00000000, MIM v1.07 KC8MSY>APRS:$GPGGA,153736,4057.7504,N,08247.8316,W,1,11,1.1,19693.5,M,-33.8,M,,/GPS FIX KC8MSY>APRTLM:T#144,254,000,094,203,207,00000000, MIM v1.07 KC8MSY>APRTLM:T#145,254,000,096,204,207,00000000, MIM v1.07 KC8MSY>APRS:$GPGGA,153746,4057.7218,N,08247.8215,W,1,11,1.0,19723.3,M,-33.8,M,,/GPS FIX KC8MSY>APRTLM:T#146,254,000,094,204,208,00000000, MIM v1.07 KC8MSY>APRS:WSU SUNTRACKER 091402 FINDLAY,OH KC8MSY>APRTLM:T#147,254,000,096,204,206,00000000, MIM v1.07 KC8MSY>APRTLM:T#148,255,000,096,204,206,00000000, MIM v1.07 KC8MSY>APRS:$GPGGA,153803,4057.6675,N,08247.8276,W,1,11,1.3,19772.3,M,-33.8,M,,/GPS FIX KC8MSY>APRTLM:T#149,254,000,096,204,210,00000000, MIM v1.07 KC8MSY>APRTLM:T#150,254,000,096,204,207,00000000, MIM v1.07 KC8MSY>APRS:$GPGGA,153813,4057.6337,N,08247.8284,W,1,10,1.3,19802.3,M,-33.8,M,,/GPS FIX KC8MSY>APRTLM:T#151,254,000,096,204,208,00000000, MIM v1.07 KC8MSY>APRTLM:T#152,254,000,096,204,209,00000000, MIM v1.07 KC8MSY>APRTLM:T#153,254,000,096,203,208,00000000, MIM v1.07 KC8MSY>APRS:$GPGGA,153823,4057.6087,N,08247.8365,W,1,10,1.3,19833.0,M,-33.8,M,,/GPS FIX KC8MSY>APRTLM:T#154,254,000,096,204,209,00000000, MIM v1.07 KC8MSY>APRTLM:T#155,254,000,096,204,208,00000000, MIM v1.07 KC8MSY>APRS:$GPGGA,153833,4057.5860,N,08247.8450,W,1,10,1.1,19861.5,M,-33.8,M,,/GPS FIX KC8MSY>APRTLM:T#156,254,000,097,204,209,00000000, MIM v1.07 KC8MSY>APRTLM:T#157,254,000,096,204,206,00000000, MIM v1.07 KC8MSY>APRTLM:T#158,254,000,096,204,209,00000000, MIM v1.07 KC8MSY>APRS:$GPGGA,153843,4057.5735,N,08247.8512,W,1,11,1.1,19890.3,M,-33.8,M,,/GPS FIX KC8MSY>APRTLM:T#159,254,000,096,204,209,00000000, MIM v1.07 KC8MSY>APRTLM:T#160,254,000,096,204,207,00000000, MIM v1.07 KC8MSY>APRS:$GPGGA,153853,4057.5607,N,08247.8522,W,1,11,1.1,19919.6,M,-33.8,M,,/GPS FIX KC8MSY>APRTLM:T#161,254,000,096,204,208,00000000, MIM v1.07 KC8MSY>APRS:WSU SUNTRACKER 091402 FINDLAY,OH KC8MSY>APRTLM:T#162,254,000,098,204,207,00000000, MIM v1.07 KC8MSY>APRTLM:T#163,254,000,098,204,207,00000000, MIM v1.07 KC8MSY>APRS:$GPGGA,153910,4057.5553,N,08247.8601,W,1,11,1.2,19969.5,M,-33.8,M,,/GPS FIX KC8MSY>APRTLM:T#164,254,000,098,204,210,00000000, MIM v1.07 KC8MSY>APRTLM:T#165,255,000,098,204,209,00000000, MIM v1.07 KC8MSY>APRS:$GPGGA,153920,4057.5530,N,08247.8675,W,1,10,1.4,20001.6,M,-33.8,M,,/GPS FIX KC8MSY>APRTLM:T#166,254,000,099,204,209,00000000, MIM v1.07 KC8MSY>APRTLM:T#167,254,000,099,204,208,00000000, MIM v1.07 KC8MSY>APRTLM:T#168,254,000,099,204,206,00000000, MIM v1.07 KC8MSY>APRS:$GPGGA,153930,4057.5505,N,08247.8840,W,1,11,1.5,20031.4,M,-33.8,M,,/GPS FIX KC8MSY>APRTLM:T#169,254,000,097,204,210,00000000, MIM v1.07 KC8MSY>APRTLM:T#170,254,000,098,203,208,00000000, MIM v1.07 KC8MSY>APRS:$GPGGA,153940,4057.5461,N,08247.9047,W,1,11,1.0,20062.5,M,-33.8,M,,/GPS FIX KC8MSY>APRTLM:T#171,254,000,098,204,210,00000000, MIM v1.07 KC8MSY>APRTLM:T#172,254,000,098,204,210,00000000, MIM v1.07 KC8MSY>APRTLM:T#173,254,000,099,204,212,00000000, MIM v1.07 KC8MSY>APRS:$GPGGA,153950,4057.5486,N,08247.9253,W,1,11,0.9,20091.4,M,-33.8,M,,/GPS FIX KC8MSY>APRTLM:T#174,255,000,099,204,210,00000000, MIM v1.07 KC8MSY>APRTLM:T#175,254,000,099,204,213,00000000, MIM v1.07 KC8MSY>APRS:$GPGGA,154000,4057.5569,N,08247.9541,W,1,11,0.9,20125.5,M,-33.8,M,,/GPS FIX KC8MSY>APRTLM:T#176,254,000,098,204,212,00000000, MIM v1.07 KC8MSY>APRS:WSU SUNTRACKER 091402 FINDLAY,OH KC8MSY>APRTLM:T#177,254,000,099,204,211,00000000, MIM v1.07 KC8MSY>APRTLM:T#178,254,000,100,204,212,00000000, MIM v1.07 KC8MSY>APRS:$GPGGA,154016,4057.5672,N,08248.0003,W,1,11,1.2,20173.5,M,-33.8,M,,/GPS FIX KC8MSY>APRTLM:T#179,254,000,101,204,209,00000000, MIM v1.07 KC8MSY>APRTLM:T#180,254,000,101,204,212,00000000, MIM v1.07 KC8MSY>APRS:$GPGGA,154026,4057.5688,N,08248.0307,W,1,11,1.1,20202.9,M,-33.8,M,,/GPS FIX KC8MSY>APRTLM:T#181,254,000,103,204,212,00000000, MIM v1.07 KC8MSY>APRTLM:T#182,254,000,102,204,210,00000000, MIM v1.07 KC8MSY>APRTLM:T#183,254,000,102,204,209,00000000, MIM v1.07 KC8MSY>APRS:$GPGGA,154036,4057.5686,N,08248.0548,W,1,11,1.0,20234.7,M,-33.8,M,,/GPS FIX KC8MSY>APRTLM:T#184,254,000,103,204,211,00000000, MIM v1.07 KC8MSY>APRTLM:T#185,254,000,104,204,213,00000000, MIM v1.07 KC8MSY>APRS:$GPGGA,154046,4057.5693,N,08248.0801,W,1,11,1.4,20263.0,M,-33.8,M,,/GPS FIX KC8MSY>APRTLM:T#186,254,000,104,204,210,00000000, MIM v1.07 KC8MSY>APRTLM:T#187,254,000,105,204,209,00000000, MIM v1.07 KC8MSY>APRTLM:T#188,254,000,105,204,213,00000000, MIM v1.07 KC8MSY>APRS:$GPGGA,154056,4057.5701,N,08248.1026,W,1,11,1.5,20292.7,M,-33.8,M,,/GPS FIX KC8MSY>APRTLM:T#189,254,000,106,204,209,00000000, MIM v1.07 KC8MSY>APRTLM:T#190,255,000,105,203,213,00000000, MIM v1.07 KC8MSY>APRS:$GPGGA,154106,4057.5707,N,08248.1223,W,1,10,1.1,20322.1,M,-33.8,M,,/GPS FIX KC8MSY>APRTLM:T#191,254,000,108,204,209,00000000, MIM v1.07 KC8MSY>APRS:WSU SUNTRACKER 091402 FINDLAY,OH KC8MSY>APRTLM:T#192,254,000,108,204,211,00000000, MIM v1.07 KC8MSY>APRTLM:T#193,254,000,107,203,210,00000000, MIM v1.07 KC8MSY>APRS:$GPGGA,154122,4057.5787,N,08248.1534,W,1,11,1.2,20372.5,M,-33.8,M,,/GPS FIX KC8MSY>APRTLM:T#194,254,000,107,204,214,00000000, MIM v1.07 KC8MSY>APRTLM:T#195,254,000,107,204,209,00000000, MIM v1.07 KC8MSY>APRS:$GPGGA,154132,4057.5956,N,08248.1738,W,1,11,1.5,20403.4,M,-33.8,M,,/GPS FIX KC8MSY>APRTLM:T#196,254,000,108,204,212,00000000, MIM v1.07 KC8MSY>APRTLM:T#197,255,000,107,204,212,00000000, MIM v1.07 KC8MSY>APRTLM:T#198,254,000,109,204,212,00000000, MIM v1.07 KC8MSY>APRS:$GPGGA,154142,4057.6156,N,08248.1872,W,1,11,1.0,20439.6,M,-33.8,M,,/GPS FIX KC8MSY>APRTLM:T#199,254,000,109,204,213,00000000, MIM v1.07 KC8MSY>APRTLM:T#200,254,000,110,203,213,00000000, MIM v1.07 KC8MSY>APRS:$GPGGA,154152,4057.6479,N,08248.1963,W,1,11,1.4,20473.3,M,-33.8,M,,/GPS FIX KC8MSY>APRTLM:T#201,254,000,110,204,211,00000000, MIM v1.07 KC8MSY>APRTLM:T#202,254,000,110,203,213,00000000, MIM v1.07 KC8MSY>APRTLM:T#203,254,000,109,204,211,00000000, MIM v1.07 KC8MSY>APRS:$GPGGA,154202,4057.6770,N,08248.2040,W,1,11,1.5,20507.2,M,-33.8,M,,/GPS FIX KC8MSY>APRTLM:T#204,254,000,109,204,212,00000000, MIM v1.07 KC8MSY>APRTLM:T#205,254,084,109,204,212,00000000, MIM v1.07 KC8MSY>APRS:$GPGGA,154212,4057.7245,N,08248.2137,W,1,10,1.5,20545.1,M,-33.8,M,,/GPS FIX KC8MSY>APRTLM:T#206,254,000,110,204,211,00000000, MIM v1.07 KC8MSY>APRS:WSU SUNTRACKER 091402 FINDLAY,OH KC8MSY>APRTLM:T#207,255,086,110,204,212,00000000, MIM v1.07 KC8MSY>APRTLM:T#208,254,000,112,204,211,00000000, MIM v1.07 KC8MSY>APRS:$GPGGA,154229,4057.7975,N,08248.2240,W,1,11,1.1,20603.1,M,-33.8,M,,/GPS FIX KC8MSY>APRTLM:T#209,254,000,108,204,210,00000000, MIM v1.07 KC8MSY>APRTLM:T#210,255,072,108,205,214,00000000, MIM v1.07 KC8MSY>APRS:$GPGGA,154239,4057.8401,N,08248.2225,W,1,11,1.1,20635.3,M,-33.8,M,,/GPS FIX KC8MSY>APRTLM:T#211,254,000,112,204,212,00000000, MIM v1.07 KC8MSY>APRTLM:T#212,255,199,114,205,214,00000000, MIM v1.07 KC8MSY>APRTLM:T#213,255,157,117,205,212,00000000, MIM v1.07 KC8MSY>APRS:$GPGGA,154249,4057.8819,N,08248.2149,W,1,10,1.2,20669.6,M,-33.8,M,,/GPS FIX KC8MSY>APRTLM:T#214,254,000,118,204,212,00000000, MIM v1.07 KC8MSY>APRTLM:T#215,254,000,116,204,213,00000000, MIM v1.07 KC8MSY>APRS:$GPGGA,154259,4057.9259,N,08248.2089,W,1,11,1.2,20702.4,M,-33.8,M,,/GPS FIX KC8MSY>APRTLM:T#216,254,011,116,204,212,00000000, MIM v1.07 KC8MSY>APRTLM:T#217,254,000,117,204,211,00000000, MIM v1.07 KC8MSY>APRTLM:T#218,254,000,117,204,211,00000000, MIM v1.07 KC8MSY>APRS:$GPGGA,154309,4057.9703,N,08248.2005,W,1,11,1.2,20732.5,M,-33.8,M,,/GPS FIX KC8MSY>APRTLM:T#219,254,135,117,205,214,00000000, MIM v1.07 KC8MSY>APRTLM:T#220,254,000,119,204,211,00000000, MIM v1.07 KC8MSY>APRS:$GPGGA,154319,4058.0143,N,08248.1860,W,1,11,1.3,20763.2,M,-33.8,M,,/GPS FIX KC8MSY>APRTLM:T#221,254,000,118,204,212,00000000, MIM v1.07 KC8MSY>APRS:WSU SUNTRACKER 091402 FINDLAY,OH KC8MSY>APRTLM:T#222,254,079,118,205,214,00000000, MIM v1.07 KC8MSY>APRTLM:T#223,254,000,119,204,210,00000000, MIM v1.07 KC8MSY>APRS:$GPGGA,154335,4058.0747,N,08248.1604,W,1,11,1.0,20816.4,M,-33.8,M,,/GPS FIX KC8MSY>APRTLM:T#224,254,000,119,204,210,00000000, MIM v1.07 KC8MSY>APRTLM:T#225,254,000,116,204,211,00000000, MIM v1.07 KC8MSY>APRS:$GPGGA,154345,4058.1039,N,08248.1356,W,1,11,1.3,20847.3,M,-33.8,M,,/GPS FIX KC8MSY>APRTLM:T#226,254,000,117,204,209,00000000, MIM v1.07 KC8MSY>APRTLM:T#227,254,000,113,204,211,00000000, MIM v1.07 KC8MSY>APRTLM:T#228,254,000,117,204,213,00000000, MIM v1.07 KC8MSY>APRS:$GPGGA,154355,4058.1331,N,08248.1071,W,1,11,1.3,20878.1,M,-33.8,M,,/GPS FIX KC8MSY>APRTLM:T#229,254,000,117,204,212,00000000, MIM v1.07 KC8MSY>APRTLM:T#230,254,186,119,205,213,00000000, MIM v1.07 KC8MSY>APRS:$GPGGA,154405,4058.1576,N,08248.0763,W,1,08,1.3,20908.3,M,-33.8,M,,/GPS FIX KC8MSY>APRTLM:T#231,254,000,119,204,212,00000000, MIM v1.07 KC8MSY>APRTLM:T#232,254,000,120,204,211,00000000, MIM v1.07 KC8MSY>APRTLM:T#233,254,000,121,203,210,00000000, MIM v1.07 KC8MSY>APRS:$GPGGA,154415,4058.1726,N,08248.0488,W,1,11,1.5,20938.5,M,-33.8,M,,/GPS FIX KC8MSY>APRTLM:T#234,254,000,120,204,213,00000000, MIM v1.07 KC8MSY>APRTLM:T#235,254,000,119,204,212,00000000, MIM v1.07 KC8MSY>APRS:$GPGGA,154425,4058.1810,N,08248.0283,W,1,11,1.5,20973.8,M,-33.8,M,,/GPS FIX KC8MSY>APRTLM:T#236,254,000,119,204,211,00000000, MIM v1.07 KC8MSY>APRS:WSU SUNTRACKER 091402 FINDLAY,OH KC8MSY>APRTLM:T#237,254,000,119,204,209,00000000, MIM v1.07 KC8MSY>APRTLM:T#238,254,000,119,204,212,00000000, MIM v1.07 KC8MSY>APRS:$GPGGA,154442,4058.1886,N,08247.9900,W,1,09,1.4,21028.6,M,-33.8,M,,/GPS FIX KC8MSY>APRTLM:T#239,254,090,120,204,213,00000000, MIM v1.07 KC8MSY>APRTLM:T#240,254,020,121,204,214,00000000, MIM v1.07 KC8MSY>APRS:$GPGGA,154452,4058.1853,N,08247.9678,W,1,11,1.3,21062.5,M,-33.8,M,,/GPS FIX KC8MSY>APRTLM:T#241,254,000,121,204,212,00000000, MIM v1.07 KC8MSY>APRTLM:T#242,254,000,122,204,210,00000000, MIM v1.07 KC8MSY>APRTLM:T#243,254,000,122,204,210,00000000, MIM v1.07 KC8MSY>APRS:$GPGGA,154502,4058.1819,N,08247.9443,W,1,09,1.4,21096.4,M,-33.8,M,,/GPS FIX KC8MSY>APRTLM:T#244,254,000,122,204,210,00000000, MIM v1.07 KC8MSY>APRTLM:T#245,254,008,125,204,213,00000000, MIM v1.07 KC8MSY>APRS:$GPGGA,154512,4058.1712,N,08247.9243,W,1,10,1.3,21130.7,M,-33.8,M,,/GPS FIX KC8MSY>APRTLM:T#246,254,067,124,205,214,00000000, MIM v1.07 KC8MSY>APRTLM:T#247,254,088,126,205,215,00000000, MIM v1.07 KC8MSY>APRTLM:T#248,254,137,126,204,215,00000000, MIM v1.07 KC8MSY>APRS:$GPGGA,154522,4058.1522,N,08247.8991,W,1,08,1.3,21165.4,M,-33.8,M,,/GPS FIX KC8MSY>APRTLM:T#249,254,158,128,204,212,00000000, MIM v1.07 KC8MSY>APRTLM:T#250,254,083,128,205,215,00000000, MIM v1.07 KC8MSY>APRS:$GPGGA,154532,4058.1403,N,08247.8834,W,1,10,0.9,21204.9,M,-33.8,M,,/GPS FIX KC8MSY>APRTLM:T#251,254,094,125,205,213,00000000, MIM v1.07 KC8MSY>APRS:WSU SUNTRACKER 091402 FINDLAY,OH KC8MSY>APRTLM:T#252,254,000,129,204,210,00000000, MIM v1.07 KC8MSY>APRTLM:T#253,254,000,129,204,212,00000000, MIM v1.07 KC8MSY>APRS:$GPGGA,154548,4058.1281,N,08247.8571,W,1,11,1.2,21269.4,M,-33.8,M,,/GPS FIX KC8MSY>APRTLM:T#254,254,000,128,204,212,00000000, MIM v1.07 KC8MSY>APRTLM:T#255,254,000,127,204,213,00000000, MIM v1.07 KC8MSY>APRS:$GPGGA,154558,4058.1317,N,08247.8493,W,1,11,1.6,21303.9,M,-33.8,M,,/GPS FIX KC8MSY>APRTLM:T#000,254,039,127,205,211,00000000, MIM v1.07 KC8MSY>APRTLM:T#001,254,000,127,204,212,00000000, MIM v1.07 KC8MSY>APRTLM:T#002,254,004,128,204,213,00000000, MIM v1.07 KC8MSY>APRS:$GPGGA,154608,4058.1357,N,08247.8496,W,1,10,1.6,21333.9,M,-33.8,M,,/GPS FIX KC8MSY>APRTLM:T#003,254,000,126,204,212,00000000, MIM v1.07 KC8MSY>APRTLM:T#004,254,000,126,204,211,00000000, MIM v1.07 KC8MSY>APRS:$GPGGA,154618,4058.1419,N,08247.8554,W,1,11,1.2,21369.3,M,-33.8,M,,/GPS FIX KC8MSY>APRTLM:T#005,254,000,125,204,212,00000000, MIM v1.07 KC8MSY>APRTLM:T#006,254,000,124,204,211,00000000, MIM v1.07 KC8MSY>APRTLM:T#007,254,000,126,204,212,00000000, MIM v1.07 KC8MSY>APRS:$GPGGA,154628,4058.1542,N,08247.8602,W,1,11,1.4,21403.6,M,-33.8,M,,/GPS FIX KC8MSY>APRTLM:T#008,254,000,123,204,211,00000000, MIM v1.07 KC8MSY>APRTLM:T#009,254,000,122,204,213,00000000, MIM v1.07 KC8MSY>APRS:$GPGGA,154638,4058.1551,N,08247.8576,W,1,11,1.2,21439.2,M,-33.8,M,,/GPS FIX KC8MSY>APRTLM:T#010,254,000,122,204,209,00000000, MIM v1.07 KC8MSY>APRS:WSU SUNTRACKER 091402 FINDLAY,OH KC8MSY>APRTLM:T#011,254,000,122,204,211,00000000, MIM v1.07 KC8MSY>APRTLM:T#012,254,000,120,205,214,00000000, MIM v1.07 KC8MSY>APRS:$GPRMC,154655,A,4058.1622,N,08247.8443,W,002.8,061.7,140902,006.9,W/GPS FIX KC8MSY>APRTLM:T#013,254,001,124,204,212,00000000, MIM v1.07 KC8MSY>APRTLM:T#014,254,000,123,204,210,00000000, MIM v1.07 KC8MSY>APRS:$GPRMC,154705,A,4058.1639,N,08247.8297,W,004.0,095.1,140902,006.9,W/GPS FIX KC8MSY>APRTLM:T#015,254,000,122,204,211,00000000, MIM v1.07 KC8MSY>APRTLM:T#016,254,000,122,204,212,00000000, MIM v1.07 KC8MSY>APRTLM:T#017,254,000,122,204,209,00000000, MIM v1.07 KC8MSY>APRS:$GPGGA,154714,4058.1638,N,08247.8163,W,1,11,1.0,21557.4,M,-33.8,M,,/GPS FIX KC8MSY>APRTLM:T#018,254,000,122,204,212,00000000, MIM v1.07 KC8MSY>APRTLM:T#019,254,004,122,204,214,00000000, MIM v1.07 KC8MSY>APRS:$GPGGA,154724,4058.1525,N,08247.8088,W,1,11,1.4,21591.8,M,-33.8,M,,/GPS FIX KC8MSY>APRTLM:T#020,254,000,119,204,210,00000000, MIM v1.07 KC8MSY>APRTLM:T#021,254,000,121,204,210,00000000, MIM v1.07 KC8MSY>APRTLM:T#022,254,000,121,204,211,00000000, MIM v1.07 KC8MSY>APRS:$GPGGA,154734,4058.1393,N,08247.8142,W,1,11,1.6,21620.8,M,-33.8,M,,/GPS FIX KC8MSY>APRTLM:T#023,254,000,121,204,209,00000000, MIM v1.07 KC8MSY>APRTLM:T#024,254,000,120,204,211,00000000, MIM v1.07 KC8MSY>APRS:$GPGGA,154744,4058.1278,N,08247.8302,W,1,10,1.5,21653.5,M,-33.8,M,,/GPS FIX KC8MSY>APRTLM:T#025,254,088,118,KC8MSY>APRS:WSU SUNTRACKER 091402 FINDLAY,OH KC8MSY>APRTLM:T#026,254,020,122,204,215,00000000, MIM v1.07 KC8MSY>APRTLM:T#027,254,032,121,205,212,00000000, MIM v1.07 KC8MSY>APRS:$GPGGA,154800,4058.1138,N,08247.8531,W,1,11,1.2,21703.8,M,-33.8,M,,/GPS FIX KC8MSY>APRTLM:T#028,254,059,122,205,214,00000000, MIM v1.07 KC8MSY>APRTLM:T#029,254,000,124,204,211,00000000, MIM v1.07 KC8MSY>APRS:$GPGGA,154810,4058.1114,N,08247.8687,W,1,11,1.2,21732.1,M,-33.8,M,,/GPS FIX KC8MSY>APRTLM:T#030,254,000,120,204,212,00000000, MIM v1.07 KC8MSY>APRTLM:T#031,254,000,122,204,213,00000000, MIM v1.07 KC8MSY>APRTLM:T#032,254,000,122,204,213,00000000, MIM v1.07 KC8MSY>APRS:$GPRMC,154821,A,4058.1139,N,08247.8782,W,002.3,314.3,140902,006.9,W/GPS FIX KC8MSY>APRTLM:T#033,254,000,122,204,207,00000000, MIM v1.07 KC8MSY>APRTLM:T#034,254,000,124,204,213,00000000, MIM v1.07 KC8MSY>APRS:$GPGGA,154830,4058.1244,N,08247.8897,W,1,11,1.3,21797.6,M,-33.8,M,,/GPS FIX KC8MSY>APRTLM:T#035,254,000,121,204,211,00000000, MIM v1.07 KC8MSY>APRTLM:T#036,254,000,121,204,209,00000000, MIM v1.07 KC8MSY>APRTLM:T#037,254,000,123,204,210,00000000, MIM v1.07 KC8MSY>APRS:$GPGGA,154840,4058.1376,N,08247.8886,W,1,11,1.5,21828.6,M,-33.8,M,,/GPS FIX KC8MSY>APRTLM:T#038,254,000,123,204,210,00000000, MIM v1.07 KC8MSY>APRTLM:T#039,254,000,123,204,210,00000000, MIM v1.07 KC8MSY>APRS:$GPGGA,154850,4058.1588,N,08247.8908,W,1,11,1.5,21856.2,M,-33.8,M,,/GPS FIX KC8MSY>APRTLM:T#040,254,000,123,204,211,00000000, MIM v1.07 KC8MSY>APRS:WSU SUNTRACKER 091402 FINDLAY,OH KC8MSY>APRTLM:T#041,254,084,125,204,215,00000000, MIM v1.07 KC8MSY>APRTLM:T#042,254,000,128,204,213,00000000, MIM v1.07 KC8MSY>APRS:$GPGGA,154906,4058.1767,N,08247.8844,W,1,10,1.3,21903.9,M,-33.8,M,,/GPS FIX KC8MSY>APRTLM:T#043,254,001,127,204,213,00000000, MIM v1.07 KC8MSY>APRTLM:T#044,254,000,125,204,211,00000000, MIM v1.07 KC8MSY>APRS:$GPGGA,154916,4058.1837,N,08247.8813,W,1,10,1.2,21933.8,M,-33.8,M,,/GPS FIX KC8MSY>APRTLM:T#045,253,000,127,204,213,00000000, MIM v1.07 KC8MSY>APRTLM:T#046,254,000,128,204,209,00000000, MIM v1.07 KC8MSY>APRTLM:T#047,254,158,129,205,212,00000000, MIM v1.07 KC8MSY>APRS:$GPGGA,154926,4058.1823,N,08247.8719,W,1,10,1.0,21962.0,M,-33.8,M,,/GPS FIX KC8MSY>APRTLM:T#048,254,080,129,205,214,00000000, MIM v1.07 KC8MSY>APRTLM:T#049,254,128,130,205,215,00000000, MIM v1.07 KC8MSY>APRS:$GPGGA,154936,4058.1928,N,08247.8595,W,1,10,1.1,21993.4,M,-33.8,M,,/GPS FIX KC8MSY>APRTLM:T#050,254,000,130,204,209,00000000, MIM v1.07 KC8MSY>APRTLM:T#051,254,000,131,204,210,00000000, MIM v1.07 KC8MSY>APRTLM:T#052,253,000,125,204,213,00000000, MIM v1.07 KC8MSY>APRS:$GPGGA,154946,4058.2022,N,08247.8556,W,1,10,1.4,22024.2,M,-33.8,M,,/GPS FIX KC8MSY>APRTLM:T#053,254,000,129,204,213,00000000, MIM v1.07 KC8MSY>APRTLM:T#054,253,000,129,204,210,00000000, MIM v1.07 KC8MSY>APRS:$GPGGA,154956,4058.2202,N,08247.8414,W,1,10,1.4,22053.5,M,-33.8,M,,/GPS FIX KC8MSY>APRTLM:T#055,254,000,129,204,209,00000000, MIM v1.07 KC8MSY>APRS:WSU SUNTRACKER 091402 FINDLAY,OH KC8MSY>APRTLM:T#056,254,073,127,205,215,00000000, MIM v1.07 KC8MSY>APRTLM:T#057,254,059,131,205,215,00000000, MIM v1.07 KC8MSY>APRS:$GPRMC,155013,A,4058.2469,N,08247.8236,W,005.4,031.4,140902,006.9,W/GPS FIX KC8MSY>APRTLM:T#058,254,000,133,204,210,00000000, MIM v1.07 KC8MSY>APRTLM:T#059,254,000,133,204,211,00000000, MIM v1.07 KC8MSY>APRS:$GPRMC,155023,A,4058.2634,N,08247.8186,W,006.3,013.4,140902,006.9,W/GPS FIX KC8MSY>APRTLM:T#060,254,000,130,204,211,00000000, MIM v1.07 KC8MSY>APRTLM:T#061,254,084,132,205,212,00000000, MIM v1.07 KC8MSY>APRTLM:T#062,254,136,132,205,215,00000000, MIM v1.07 KC8MSY>APRS:$GPGGA,155032,4058.2742,N,08247.8138,W,1,10,1.4,22162.4,M,-33.8,M,,/GPS FIX KC8MSY>APRTLM:T#063,254,191,135,204,215,00000000, MIM v1.07 KC8MSY>APRTLM:T#064,254,185,138,204,214,00000000, MIM v1.07 KC8MSY>APRS:$GPGGA,155042,4058.2959,N,08247.8042,W,1,09,1.7,22192.7,M,-33.8,M,,/GPS FIX KC8MSY>APRTLM:T#065,254,000,140,204,212,00000000, MIM v1.07 KC8MSY>APRTLM:T#066,254,000,140,204,211,00000000, MIM v1.07 KC8MSY>APRTLM:T#067,254,000,140,204,212,00000000, MIM v1.07 KC8MSY>APRS:$GPGGA,155052,4058.3069,N,08247.7906,W,1,10,1.3,22219.4,M,-33.8,M,,/GPS FIX KC8MSY>APRTLM:T#068,254,000,137,204,209,00000000, MIM v1.07 KC8MSY>APRTLM:T#069,254,000,138,204,213,00000000, MIM v1.07 KC8MSY>APRS:$GPGGA,155102,4058.3266,N,08247.7752,W,1,11,1.7,22248.6,M,-33.8,M,,/GPS FIX KC8MSY>APRTLM:T#070,254,000,137,204,212,00000000, MIM v1.07 KC8MSY>APRS:WSU SUNTRACKER 091402 FINDLAY,OH KC8MSY>APRTLM:T#071,254,000,137,204,211,00000000, MIM v1.07 KC8MSY>APRTLM:T#072,254,000,137,204,211,00000000, MIM v1.07 KC8MSY>APRS:$GPGGA,155118,4058.3514,N,08247.7432,W,1,11,1.1,22298.5,M,-33.8,M,,/GPS FIX KC8MSY>APRTLM:T#073,254,000,136,204,211,00000000, MIM v1.07 KC8MSY>APRTLM:T#074,254,029,135,204,215,00000000, MIM v1.07 KC8MSY>APRS:$GPGGA,155128,4058.3646,N,08247.7262,W,1,09,1.3,22327.2,M,-33.8,M,,/GPS FIX KC8MSY>APRTLM:T#075,254,079,135,205,214,00000000, MIM v1.07 KC8MSY>APRTLM:T#076,254,000,138,203,210,00000000, MIM v1.07 KC8MSY>APRTLM:T#077,254,000,137,204,211,00000000, MIM v1.07 KC8MSY>APRS:$GPGGA,155138,4058.3807,N,08247.7090,W,1,11,1.3,22358.3,M,-33.8,M,,/GPS FIX KC8MSY>APRTLM:T#078,254,000,137,204,212,00000000, MIM v1.07 KC8MSY>APRTLM:T#079,254,000,133,204,213,00000000, MIM v1.07 KC8MSY>APRS:$GPGGA,155148,4058.4023,N,08247.6926,W,1,11,1.1,22389.0,M,-33.8,M,,/GPS FIX KC8MSY>APRTLM:T#080,254,000,135,204,212,00000000, MIM v1.07 KC8MSY>APRTLM:T#081,254,037,136,204,212,00000000, MIM v1.07 KC8MSY>APRTLM:T#082,254,000,138,204,210,00000000, MIM v1.07 KC8MSY>APRS:$GPRMC,155159,A,4058.4244,N,08247.6851,W,010.8,027.2,140902,006.9,W/GPS FIX KC8MSY>APRTLM:T#083,254,000,135,204,213,00000000, MIM v1.07 KC8MSY>APRTLM:T#084,254,099,135,205,215,00000000, MIM v1.07 KC8MSY>APRS:$GPGGA,155208,4058.4440,N,08247.6834,W,1,11,1.2,22451.8,M,-33.8,M,,/GPS FIX KC8MSY>APRTLM:T#085,254,002,138,204,209,00000000, MIM v1.07 KC8MSY>APRS:WSU SUNTRACKER 091402 FINDLAY,OH KC8MSY>APRTLM:T#086,253,000,135,204,212,00000000, MIM v1.07 KC8MSY>APRTLM:T#087,254,000,135,204,213,00000000, MIM v1.07 KC8MSY>APRS:$GPGGA,155224,4058.4829,N,08247.6804,W,1,11,1.5,22499.3,M,-33.8,M,,/GPS FIX KC8MSY>APRTLM:T#088,254,000,136,204,213,00000000, MIM v1.07 KC8MSY>APRTLM:T#089,254,000,136,204,212,00000000, MIM v1.07 KC8MSY>APRS:$GPGGA,155234,4058.5070,N,08247.6769,W,1,11,1.2,22531.9,M,-33.8,M,,/GPS FIX KC8MSY>APRTLM:T#090,254,002,136,204,212,00000000, MIM v1.07 KC8MSY>APRTLM:T#091,254,000,136,204,212,00000000, MIM v1.07 KC8MSY>APRTLM:T#092,253,000,135,204,210,00000000, MIM v1.07 KC8MSY>APRS:$GPGGA,155244,4058.5273,N,08247.6758,W,1,10,1.3,22561.9,M,-33.8,M,,/GPS FIX KC8MSY>APRTLM:T#093,254,093,136,205,213,00000000, MIM v1.07 KC8MSY>APRTLM:T#094,254,000,135,204,212,00000000, MIM v1.07 KC8MSY>APRS:$GPGGA,155254,4058.5413,N,08247.6790,W,1,11,1.1,22593.1,M,-33.8,M,,/GPS FIX KC8MSY>APRTLM:T#095,254,000,136,204,212,00000000, MIM v1.07 KC8MSY>APRTLM:T#096,254,000,133,204,211,00000000, MIM v1.07 KC8MSY>APRTLM:T#097,254,000,134,204,213,00000000, MIM v1.07 KC8MSY>APRS:$GPGGA,155304,4058.5551,N,08247.6756,W,1,11,1.5,22626.3,M,-33.8,M,,/GPS FIX KC8MSY>APRTLM:T#098,254,171,135,204,215,00000000, MIM v1.07 KC8MSY>APRTLM:T#099,253,000,137,204,212,00000000, MIM v1.07 KC8MSY>APRS:$GPGGA,155314,4058.5635,N,08247.6811,W,1,11,1.6,22658.6,M,-33.8,M,,/GPS FIX KC8MSY>APRTLM:T#100,253,000,136,204,211,00000000, MIM v1.07 KC8MSY>APRS:WSU SUNTRACKER 091402 FINDLAY,OH KC8MSY>APRTLM:T#101,254,000,135,204,209,00000000, MIM v1.07 KC8MSY>APRTLM:T#102,254,000,137,204,211,00000000, MIM v1.07 KC8MSY>APRS:$GPGGA,155330,4058.5629,N,08247.6780,W,1,11,1.2,22709.6,M,-33.8,M,,/GPS FIX KC8MSY>APRTLM:T#103,254,000,135,204,210,00000000, MIM v1.07 KC8MSY>APRTLM:T#104,254,000,134,204,213,00000000, MIM v1.07 KC8MSY>APRS:$GPRMC,155341,A,4058.5594,N,08247.6780,W,001.6,188.1,140902,006.9,W/GPS FIX KC8MSY>APRTLM:T#105,254,000,136,204,212,00000000, MIM v1.07 KC8MSY>APRTLM:T#106,253,000,136,204,212,00000000, MIM v1.07 KC8MSY>APRTLM:T#107,254,000,135,204,212,00000000, MIM v1.07 KC8MSY>APRS:$GPRMC,155351,A,4058.5510,N,08247.6697,W,003.7,148.8,140902,006.9,W/GPS FIX KC8MSY>APRTLM:T#108,254,000,135,204,211,00000000, MIM v1.07 KC8MSY>APRTLM:T#109,254,089,137,205,215,00000000, MIM v1.07 KC8MSY>APRS:$GPGGA,155400,4058.5388,N,08247.6692,W,1,11,1.2,22807.7,M,-33.8,M,,/GPS FIX KC8MSY>APRTLM:T#110,253,000,139,204,214,00000000, MIM v1.07 KC8MSY>APRTLM:T#111,254,000,140,204,213,00000000, MIM v1.07 KC8MSY>APRTLM:T#112,253,000,138,204,209,00000000, MIM v1.07 KC8MSY>APRS:$GPGGA,155410,4058.5240,N,08247.6653,W,1,11,1.1,22841.9,M,-33.8,M,,/GPS FIX KC8MSY>APRTLM:T#113,253,000,138,204,209,00000000, MIM v1.07 KC8MSY>APRTLM:T#114,254,073,139,205,215,00000000, MIM v1.07 KC8MSY>APRS:$GPGGA,155420,4058.5066,N,08247.6509,W,1,11,1.4,22876.4,M,-33.8,M,,/GPS FIX KC8MSY>APRTLM:T#115,254,002,140,204,213,00000000, MIM v1.07 KC8MSY>APRS:WSU SUNTRACKER 091402 FINDLAY,OH KC8MSY>APRTLM:T#116,254,088,140,205,215,00000000, MIM v1.07 KC8MSY>APRTLM:T#117,253,000,142,204,213,00000000, MIM v1.07 KC8MSY>APRS:$GPGGA,155436,4058.4907,N,08247.6412,W,1,11,1.0,22929.3,M,-33.8,M,,/GPS FIX KC8MSY>APRTLM:T#118,254,000,140,204,210,00000000, MIM v1.07 KC8MSY>APRTLM:T#119,254,000,141,204,213,00000000, MIM v1.07 KC8MSY>APRS:$GPGGA,155446,4058.4821,N,08247.6430,W,1,11,1.4,22959.5,M,-33.8,M,,/GPS FIX KC8MSY>APRTLM:T#120,254,004,140,204,209,00000000, MIM v1.07 KC8MSY>APRTLM:T#121,254,004,140,204,212,00000000, MIM v1.07 KC8MSY>APRTLM:T#122,254,000,139,204,209,00000000, MIM v1.07 KC8MSY>APRS:$GPGGA,155456,4058.4691,N,08247.6489,W,1,11,1.4,22989.7,M,-33.8,M,,/GPS FIX KC8MSY>APRTLM:T#123,254,000,140,204,212,00000000, MIM v1.07 KC8MSY>APRTLM:T#124,254,000,140,204,213,00000000, MIM v1.07 KC8MSY>APRS:$GPGGA,155506,4058.4675,N,08247.6665,W,1,11,1.3,23019.9,M,-33.8,M,,/GPS FIX KC8MSY>APRTLM:T#125,254,000,138,204,209,00000000, MIM v1.07 KC8MSY>APRTLM:T#126,254,000,140,204,211,00000000, MIM v1.07 KC8MSY>APRTLM:T#127,254,000,139,204,210,00000000, MIM v1.07 KC8MSY>APRS:$GPGGA,155516,4058.4598,N,08247.6847,W,1,11,1.4,23050.0,M,-33.8,M,,/GPS FIX KC8MSY>APRTLM:T#128,254,011,139,204,215,00000000, MIM v1.07 KC8MSY>APRTLM:T#129,254,000,140,204,210,00000000, MIM v1.07 KC8MSY>APRS:$GPRMC,155527,A,4058.4531,N,08247.7003,W,004.6,232.1,140902,006.9,W/GPS FIX KC8MSY>APRTLM:T#130,254,000,137,204,210,00000000, MIM v1.07 KC8MSY>APRS:WSU SUNTRACKER 091402 FINDLAY,OH KC8MSY>APRTLM:T#131,253,000,137,204,213,00000000, MIM v1.07 KC8MSY>APRTLM:T#132,254,078,139,205,215,00000000, MIM v1.07 KC8MSY>APRS:$GPGGA,155543,4058.4535,N,08247.7323,W,1,11,1.3,23125.4,M,-33.8,M,,/GPS FIX KC8MSY>APRTLM:T#133,254,000,141,204,211,00000000, MIM v1.07 KC8MSY>APRTLM:T#134,254,000,140,204,212,00000000, MIM v1.07 KC8MSY>APRS:$GPRMC,155554,A,4058.4624,N,08247.7639,W,007.9,288.0,140902,006.9,W/GPS FIX KC8MSY>APRTLM:T#135,254,000,139,204,213,00000000, MIM v1.07 KC8MSY>APRTLM:T#136,254,000,139,204,213,00000000, MIM v1.07 KC8MSY>APRTLM:T#137,254,000,141,204,213,00000000, MIM v1.07 KC8MSY>APRS:$GPGGA,155603,4058.4673,N,08247.7850,W,1,11,1.3,23180.2,M,-33.8,M,,/GPS FIX KC8MSY>APRTLM:T#138,254,000,137,204,210,00000000, MIM v1.07 KC8MSY>APRTLM:T#139,254,000,139,204,211,00000000, MIM v1.07 KC8MSY>APRS:$GPRMC,155614,A,4058.4780,N,08247.8172,W,008.5,284.9,140902,006.9,W/GPS FIX KC8MSY>APRTLM:T#140,253,000,139,204,212,00000000, MIM v1.07 KC8MSY>APRTLM:T#141,254,000,139,204,212,00000000, MIM v1.07 KC8MSY>APRTLM:T#142,254,000,140,204,213,00000000, MIM v1.07 KC8MSY>APRS:$GPRMC,155624,A,4058.4918,N,08247.8518,W,009.2,296.1,140902,006.9,W/GPS FIX KC8MSY>APRTLM:T#143,254,109,140,205,212,00000000, MIM v1.07 KC8MSY>APRTLM:T#144,254,189,145,204,213,00000000, MIM v1.07 KC8MSY>APRS:$GPGGA,155633,4058.5002,N,08247.8729,W,1,10,1.4,23263.4,M,-33.8,M,,/GPS FIX KC8MSY>APRTLM:T#145,254,070,143,205,212,00000000, MIM v1.07 KC8MSY>APRS:WSU SUNTRACKER 091402 FINDLAY,OH KC8MSY>APRTLM:T#146,254,000,146,204,212,00000000, MIM v1.07 KC8MSY>APRTLM:T#147,254,071,147,205,215,00000000, MIM v1.07 KC8MSY>APRS:$GPGGA,155649,4058.5240,N,08247.8965,W,1,11,1.0,23305.0,M,-33.8,M,,/GPS FIX KC8MSY>APRTLM:T#148,254,000,144,204,213,00000000, MIM v1.07 KC8MSY>APRTLM:T#149,254,002,145,204,213,00000000, MIM v1.07 KC8MSY>APRS:$GPGGA,155659,4058.5383,N,08247.9147,W,1,11,1.3,23330.2,M,-33.8,M,,/GPS FIX KC8MSY>APRTLM:T#150,254,109,145,205,215,00000000, MIM v1.07 KC8MSY>APRTLM:T#151,253,000,147,204,212,00000000, MIM v1.07 KC8MSY>APRTLM:T#152,254,000,146,204,213,00000000, MIM v1.07 KC8MSY>APRS:$GPRMC,155710,A,4058.5587,N,08247.9464,W,011.5,304.6,140902,006.9,W/GPS FIX KC8MSY>APRTLM:T#153,254,000,147,204,212,00000000, MIM v1.07 KC8MSY>APRTLM:T#154,254,000,147,204,210,00000000, MIM v1.07 KC8MSY>APRS:$GPRMC,155720,A,4058.5732,N,08247.9829,W,012.6,313.1,140902,006.9,W/GPS FIX KC8MSY>APRTLM:T#155,254,000,146,204,212,00000000, MIM v1.07 KC8MSY>APRTLM:T#156,254,000,146,204,213,00000000, MIM v1.07 KC8MSY>APRTLM:T#157,254,000,146,204,210,00000000, MIM v1.07 KC8MSY>APRS:$GPGGA,155729,4058.5915,N,08248.0135,W,1,11,1.3,23418.8,M,-33.8,M,,/GPS FIX KC8MSY>APRTLM:T#158,254,000,145,204,213,00000000, MIM v1.07 KC8MSY>APRTLM:T#159,254,000,145,204,213,00000000, MIM v1.07 KC8MSY>APRS:$GPRMC,155740,A,4058.6186,N,08248.0527,W,013.1,316.5,140902,006.9,W/GPS FIX KC8MSY>APRTLM:T#KC8MSY>APRS:WSU SUNTRACKER 091402 FINDLAY,OH KC8MSY>APRTLM:T#161,254,000,147,204,213,00000000, MIM v1.07 KC8MSY>APRTLM:T#162,254,000,144,204,210,00000000, MIM v1.07 KC8MSY>APRS:$GPRMC,155757,A,4058.6523,N,08248.0963,W,008.9,328.1,140902,006.9,W/GPS FIX KC8MSY>APRTLM:T#163,254,000,147,204,212,00000000, MIM v1.07 KC8MSY>APRTLM:T#164,254,000,147,204,211,00000000, MIM v1.07 KC8MSY>APRS:$GPGGA,155806,4058.6657,N,08248.1160,W,1,11,1.1,23535.8,M,-33.8,M,,/GPS FIX KC8MSY>APRTLM:T#165,254,000,147,204,211,00000000, MIM v1.07 KC8MSY>APRTLM:T#166,254,000,149,204,211,00000000, MIM v1.07 KC8MSY>APRTLM:T#167,254,024,148,205,215,00000000, MIM v1.07 KC8MSY>APRS:$GPRMC,155817,A,4058.6933,N,08248.1355,W,010.4,326.6,140902,006.9,W/GPS FIX KC8MSY>APRTLM:T#168,254,000,148,204,212,00000000, MIM v1.07 KC8MSY>APRTLM:T#169,254,000,147,204,211,00000000, MIM v1.07 KC8MSY>APRS:$GPRMC,155827,A,4058.7239,N,08248.1534,W,012.8,346.6,140902,006.9,W/GPS FIX KC8MSY>APRTLM:T#170,254,000,148,204,209,00000000, MIM v1.07 KC8MSY>APRTLM:T#171,254,000,145,204,213,00000000, MIM v1.07 KC8MSY>APRTLM:T#172,254,000,148,204,213,00000000, MIM v1KC8MSY>APRS:$GPGGA,155836,4058.7546,N,08248.1726,W,1,11,1.8,23637.4,M,-33.8,M,,/GPS FIX KC8MSY>APRTLM:T#173,254,000,149,204,211,00000000, MIM v1.07 KC8MSY>APRTLM:T#174,254,000,148,204,210,00000000, MIM v1.07 KC8MSY>APRS:$GPGGA,155846,4058.7970,N,08248.1931,W,1,11,1.4,23671.5,M,-33.8,M,,/GPS FIX KC8MSY>APRTLM:T#175,254,000,147,204,212,00000000, MIM v1.07 KC8MSY>APRS:WSU SUNTRACKER 091402 FINDLAY,OH KC8MSY>APRTLM:T#176,254,099,151,205,213,00000000, MIM v1.07 KC8MSY>APRTLM:T#177,254,000,151,204,214,00000000, MIM v1.07 KC8MSY>APRS:$GPRMC,155903,A,4058.8743,N,08248.2120,W,018.2,349.4,140902,006.9,W/GPS FIX KC8MSY>APRTLM:T#178,254,000,153,204,210,00000000, MIM v1.07 KC8MSY>APRTLM:T#179,254,000,153,204,211,00000000, MIM v1.07 KC8MSY>APRS:$GPRMC,155913,A,4058.9158,N,08248.2198,W,014.5,358.4,140902,006.9,W/GPS FIX KC8MSY>APRTLM:T#180,254,000,153,204,212,00000000, MIM v1.07 KC8MSY>APRTLM:T#184,254,016,157,204,212,00000000, MIM v1.07 KC8MSY>APRS:$GPRMC,155933,A,4059.0004,N,08248.2271,W,018.5,005.8,140902,006.9,W/GPS FIX KC8MSY>APRTLM:T#185,254,000,154,204,211,00000000, MIM v1.07 KC8MSY>APRTLM:T#186,254,000,155,204,210,00000000, MIM v1.07 KC8MSY>APRTLM:T#187,254,000,155,204,213,00000000, MIM v1.07 KC8MSY>APRS:$GPRMC,155943,A,4059.0430,N,08248.2300,W,013.9,357.4,140902,006.9,W/GPS FIX KC8MSY>APRTLM:T#188,254,000,156,204,209,00000000, MIM v1.07 KC8MSY>APRTLM:T#189,254,000,154,204,211,00000000, MIM v1.07 KC8MSY>APRS:$GPRMC,155953,A,4059.0884,N,08248.2279,W,014.7,356.9,140902,006.9,W/GPS FIX KC8MSY>APRTLM:T#190,254,000,153,204,211,00000000, MIM v1.07 KC8MSY>APRS:WSU SUNTRACKER 091402 FINDLAY,OH KC8MSY>APRTLM:T#191,254,000,153,204,215,00000000, MIM v1.07 KC8MSY>APRTLM:T#192,254,204,153,205,215,00000000, MIM v1.07 KC8MSY>APRS:$GPRMC,160009,A,4059.1496,N,08248.2178,W,013.2,018.2,140902,006.9,W/GPS FIX KC8MSY>APRTLM:T#193,254,063,156,205,216,00000000, MIM v1.07 KC8MSY>APRTLM:T#194,254,135,158,204,216,00000000, MIM v1.07 KC8MSY>APRS:$GPRMC,160019,A,4059.1778,N,08248.1998,W,013.6,033.7,140902,006.9,W/GPS FIX KC8MSY>APRTLM:T#195,254,163,159,205,215,00000000, MIM v1.07 KC8MSY>APRTLM:T#196,254,192,161,204,215,00000000, MIM v1.07 KC8MSY>APRTLM:T#197,254,063,163,204,212,00000000, MIM v1.07 KC8MSY>APRS:$GPRMC,160029,A,4059.1995,N,08248.1739,W,008.1,048.4,140902,006.9,W/GPS FIX KC8MSY>APRTLM:T#198,254,000,163,204,213,00000000, MIM v1.07 KC8MSY>APRTLM:T#199,254,000,162,204,210,00000000, MIM v1.07 KC8MSY>APRS:$GPGGA,160038,4059.2192,N,08248.1484,W,1,10,1.9,24044.7,M,-33.8,M,,/GPS FIX KC8MSY>APRTLM:T#200,254,081,160,205,214,00000000, MIM v1.07 KC8MSY>APRTLM:T#201,254,195,161,205,212,00000000, MIM v1.07 KC8MSY>APRTLM:T#202,254,141,165,204,215,00000000, MIM v1.07 KC8MSY>APRS:$GPGGA,160048,4059.2400,N,08248.1359,W,1,10,1.2,24074.9,M,-33.8,M,,/GPS FIX KC8MSY>APRTLM:T#203,254,000,163,204,213,00000000, MIM v1.07 KC8MSY>APRTLM:T#204,254,000,161,204,213,00000000, MIM v1.07 KC8MSY>APRS:$GPGGA,160058,4059.2548,N,08248.1172,W,1,11,1.1,24105.9,M,-33.8,M,,/GPS FIX KC8MSY>APRTLM:T#205,254,000,162,204,213,00000000, MIM v1.07 KC8MSY>APRS:WSU SUNTRACKER 091402 FINDLAY,OH KC8MSY>APRTLM:T#206,254,000,159,204,209,00000000, MIM v1.07 KC8MSY>APRTLM:T#207,254,000,159,203,213,00000000, MIM v1.07 KC8MSY>APRS:$GPGGA,160114,4059.2840,N,08248.1113,W,1,11,1.5,24155.1,M,-33.8,M,,/GPS FIX KC8MSY>APRTLM:T#208,254,000,159,204,213,00000000, MIM v1.07 KC8MSY>APRTLM:T#209,254,000,158,204,212,00000000, MIM v1.07 KC8MSY>APRS:$GPRMC,160125,A,4059.3107,N,08248.1063,W,008.7,004.6,140902,006.9,W/GPS FIX KC8MSY>APRTLM:T#210,254,095,159,205,211,00000000, MIM v1.07 KC8MSY>APRTLM:T#211,254,000,157,204,212,00000000, MIM v1.07 KC8MSY>APRTLM:T#212,254,000,157,204,210,00000000, MIM v1.07 KC8MSY>APRS:$GPGGA,160135,4059.3294,N,08248.1054,W,1,10,1.0,24214.0,M,-33.8,M,,/GPS FIX KC8MSY>APRTLM:T#213,254,000,158,204,210,00000000, MIM v1.07 KC8MSY>APRTLM:T#214,254,000,157,204,210,00000000, MIM v1.07 KC8MSY>APRS:$GPGGA,160144,4059.3475,N,08248.0928,W,1,10,1.3,24238.3,M,-33.8,M,,/GPS FIX KC8MSY>APRTLM:T#215,254,000,157,204,210,00000000, MIM v1.07 KC8MSY>APRTLM:T#216,254,064,157,204,210,00000000, MIM v1.07 KC8MSY>APRTLM:T#217,254,000,156,204,213,00000000, MIM v1.07 KC8MSY>APRS:$GPRMC,160155,A,4059.3668,N,08248.0852,W,006.2,013.9,140902,006.9,W/GPS FIX KC8MSY>APRTLM:T#218,254,089,156,205,210,00000000, MIM v1.07 KC8MSY>APRTLM:T#219,254,000,157,204,211,00000000, MIM v1.07 KC8MSY>APRS:$GPGGA,160204,4059.3797,N,08248.0718,W,1,11,1.3,24299.7,M,-33.8,M,,/GPS FIX KC8MSY>APRTLM:T#220,254,000,156,204,209,00000000, MIM v1.07 KC8MSY>APRS:WSU SUNTRACKER 091402 FINDLAY,OH KC8MSY>APRTLM:T#221,254,000,156,204,212,00000000, MIM v1.07 KC8MSY>APRTLM:T#222,254,000,156,204,210,00000000, MIM v1.07 KC8MSY>APRS:$GPRMC,160221,A,4059.3908,N,08248.0508,W,005.2,063.1,140902,006.9,W/GPS FIX KC8MSY>APRTLM:T#223,254,000,156,204,213,00000000, MIM v1.07 KC8MSY>APRTLM:T#224,254,000,156,204,213,00000000, MIM v1.07 KC8MSY>APRS:$GPRMC,160231,A,4059.3907,N,08248.0374,W,003.8,083.6,140902,006.9,W/GPS FIX KC8MSY>APRTLM:T#225,254,000,155,204,213,00000000, MIM v1.07 KC8MSY>APRTLM:T#226,254,000,154,204,211,00000000, MIM v1.07 KC8MSY>APRTLM:T#227,254,000,154,204,210,00000000, MIM v1.07 KC8MSY>APRS:$GPGGA,160240,4059.3946,N,08248.0229,W,1,10,1.8,24411.2,M,-33.8,M,,/GPS FIX KC8MSY>APRTLM:T#228,254,000,153,204,210,00000000, MIM v1.07 KC8MSY>APRTLM:T#229,254,000,154,204,213,00000000, MIM v1.07 KC8MSY>APRS:$GPGGA,160250,4059.3919,N,08248.0196,W,1,11,1.3,24438.4,M,-33.8,M,,/GPS FIX KC8MSY>APRTLM:T#230,254,000,155,204,210,00000000, MIM v1.07 KC8MSY>APRTLM:T#231,254,000,154,204,211,00000000, MIM v1.07 KC8MSY>APRTLM:T#232,254,000,154,204,213,00000000, MIM v1.07 KC8MSY>APRS:$GPRMC,160301,A,4059.3815,N,08248.0099,W,004.4,196.3,140902,006.9,W/GPS FIX KC8MSY>APRTLM:T#233,254,000,155,203,210,00000000, MIM v1.07 KC8MSY>APRTLM:T#234,254,000,154,204,212,00000000, MIM v1.07 KC8MSY>APRS:$GPGGA,160311,4059.3730,N,08248.0048,W,1,10,1.1,24496.7,M,-33.8,M,,/GPS FIX KC8MSY>APRTLM:T#235,254,007,155,204,212,00000000, MIM v1.07 KC8MSY>APRS:WSU SUNTRACKER 091402 FINDLAY,OH KC8MSY>APRTLM:T#236,254,000,155,204,211,00000000, MIM v1.07 KC8MSY>APRTLM:T#237,254,000,155,204,212,00000000, MIM v1.07 KC8MSY>APRS:$GPGGA,160327,4059.3584,N,08248.0129,W,1,10,1.3,24546.4,M,-33.8,M,,/GPS FIX KC8MSY>APRTLM:T#238,254,000,154,204,210,00000000, MIM v1.07 KC8MSY>APRTLM:T#239,254,000,153,204,210,00000000, MIM v1.07 KC8MSY>APRS:$GPGGA,160337,4059.3459,N,08248.0225,W,1,11,2.0,24580.0,M,-33.8,M,,/GPS FIX KC8MSY>APRTLM:T#240,254,000,154,204,212,00000000, MIM v1.07 KC8MSY>APRTLM:T#241,254,068,155,205,214,00000000, MIM v1.07 KC8MSY>APRTLM:T#242,254,107,154,205,215,00000000, MIM v1.07 KC8MSY>APRS:$GPRMC,160348,A,4059.3372,N,08248.0412,W,005.4,247.6,140902,006.9,W/GPS FIX KC8MSY>APRTLM:T#243,254,100,156,204,212,00000000, MIM v1.07 KC8MSY>APRTLM:T#244,254,000,157,204,212,00000000, MIM v1.07 KC8MSY>APRS:$GPGGA,160358,4059.3318,N,08248.0684,W,1,11,1.0,24647.9,M,-33.8,M,,/GPS FIX KC8MSY>APRTLM:T#245,254,000,157,204,208,00000000, MIM v1.07 KC8MSY>APRTLM:T#246,254,000,158,204,212,00000000, MIM v1.07 KC8MSY>APRTLM:T#247,254,000,159,204,211,00000000, MIM v1.07 KC8MSY>APRS:$GPRMC,160408,A,4059.3356,N,08248.0910,W,006.4,283.0,140902,006.9,W/GPS FIX KC8MSY>APRTLM:T#248,254,000,158,204,210,00000000, MIM v1.07 KC8MSY>APRTLM:T#249,254,199,158,205,213,00000000, MIM v1.07 KC8MSY>APRS:$GPGGA,160417,4059.3360,N,08248.1166,W,1,08,1.3,24712.6,M,-33.8,M,,/GPS FIX KC8MSY>APRTLM:T#250,254,000,159,204,213,00000000, MIM v1.07 KC8MSY>APRS:WSU SUNTRACKER 091402 FINDLAY,OH KC8MSY>APRTLM:T#251,254,000,160,204,212,00000000, MIM v1.07 KC8MSY>APRTLM:T#252,254,000,159,204,212,00000000, MIM v1.07 KC8MSY>APRS:$GPRMC,160434,A,4059.3587,N,08248.1627,W,008.9,298.6,140902,006.9,W/GPS FIX KC8MSY>APRTLM:T#253,254,000,160,204,213,00000000, MIM v1.07 KC8MSY>APRTLM:T#254,254,000,160,204,210,00000000, MIM v1.07 KC8MSY>APRS:$GPGGA,160444,4059.3732,N,08248.1896,W,1,10,1.1,24797.4,M,-33.8,M,,/GPS FIX KC8MSY>APRTLM:T#255,254,000,159,204,210,00000000, MIM v1.07 KC8MSY>APRTLM:T#000,254,000,159,204,213,00000000, MIM v1.07 KC8MSY>APRTLM:T#001,254,078,158,204,214,00000000, MIM v1.07 KC8MSY>APRS:$GPGGA,160454,4059.3836,N,08248.2196,W,1,09,1.2,24829.1,M,-33.8,M,,/GPS FIX KC8MSY>APRTLM:T#002,255,098,160,204,215,00000000, MIM v1.07 KC8MSY>APRTLM:T#003,254,083,162,205,215,00000000, MIM v1.07 KC8MSY>APRS:$GPRMC,160504,A,4059.3887,N,08248.2514,W,008.9,283.0,140902,006.9,W/GPS FIX KC8MSY>APRTLM:T#004,254,000,164,204,213,00000000, MIM v1.07 KC8MSY>APRTLM:T#005,254,000,163,204,210,00000000, MIM v1.07 KC8MSY>APRTLM:T#006,254,000,164,204,212,00000000, MIM v1.07 KC8MSY>APRS:$GPRMC,160514,A,4059.4014,N,08248.2902,W,012.5,290.9,140902,006.9,W/GPS FIX KC8MSY>APRTLM:T#007,254,069,163,204,215,00000000, MIM v1.07 KC8MSY>APRTLM:T#008,255,201,165,205,216,00000000, MIM v1.07 KC8MSY>APRS:$GPRMC,160524,A,4059.4083,N,08248.3344,W,011.2,292.8,140902,006.9,W/GPS FIX KC8MSY>APRTLM:T#009,254,000,166,204,214,00000000, MIM v1.07 KC8MSY>APRS:WSU SUNTRACKER 091402 FINDLAY,OH KC8MSY>APRTLM:T#010,254,000,165,204,211,00000000, MIM v1.07 KC8MSY>APRTLM:T#013,254,000,163,204,212,00000000, MIM v1.07 KC8MSY>APRS:$GPGGA,160550,4059.4571,N,08248.4506,W,1,10,1.3,25010.6,M,-33.8,M,,/GPS FIX KC8MSY>APRTLM:T#014,254,000,163,204,210,00000000, MIM v1.07 KC8MSY>APRTLM:T#015,254,000,162,204,211,00000000, MIM v1.07 KC8MSY>APRTLM:T#016,254,009,164,204,213,00000000, MIM v1.07 KC8MSY>APRS:$GPRMC,160600,A,4059.4739,N,08248.4931,W,012.8,306.7,140902,006.9,W/GPS FIX KC8MSY>APRTLM:T#017,254,000,164,204,212,00000000, MIM v1.07 KC8MSY>APRTLM:T#018,254,000,163,204,213,00000000, MIM v1.07 KC8MSY>APRS:$GPRMC,160610,A,4059.5030,N,08248.5231,W,013.5,315.8,140902,006.9,W/GPS FIX KC8MSY>APRTLM:T#019,254,000,164,204,211,00000000, MIM v1.07 KC8MSY>APRTLM:T#020,254,000,163,204,212,00000000, MIM v1.07 KC8MSY>APRTLM:T#021,254,000,163,204,212,00000000, MIM v1.07 KC8MSY>APRS:$GPRMC,160620,A,4059.5310,N,08248.5616,W,015.7,328.3,140902,006.9,W/GPS FIX KC8MSY>APRTLM:T#022,255,071,164,205,214,00000000, MIM v1.07 KC8MSY>APRTLM:T#023,254,000,164,204,213,00000000, MIM v1.07 KC8MSY>APRS:$GPRMC,160630,A,4059.5635,N,08248.5950,W,014.1,308.3,140902,006.9,W/GPS FIX KC8MSY>APRTLM:T#024,254,000,163,204,213,00000000, MIM v1.07 KC8MSY>APRS:WSU SUNTRACKER 091402 FINDLAY,OH KC8MSY>APRTLM:T#025,254,000,164,204,214,00000000, MIM v1.07 KC8MSY>APRTLM:T#026,255,079,165,205,214,00000000, MIM v1.07 KC8MSY>APRS:$GPRMC,160647,A,4059.6186,N,08248.6294,W,010.2,323.9,140902,006.9,W/GPS FIX KC8MSY>APRTLM:T#027,254,000,166,204,211,00000000, MIM v1.07 KC8MSY>APRTLM:T#028,254,000,165,204,211,00000000, MIM v1.07 KC8MSY>APRS:$GPRMC,160657,A,4059.6492,N,08248.6368,W,011.7,357.1,140902,006.9,W/GPS FIX KC8MSY>APRTLM:T#029,254,000,163,204,210,00000000, MIM v1.07 KC8MSY>APRTLM:T#030,254,000,164,204,210,00000000, MIM v1.07 KC8MSY>APRTLM:T#031,254,000,163,204,213,00000000, MIM v1.07 KC8MSY>APRS:$GPGGA,160706,4059.6721,N,08248.6447,W,1,11,1.2,25250.8,M,-33.8,M,,/GPS FIX KC8MSY>APRTLM:T#KC8MSY>APRTLM:T#033,254,000,163,204,211,00000000, MIM v1.07 KC8MSY>APRS:$GPRMC,160717,A,4059.6982,N,08248.6500,W,007.7,351.2,140902,006.9,W/GPS FIX KC8MSY>APRTLM:T#034,254,000,163,204,213,00000000, MIM v1.07 KC8MSY>APRTLM:T#035,254,000,162,204,209,00000000, MIM v1.07 KC8MSY>APRTLM:T#036,254,107,162,204,213,00000000, MIM v1.07 KC8MSY>APRS:$GPRMC,160727,A,4059.7146,N,08248.6643,W,007.0,327.5,140902,006.9,W/GPS FIX KC8MSY>APRTLM:T#037,255,206,165,205,215,00000000, MIM v1.07 KC8MSY>APRTLM:T#038,254,091,165,204,215,00000000, MIM v1.07 KC8MSY>APRS:$GPGGA,160737,4059.7271,N,08248.6758,W,1,11,1.0,25352.9,M,-33.8,M,,/GPS FIX KC8MSY>APRTLM:T#039,254,000,167,204,212,00000000, MIM v1.07 KC8MSY>APRS:WSU SUNTRACKER 091402 FINDLAY,OH KC8MSY>APRTLM:T#040,254,000,169,204,211,00000000, MIM v1.07 KC8MSY>APRTLM:T#041,255,172,170,204,213,00000000, MIM v1.07 KC8MSY>APRS:$GPRMC,160754,A,4059.7350,N,08248.7057,W,004.6,288.9,140902,006.9,W/GPS FIX KC8MSY>APRTLM:T#042,255,182,171,205,215,00000000, MIM v1.07 KC8MSY>APRTLM:T#043,254,000,172,204,213,00000000, MIM v1.07 KC8MSY>APRS:$GPGGA,160804,4059.7373,N,08248.7295,W,1,09,1.0,25434.6,M,-33.8,M,,/GPS FIX KC8MSY>APRTLM:T#044,254,000,172,204,211,00000000, MIM v1.07 KC8MSY>APRTLM:T#045,254,000,170,204,213,00000000, MIM v1.07 KC8MSY>APRTLM:T#046,255,000,170,204,211,00000000, MIM v1.07 KC8MSY>APRS:$GPGGA,160814,4059.7402,N,08248.7548,W,1,11,1.2,25465.6,M,-33.8,M,,/GPS FIX KC8MSY>APRTLM:T#047,254,074,169,205,214,00000000, MIM v1.07 KC8MSY>APRTLM:T#048,255,075,169,204,213,00000000, MIM v1.07 KC8MSY>APRS:$GPRMC,160824,A,4059.7396,N,08248.7732,W,004.4,254.5,140902,006.9,W/GPS FIX KC8MSY>APRTLM:T#049,254,000,169,203,209,00000000, MIM v1.07 KC8MSY>APRTLM:T#050,254,000,168,204,210,00000000, MIM v1.07 KC8MSY>APRTLM:T#051,254,000,168,204,214,00000000, MIM v1.07 KC8MSY>APRS:$GPGGA,160833,4059.7351,N,08248.7981,W,1,09,1.2,25526.7,M,-33.8,M,,/GPS FIX KC8MSY>APRTLM:T#052,254,000,167,204,213,00000000, MIM v1.07 KC8MSY>APRTLM:T#053,255,140,166,205,215,00000000, MIM v1.07 KC8MSY>APRS:$GPRMC,160844,A,4059.7288,N,08248.8234,W,007.2,247.6,140902,006.9,W/GPS FIX KC8MSY>APRTLM:T#054,255,084,169,204,214,00000000, MIM v1.07 KC8MSY>APRS:WSU SUNTRACKER 091402 FINDLAY,OH KC8MSY>APRTLM:T#055,255,071,171,205,212,00000000, MIM v1.07 KC8MSY>APRTLM:T#056,254,000,173,204,213,00000000, MIM v1.07 KC8MSY>APRS:$GPRMC,160900,A,4059.7083,N,08248.8577,W,006.6,229.7,140902,006.9,W/GPS FIX KC8MSY>APRTLM:T#057,254,000,173,204,211,00000000, MIM v1.07 KC8MSY>APRTLM:T#058,254,000,174,204,212,00000000, MIM v1.07 KC8MSY>APRS:$GPGGA,160910,4059.6937,N,08248.8825,W,1,11,1.3,25637.4,M,-33.8,M,,/GPS FIX KC8MSY>APRTLM:T#059,255,207,173,205,215,00000000, MIM v1.07 KC8MSY>APRTLM:T#060,255,203,174,205,215,00000000, MIM v1.07 KC8MSY>APRTLM:T#061,254,204,177,204,215,00000000, MIM v1.07 KC8MSY>APRS:$GPRMC,160920,A,4059.6771,N,08248.9034,W,012.1,230.9,140902,006.9,W/GPS FIX KC8MSY>APRTLM:T#062,255,151,176,205,212,00000000, MIM v1.07 KC8MSY>APRTLM:T#063,254,000,178,204,210,00000000, MIM v1.07 KC8MSY>APRS:$GPGGA,160930,4059.6601,N,08248.9286,W,1,10,1.2,25696.4,M,-33.8,M,,/GPS FIX KC8MSY>APRTLM:T#064,254,000,178,204,212,00000000, MIM v1.07 KC8MSY>APRTLM:T#065,255,000,177,204,213,00000000, MIM v1.07 KC8MSY>APRTLM:T#066,254,000,174,204,212,00000000, MIM v1.07 KC8MSY>APRS:$GPGGA,160939,4059.6433,N,08248.9635,W,1,11,1.1,25724.5,M,-33.8,M,,/GPS FIX KC8MSY>APRTLM:T#067,254,000,177,204,212,00000000, MIM v1.07 KC8MSY>APRTLM:T#068,255,095,175,204,215,00000000, MIM v1.07 KC8MSY>APRS:$GPRMC,160950,A,4059.6239,N,08248.9994,W,010.4,231.4,140902,006.9,W/GPS FIX KC8MSY>APRTLM:T#069,254,000,176,204,211,00000000, MIM v1.07 KC8MSY>APRS:WSU SUNTRACKER 091402 FINDLAY,OH KC8MSY>APRTLM:T#070,255,198,175,205,212,00000000, MIM v1.07 KC8MSY>APRTLM:T#071,255,078,175,205,214,00000000, MIM v1.07 KC8MSY>APRS:$GPGGA,161006,4059.5897,N,08249.0544,W,1,10,0.9,25799.8,M,-33.8,M,,/GPS FIX KC8MSY>APRTLM:T#072,255,071,175,205,215,00000000, MIM v1.07 KC8MSY>APRTLM:T#073,254,000,176,204,211,00000000, MIM v1.07 KC8MSY>APRS:$GPGGA,161015,4059.5791,N,08249.0866,W,1,08,1.5,25825.6,M,-33.8,M,,/GPS FIX KC8MSY>APRTLM:T#074,254,000,176,204,212,00000000, MIM v1.07 KC8MSY>APRTLM:T#075,254,000,175,204,208,00000000, MIM v1.07 KC8MSY>APRTLM:T#076,255,096,175,204,215,00000000, MIM v1.07 KC8MSY>APRS:$GPGGA,161026,4059.5542,N,08249.1260,W,1,10,0.9,25861.4,M,-33.8,M,,/GPS FIX KC8MSY>APRTLM:T#077,254,133,178,204,213,00000000, MIM v1.07 KC8MSY>APRTLM:T#078,255,184,177,205,212,00000000, MIM v1.07 KC8MSY>APRS:$GPGGA,161036,4059.5377,N,08249.1618,W,1,10,1.0,25891.0,M,-33.8,M,,/GPS FIX KC8MSY>APRTLM:T#079,255,203,178,205,215,00000000, MIM v1.07 KC8MSY>APRTLM:T#080,255,146,180,205,216,00000000, MIM v1.07 KC8MSY>APRTLM:T#081,254,206,182,204,214,00000000, MIM v1.07 KC8MSY>APRS:$GPRMC,161046,A,4059.5142,N,08249.2039,W,013.6,225.8,140902,006.9,W/GPS FIX KC8MSY>APRTLM:T#082,255,205,183,205,215,00000000, MIM v1.07 KC8MSY>APRTLM:T#083,254,172,181,205,216,00000000, MIM v1.07 KC8MSY>APRS:$GPGGA,161056,4059.4977,N,08249.2476,W,1,09,1.1,25949.6,M,-33.8,M,,/GPS FIX KC8MSY>APRTLM:T#084,254,000,180,204,213,00000000, MIM v1.07 KC8MSY>APRS:WSU SUNTRACKER 091402 FINDLAY,OH KC8MSY>APRTLM:T#085,255,000,179,204,213,00000000, MIM v1.07 KC8MSY>APRTLM:T#086,254,000,177,203,213,00000000, MIM v1.07 KC8MSY>APRS:$GPGGA,161113,4059.4708,N,08249.3328,W,1,10,1.0,26001.0,M,-33.8,M,,/GPS FIX KC8MSY>APRTLM:T#087,254,000,175,204,213,00000000, MIM v1.07 KC8MSY>APRTLM:T#088,255,031,175,205,215,00000000, MIM v1.07 KC8MSY>APRS:$GPRMC,161123,A,4059.4649,N,08249.3838,W,013.4,247.4,140902,006.9,W/GPS FIX KC8MSY>APRTLM:T#089,254,000,176,204,210,00000000, MIM v1.07 KC8MSY>APRTLM:T#090,255,168,178,204,215,00000000, MIM v1.07 KC8MSY>APRTLM:T#091,254,000,175,204,213,00000000, MIM v1.07 KC8MSY>APRS:$GPGGA,161133,4059.4626,N,08249.4398,W,1,11,0.8,26064.7,M,-33.8,M,,/GPS FIX KC8MSY>APRTLM:T#092,254,000,175,204,213,00000000, MIM v1.07 KC8MSY>APRTLM:T#093,254,000,175,204,213,00000000, MIM v1.07 KC8MSY>APRS:$GPGGA,161143,4059.4604,N,08249.4966,W,1,11,0.9,26094.0,M,-33.8,M,,/GPS FIX KC8MSY>APRTLM:T#094,254,182,176,205,213,00000000, MIM v1.07 KC8MSY>APRTLM:T#095,255,177,176,204,212,00000000, MIM v1.07 KC8MSY>APRTLM:T#096,255,193,177,205,214,00000000, MIM v1.07 KC8MSY>APRS:$GPRMC,161153,A,4059.4624,N,08249.5594,W,017.3,271.0,140902,006.9,W/GPS FIX KC8MSY>APRTLM:T#097,255,194,179,205,213,00000000, MIM v1.07 KC8MSY>APRTLM:T#098,255,069,180,204,215,00000000, MIM v1.07 KC8MSY>APRS:$GPGGA,161203,4059.4597,N,08249.6181,W,1,09,1.2,26158.7,M,-33.8,M,,/GPS FIX KC8MSY>APRTLM:T#099,254,024,179,205,215,00000000, MIM v1.07 KC8MSY>APRS:WSU SUNTRACKER 091402 FINDLAY,OH KC8MSY>APRTLM:T#100,255,115,180,204,215,00000000, MIM v1.07 KC8MSY>APRTLM:T#101,255,187,181,204,215,00000000, MIM v1.07 KC8MSY>APRS:$GPGGA,161219,4059.4569,N,08249.7239,W,1,10,0.9,26211.7,M,-33.8,M,,/GPS FIX KC8MSY>APRTLM:T#102,255,200,181,205,213,00000000, MIM v1.07 KC8MSY>APRTLM:T#103,254,189,181,204,215,00000000, MIM v1.07 KC8MSY>APRS:$GPGGA,161229,4059.4615,N,08249.7994,W,1,10,0.9,26244.7,M,-33.8,M,,/GPS FIX KC8MSY>APRTLM:T#104,255,124,183,205,215,00000000, MIM v1.07 KC8MSY>APRTLM:T#105,254,198,184,205,215,00000000, MIM v1.07 KC8MSY>APRTLM:T#106,255,136,184,204,215,00000000, MIM v1.07 KC8MSY>APRS:$GPGGA,161239,4059.4679,N,08249.8719,W,1,09,1.1,26276.8,M,-33.8,M,,/GPS FIX KC8MSY>APRTLM:T#107,255,206,183,205,213,00000000, MIM v1.07 KC8MSY>APRTLM:T#108,254,000,182,204,213,00000000, MIM v1.07 KC8MSY>APRS:$GPRMC,161249,A,4059.4798,N,08249.9493,W,020.8,280.6,140902,006.9,W/GPS FIX KC8MSY>APRTLM:T#109,255,000,182,205,214,00000000, MIM v1.07 KC8MSY>APRTLM:T#110,255,000,181,204,213,00000000, MIM v1.07 KC8MSY>APRTLM:T#111,254,000,179,204,212,00000000, MIM v1.07 KC8MSY>APRS:$GPGGA,161259,4059.4959,N,08250.0350,W,1,11,1.0,26347.8,M,-33.8,M,,/GPS FIX KC8MSY>APRTLM:T#112,255,002,180,204,213,00000000, MIM v1.07 KC8MSY>APRTLM:T#113,254,009,179,205,212,00000000, MIM v1.07 KC8MSY>APRS:$GPGGA,161309,4059.5182,N,08250.1162,W,1,11,1.0,26383.1,M,-33.8,M,,/GPS FIX KC8MSY>APRTLM:T#114,254,010,180,205,214,00000000, MIM v1.07 KC8MSY>APRS:WSU SUNTRACKER 091402 FINDLAY,OH KC8MSY>APRTLM:T#115,255,137,178,204,213,00000000, MIM v1.07 KC8MSY>APRTLM:T#116,254,181,179,204,212,00000000, MIM v1.07 KC8MSY>APRS:$GPGGA,161326,4059.5683,N,08250.2387,W,1,11,0.8,26444.5,M,-33.8,M,,/GPS FIX KC8MSY>APRTLM:T#117,255,182,181,205,212,00000000, MIM v1.07 KC8MSY>APRTLM:T#118,255,198,180,205,215,00000000, MIM v1.07 KC8MSY>APRS:$GPGGA,161336,4059.6005,N,08250.3020,W,1,10,0.9,26479.8,M,-33.8,M,,/GPS FIX KC8MSY>APRTLM:T#119,254,179,182,205,213,00000000, MIM v1.07 KC8MSY>APRTLM:T#120,255,199,182,205,214,00000000, MIM v1.07 KC8MSY>APRTLM:T#121,255,133,183,205,215,00000000, MIM v1.07 KC8MSY>APRS:$GPGGA,161346,4059.6300,N,08250.3471,W,1,10,0.9,26514.1,M,-33.8,M,,/GPS FIX KC8MSY>APRTLM:T#122,254,000,183,204,210,00000000, MIM v1.07 KC8MSY>APRTLM:T#123,254,000,182,204,212,00000000, MIM v1.07 KC8MSY>APRS:$GPGGA,161356,4059.6659,N,08250.3875,W,1,10,0.9,26550.0,M,-33.8,M,,/GPS FIX KC8MSY>APRTLM:T#124,254,000,181,204,213,00000000, MIM v1.07 KC8MSY>APRTLM:T#125,254,001,178,204,210,00000000, MIM v1.07 KC8MSY>APRTLM:T#126,254,000,177,204,210,00000000, MIM v1.07 KC8MSY>APRS:$GPGGA,161405,4059.6924,N,08250.4093,W,1,10,1.1,26584.2,M,-33.8,M,,/GPS FIX KC8MSY>APRTLM:T#127,255,000,177,204,214,00000000, MIM v1.07 KC8MSY>APRTLM:T#128,255,076,176,204,215,00000000, MIM v1.07 KC8MSY>APRS:$GPGGA,161416,4059.7243,N,08250.4330,W,1,10,0.8,26624.8,M,-33.8,M,,/GPS FIX KC8MSY>APRTLM:T#129,255,133,179,204,212,00000000, MIM v1.07 KC8MSY>APRS:WSU SUNTRACKER 091402 FINDLAY,OH KC8MSY>APRTLM:T#130,255,099,177,205,215,00000000, MIM v1.07 KC8MSY>APRTLM:T#131,255,091,177,205,216,00000000, MIM v1.07 KC8MSY>APRS:$GPGGA,161433,4059.7594,N,08250.4699,W,1,10,1.1,26687.4,M,-33.8,M,,/GPS FIX KC8MSY>APRTLM:T#132,254,000,176,204,211,00000000, MIM v1.07 KC8MSY>APRTLM:T#133,254,000,177,204,211,00000000, MIM v1.07 KC8MSY>APRS:$GPGGA,161443,4059.7748,N,08250.4953,W,1,10,1.2,26722.9,M,-33.8,M,,/GPS FIX KC8MSY>APRTLM:T#134,255,206,177,205,213,00000000, MIM v1.07 KC8MSY>APRTLM:T#135,254,133,178,205,212,00000000, MIM v1.07 KC8MSY>APRTLM:T#136,254,207,179,204,215,00000000, MIM v1.07 KC8MSY>APRS:$GPGGA,161453,4059.7831,N,08250.5189,W,1,09,1.2,26757.7,M,-33.8,M,,/GPS FIX KC8MSY>APRTLM:T#137,255,138,180,205,215,00000000, MIM v1.07 KC8MSY>APRTLM:T#138,255,207,181,204,214,00000000, MIM v1.07 KC8MSY>APRS:$GPRMC,161503,A,4059.7884,N,08250.5507,W,009.2,283.3,140902,006.9,W/GPS FIX KC8MSY>APRTLM:T#139,255,165,181,205,215,00000000, MIM v1.07 KC8MSY>APRTLM:T#140,255,084,183,205,212,00000000, MIM v1.07 KC8MSY>APRTLM:T#141,255,106,183,205,212,00000000, MIM v1.07 KC8MSY>APRS:$GPGGA,161513,4059.7930,N,08250.5783,W,1,10,1.1,26822.6,M,-33.8,M,,/GPS FIX KC8MSY>APRTLM:T#142,254,052,182,205,212,00000000, MIM v1.07 KC8MSY>APRTLM:T#143,255,001,181,204,210,00000000, MIM v1.07 KC8MSY>APRS:$GPGGA,161523,4059.8018,N,08250.6110,W,1,09,1.1,26857.5,M,-33.8,M,,/GPS FIX KC8MSY>APRTLM:T#144,255,061,179,204,214,00000000, MIM v1.07 KC8MSY>APRS:WSU SUNTRACKER 091402 FINDLAY,OH KC8MSY>APRTLM:T#145,254,000,178,204,212,00000000, MIM v1.07 KC8MSY>APRTLM:T#146,254,000,178,204,210,00000000, MIM v1.07 KC8MSY>APRS:$GPGGA,161540,4059.8149,N,08250.6563,W,1,10,1.2,26913.6,M,-33.8,M,,/GPS FIX KC8MSY>APRTLM:T#147,255,035,176,205,213,00000000, MIM v1.07 KC8MSY>APRTLM:T#148,254,000,174,203,213,00000000, MIM v1.07 KC8MSY>APRS:$GPRMC,161550,A,4059.8200,N,08250.6761,W,005.7,286.9,140902,006.9,W/GPS FIX KC8MSY>APRTLM:T#149,255,012,175,204,210,00000000, MIM v1.07 KC8MSY>APRTLM:T#150,254,000,174,204,211,00000000, MIM v1.07 KC8MSY>APRTLM:T#151,254,052,173,204,213,00000000, MIM v1.07 KC8MSY>APRS:$GPRMC,161600,A,4059.8199,N,08250.7047,W,008.4,272.7,140902,006.9,W/GPS FIX KC8MSY>APRTLM:T#152,255,087,173,205,215,00000000, MIM v1.07 KC8MSY>APRTLM:T#153,255,088,174,205,212,00000000, MIM v1.07 KC8MSY>APRS:$GPGGA,161610,4059.8239,N,08250.7275,W,1,11,0.9,27012.7,M,-33.8,M,,/GPS FIX KC8MSY>APRTLM:T#154,255,065,176,204,212,00000000, MIM v1.07 KC8MSY>APRTLM:T#155,254,000,176,204,213,00000000, MIM v1.07 KC8MSY>APRTLM:T#156,255,077,175,204,215,00000000, MIM v1.07 KC8MSY>APRS:$GPGGA,161620,4059.8237,N,08250.7668,W,1,11,1.0,27045.1,M,-33.8,M,,/GPS FIX KC8MSY>APRTLM:T#157,255,207,175,205,214,00000000, MIM v1.07 KC8MSY>APRTLM:T#158,255,189,178,204,215,00000000, MIM v1.07 KC8MSY>APRS:$GPGGA,161630,4059.8187,N,08250.7951,W,1,09,1.1,27076.0,M,-33.8,M,,/GPS FIX KC8MSY>APRTLM:T#159,254,206,180,205,213,00000000, MIM v1.07 KC8MSY>APRS:WSU SUNTRACKER 091402 FINDLAY,OH KC8MSY>APRTLM:T#160,254,000,180,204,210,00000000, MIM v1.07 KC8MSY>APRTLM:T#161,254,000,180,204,212,00000000, MIM v1.07 KC8MSY>APRS:$GPGGA,161646,4059.7979,N,08250.8442,W,1,10,1.1,27123.7,M,-33.8,M,,/GPS FIX KC8MSY>APRTLM:T#162,254,000,178,204,214,00000000, MIM v1.07 KC8MSY>APRTLM:T#163,254,003,177,204,214,00000000, MIM v1.07 KC8MSY>APRS:$GPGGA,161656,4059.7816,N,08250.8841,W,1,10,1.0,27155.5,M,-33.8,M,,/GPS FIX KC8MSY>APRTLM:T#164,255,009,175,204,213,00000000, MIM v1.07 KC8MSY>APRTLM:T#165,255,000,175,204,214,00000000, MIM v1.07 KC8MSY>APRTLM:T#166,254,000,173,203,212,00000000, MIM v1.07 KC8MSY>APRS:$GPGGA,161706,4059.7753,N,08250.9249,W,1,10,1.0,27184.8,M,-33.8,M,,/GPS FIX KC8MSY>APRTLM:T#167,254,000,173,204,214,00000000, MIM v1.07 KC8MSY>APRTLM:T#168,255,083,173,204,214,00000000, MIM v1.07 KC8MSY>APRS:$GPGGA,161716,4059.7583,N,08250.9636,W,1,10,1.0,27214.4,M,-33.8,M,,/GPS FIX KC8MSY>APRTLM:T#169,255,175,175,205,214,00000000, MIM v1.07 KC8MSY>APRTLM:T#170,255,107,174,204,216,00000000, MIM v1.07 KC8MSY>APRTLM:T#171,254,112,175,205,215,00000000, MIM v1.07 KC8MSY>APRS:$GPGGA,161726,4059.7461,N,08251.0081,W,1,10,1.0,27242.5,M,-33.8,M,,/GPS FIX KC8MSY>APRTLM:T#172,255,029,175,204,214,00000000, MIM v1.07 KC8MSY>APRTLM:T#173,255,169,177,204,215,00000000, MIM v1.07 KC8MSY>APRS:$GPGGA,161736,4059.7390,N,08251.0524,W,1,09,1.1,27275.7,M,-33.8,M,,/GPS FIX KC8MSY>APRTLM:T#174,255,172,178,205,215,00000000, MIM v1.07 KC8MSY>APRS:WSU SUNTRACKER 091402 FINDLAY,OH KC8MSY>APRTLM:T#175,254,000,180,204,210,00000000, MIM v1.07 KC8MSY>APRTLM:T#176,254,000,177,204,210,00000000, MIM v1.07 KC8MSY>APRS:$GPGGA,161752,4059.7461,N,08251.1314,W,1,11,1.0,27327.6,M,-33.8,M,,/GPS FIX KC8MSY>APRTLM:T#177,254,000,179,204,214,00000000, MIM v1.07 KC8MSY>APRTLM:T#178,254,000,177,204,213,00000000, MIM v1.07 KC8MSY>APRS:$GPRMC,161802,A,4059.7527,N,08251.1792,W,012.4,276.3,140902,006.9,W/GPS FIX KC8MSY>APRTLM:T#179,254,000,175,204,213,00000000, MIM v1.07 KC8MSY>APRTLM:T#180,254,000,175,204,211,00000000, MIM v1.07 KC8MSY>APRTLM:T#181,255,205,174,205,214,00000000, MIM v1.07 KC8MSY>APRS:$GPGGA,161812,4059.7663,N,08251.2240,W,1,10,1.2,27389.5,M,-33.8,M,,/GPS FIX KC8MSY>APRTLM:T#182,254,145,176,204,216,00000000, MIM v1.07 KC8MSY>APRTLM:T#183,255,091,177,205,213,00000000, MIM v1.07 KC8MSY>APRS:$GPGGA,161822,4059.7863,N,08251.2721,W,1,11,0.8,27420.2,M,-33.8,M,,/GPS FIX KC8MSY>APRTLM:T#184,254,000,176,204,210,00000000, MIM v1.07 KC8MSY>APRTLM:T#185,254,000,177,204,211,00000000, MIM v1.07 KC8MSY>APRTLM:T#186,255,069,176,205,215,00000000, MIM v1.07 KC8MSY>APRS:$GPGGA,161832,4059.8037,N,08251.3234,W,1,10,1.0,27454.2,M,-33.8,M,,/GPS FIX KC8MSY>APRTLM:T#187,254,000,177,204,213,00000000, MIM v1.07 KC8MSY>APRTLM:T#188,255,112,175,205,216,00000000, MIM v1.07 KC8MSY>APRS:$GPGGA,161842,4059.8257,N,08251.3774,W,1,11,1.0,27487.9,M,-33.8,M,,/GPS FIX KC8MSY>APRTLM:T#189,255,206,177,205,215,00000000, MIM v1.07 KC8MSY>APRS:WSU SUNTRACKER 091402 FINDLAY,OH KC8MSY>APRTLM:T#190,255,066,180,204,215,00000000, MIM v1.07 KC8MSY>APRTLM:T#191,254,000,180,204,213,00000000, MIM v1.07 KC8MSY>APRS:$GPGGA,161858,4059.8401,N,08251.4492,W,1,11,1.0,27534.7,M,-33.8,M,,/GPS FIX KC8MSY>APRTLM:T#192,254,000,179,204,211,00000000, MIM v1.07 KC8MSY>APRTLM:T#193,255,000,179,204,211,00000000, MIM v1.07 KC8MSY>APRS:$GPGGA,161909,4059.8427,N,08251.4948,W,1,10,1.3,27569.9,M,-33.8,M,,/GPS FIX KC8MSY>APRTLM:T#194,254,059,177,204,214,00000000, MIM v1.07 KC8MSY>APRTLM:T#195,254,000,176,204,214,00000000, MIM v1.07 KC8MSY>APRTLM:T#196,255,000,176,204,214,00000000, MIM v1.07 KC8MSY>APRS:$GPRMC,161919,A,4059.8347,N,08251.5395,W,014.8,251.1,140902,006.8,W/GPS FIX KC8MSY>APRTLM:T#197,254,000,175,204,212,00000000, MIM v1.07 KC8MSY>APRTLM:T#198,254,000,176,204,214,00000000, MIM v1.07 KC8MSY>APRS:$GPRMC,161929,A,4059.8225,N,08251.5905,W,013.7,254.4,140902,006.8,W/GPS FIX KC8MSY>APRTLM:T#199,254,000,175,204,212,00000000, MIM v1.07 KC8MSY>APRTLM:T#200,255,098,176,204,213,00000000, MIM v1.07 KC8MSY>APRTLM:T#201,254,000,175,204,214,00000000, MIM v1.07 KC8MSY>APRS:$GPGGA,161939,4059.8113,N,08251.6391,W,1,10,1.3,27663.8,M,-33.8,M,,/GPS FIX KC8MSY>APRTLM:T#202,254,065,176,204,214,00000000, MIM v1.07 KC8MSY>APRTLM:T#203,255,084,176,205,214,00000000, MIM v1.07 KC8MSY>APRS:$GPGGA,161949,4059.7942,N,08251.7026,W,1,11,0.8,27694.3,M,-33.8,M,,/GPS FIX KC8MSY>APRTLM:T#204,254,000,175,204,213,00000000, MIM v1.07 KC8MSY>APRS:WSU SUNTRACKER 091402 FINDLAY,OH KC8MSY>APRTLM:T#205,255,128,175,205,214,00000000, MIM v1.07 KC8MSY>APRTLM:T#206,254,000,177,204,214,00000000, MIM v1.07 KC8MSY>APRS:$GPRMC,162005,A,4059.7862,N,08251.7955,W,014.3,259.2,140902,006.8,W/GPS FIX KC8MSY>APRTLM:T#207,254,181,176,205,213,00000000, MIM v1.07 KC8MSY>APRTLM:T#208,254,205,178,205,216,00000000, MIM v1.07 KC8MSY>APRS:$GPGGA,162015,4059.7803,N,08251.8555,W,1,08,1.3,27769.1,M,-33.8,M,,/GPS FIX KC8MSY>APRTLM:T#209,254,000,179,204,211,00000000, MIM v1.07 KC8MSY>APRTLM:T#210,254,000,180,204,213,00000000, MIM v1.07 KC8MSY>APRTLM:T#211,254,000,177,204,211,00000000, MIM v1.07 KC8MSY>APRS:$GPGGA,162025,4059.7871,N,08251.9160,W,1,11,0.8,27795.0,M,-33.8,M,,/GPS FIX KC8MSY>APRTLM:T#212,254,000,177,204,211,00000000, MIM v1.07 KC8MSY>APRTLM:T#213,254,000,176,204,213,00000000, MIM v1.07 KC8MSY>APRS:$GPGGA,162035,4059.7922,N,08251.9669,W,1,11,1.1,27825.5,M,-33.8,M,,/GPS FIX KC8MSY>APRTLM:T#214,254,000,176,204,212,00000000, MIM v1.07 KC8MSY>APRTLM:T#215,254,000,175,204,213,00000000, MIM v1.07 KC8MSY>APRTLM:T#216,255,098,176,205,212,00000000, MIM v1.07 KC8MSY>APRS:$GPRMC,162045,A,4059.8012,N,08252.0276,W,016.3,286.6,140902,006.8,W/GPS FIX KC8MSY>APRTLM:T#217,255,200,176,205,215,00000000, MIM v1.07 KC8MSY>APRTLM:T#218,255,190,178,205,215,00000000, MIM v1.07 KC8MSY>APRS:$GPGGA,162055,4059.8079,N,08252.0779,W,1,09,1.1,27881.3,M,-33.8,M,,/GPS FIX KC8MSY>APRTLM:T#219,255,114,179,205,212,00000000, MIM v1.07 KC8MSY>APRS:WSU SUNTRACKER 091402 FINDLAY,OH KC8MSY>APRTLM:T#220,254,094,181,205,213,00000000, MIM v1.07 KC8MSY>APRTLM:T#221,254,000,181,204,211,00000000, MIM v1.07 KC8MSY>APRS:$GPGGA,162112,4059.8067,N,08252.1822,W,1,11,1.0,27926.7,M,-33.8,M,,/GPS FIX KC8MSY>APRTLM:T#222,254,000,180,204,213,00000000, MIM v1.07 KC8MSY>APRTLM:T#223,254,100,181,204,213,00000000, MIM v1.07 KC8MSY>APRS:$GPGGA,162122,4059.7986,N,08252.2518,W,1,10,1.1,27952.5,M,-33.8,M,,/GPS FIX KC8MSY>APRTLM:T#224,254,084,182,205,213,00000000, MIM v1.07 KC8MSY>APRTLM:T#225,254,000,182,204,213,00000000, MIM v1.07 KC8MSY>APRTLM:T#226,254,000,181,204,211,00000000, MIM v1.07 KC8MSY>APRS:$GPRMC,162132,A,4059.7888,N,08252.3265,W,022.4,264.3,140902,006.8,W/GPS FIX KC8MSY>APRTLM:T#227,254,055,180,205,215,00000000, MIM v1.07 KC8MSY>APRTLM:T#228,254,000,180,204,214,00000000, MIM v1.07 KC8MSY>APRS:$GPGGA,162142,4059.7798,N,08252.4122,W,1,11,1.2,28009.7,M,-33.8,M,,/GPS FIX KC8MSY>APRTLM:T#229,254,000,178,204,210,00000000, MIM v1.07 KC8MSY>APRTLM:T#230,254,000,177,204,213,00000000, MIM v1.07 KC8MSY>APRTLM:T#233,254,000,176,204,212,00000000, MIM v1.07 KC8MSY>APRS:$GPGGA,162202,4059.7578,N,08252.5821,W,1,10,1.1,28067.0,M,-33.8,M,,/GPS FIX KC8MSY>APRTLM:T#234,255,104,176,205,215,00000000, MIM v1.07 KC8MSY>APRS:WSU SUNTRACKER 091402 FINDLAY,OH KC8MSY>APRTLM:T#235,254,000,177,204,211,00000000, MIM v1.07 KC8MSY>APRTLM:T#236,254,000,179,204,213,00000000, MIM v1.07 KC8MSY>APRS:$GPRMC,162219,A,4059.7372,N,08252.7536,W,026.2,260.8,140902,006.8,W/GPS FIX KC8MSY>APRTLM:T#237,254,000,176,204,214,00000000, MIM v1.07 KC8MSY>APRTLM:T#238,255,000,177,204,213,00000000, MIM v1.07 KC8MSY>APRS:$GPGGA,162229,4059.7287,N,08252.8501,W,1,10,0.9,28142.7,M,-33.8,M,,/GPS FIX KC8MSY>APRTLM:T#239,254,061,177,204,215,00000000, MIM v1.07 KC8MSY>APRTLM:T#240,255,152,176,205,216,00000000, MIM v1.07 KC8MSY>APRTLM:T#241,254,206,178,205,211,00000000, MIM v1.07 KC8MSY>APRS:$GPGGA,162239,4059.7235,N,08252.9617,W,1,10,1.0,28174.2,M,-33.8,M,,/GPS FIX KC8MSY>APRTLM:T#242,254,161,178,205,215,00000000, MIM v1.07 KC8MSY>APRTLM:T#243,254,005,179,204,215,00000000, MIM v1.07 KC8MSY>APRS:$GPGGA,162249,4059.7237,N,08253.0545,W,1,10,1.2,28205.4,M,-33.8,M,,/GPS FIX KC8MSY>APRTLM:T#244,254,000,177,204,212,00000000, MIM v1.07 KC8MSY>APRTLM:T#245,254,000,177,204,211,00000000, MIM v1.07 KC8MSY>APRTLM:T#246,255,000,176,204,213,00000000, MIM v1.07 KC8MSY>APRS:$GPGGA,162259,4059.7179,N,08253.1507,W,1,10,1.7,28239.8,M,-33.8,M,,/GPS FIX KC8MSY>APRTLM:T#247,254,000,176,204,213,00000000, MIM v1.07 KC8MSY>APRTLM:T#248,254,000,175,204,213,00000000, MIM v1.07 KC8MSY>APRS:$GPGGA,162309,4059.7190,N,08253.2260,W,1,10,0.8,28273.2,M,-33.8,M,,/GPS FIX KC8MSY>APRTLM:T#249,254,000,175,204,212,00000000, MIM v1.07 KC8MSY>APRS:WSU SUNTRACKER 091402 FINDLAY,OH KC8MSY>APRTLM:T#250,254,170,176,205,213,00000000, MIM v1.07 KC8MSY>APRTLM:T#251,255,065,179,204,215,00000000, MIM v1.07 KC8MSY>APRS:$GPGGA,162326,4059.7273,N,08253.3574,W,1,10,0.9,28331.4,M,-33.8,M,,/GPS FIX KC8MSY>APRTLM:T#252,254,066,179,205,215,00000000, MIM v1.07 KC8MSY>APRTLM:T#253,254,000,179,204,213,00000000, MIM v1.07 KC8MSY>APRS:$GPGGA,162336,4059.7348,N,08253.4167,W,1,10,1.0,28366.6,M,-33.8,M,,/GPS FIX KC8MSY>APRTLM:T#254,254,000,178,204,211,00000000, MIM v1.07 KC8MSY>APRTLM:T#255,254,000,177,204,211,00000000, MIM v1.07 KC8MSY>APRTLM:T#000,254,000,177,204,214,00000000, MIM v1.07 KC8MSY>APRS:$GPGGA,162346,4059.7376,N,08253.4795,W,1,10,0.9,28401.6,M,-33.8,M,,/GPS FIX KC8MSY>APRTLM:T#001,254,120,177,204,215,00000000, MIM v1.07 KC8MSY>APRTLM:T#002,254,203,179,205,216,00000000, MIM v1.07 KC8MSY>APRS:$GPGGA,162356,4059.7517,N,08253.5341,W,1,09,1.0,28434.8,M,-33.8,M,,/GPS FIX KC8MSY>APRTLM:T#003,255,006,178,204,215,00000000, MIM v1.07 KC8MSY>APRTLM:T#004,254,000,178,204,211,00000000, MIM v1.07 KC8MSY>APRTLM:T#005,254,000,177,204,214,00000000, MIM v1.07 KC8MSY>APRS:$GPGGA,162406,4059.7564,N,08253.5859,W,1,10,1.0,28470.3,M,-33.8,M,,/GPS FIX KC8MSY>APRTLM:T#006,254,000,178,204,210,00000000, MIM v1.07 KC8MSY>APRTLM:T#007,254,000,177,204,214,00000000, MIM v1.07 KC8MSY>APRS:$GPGGA,162416,4059.7630,N,08253.6430,W,1,10,1.2,28506.3,M,-33.8,M,,/GPS FIX KC8MSY>APRTLM:T#008,254,000,176,204,213,00000000, MIM v1KC8MSY>APRS:WSU SUNTRACKER 091402 FINDLAY,OH KC8MSY>APRTLM:T#009,255,100,177,205,216,00000000, MIM v1.07 KC8MSY>APRTLM:T#010,255,198,179,205,215,00000000, MIM v1.07 KC8MSY>APRS:$GPGGA,162433,4059.7719,N,08253.7456,W,1,10,0.9,28565.5,M,-33.8,M,,/GPS FIX KC8MSY>APRTLM:T#011,255,080,180,204,212,00000000, MIM v1.07 KC8MSY>APRTLM:T#012,255,107,181,205,216,00000000, MIM v1.07 KC8MSY>APRS:$GPGGA,162443,4059.7823,N,08253.8123,W,1,10,1.2,28598.8,M,-33.8,M,,/GPS FIX KC8MSY>APRTLM:T#013,254,000,181,204,214,00000000, MIM v1.07 KC8MSY>APRTLM:T#014,254,000,181,204,212,00000000, MIM v1.07 KC8MSY>APRTLM:T#015,255,134,181,204,213,00000000, MIM v1.07 KC8MSY>APRS:$GPGGA,162453,4059.7890,N,08253.8836,W,1,10,1.0,28632.7,M,-33.8,M,,/GPS FIX KC8MSY>APRTLM:T#016,255,208,182,204,215,00000000, MIM v1.07 KC8MSY>APRTLM:T#017,255,189,183,204,214,00000000, MIM v1.07 KC8MSY>APRS:$GPGGA,162503,4059.7992,N,08253.9626,W,1,09,1.0,28665.5,M,-33.8,M,,/GPS FIX KC8MSY>APRTLM:T#018,255,195,185,205,213,00000000, MIM v1.07 KC8MSY>APRTLM:T#019,255,023,186,204,215,00000000, MIM v1.07 KC8MSY>APRTLM:T#v1.07 KC8MSY>APRS:$GPGGA,162513,4059.8145,N,08254.0405,W,1,10,1.1,28695.7,M,-33.8,M,,/GPS FIX KC8MSY>APRTLM:T#021,254,000,185,204,212,00000000, MIM v1.07 KC8MSY>APRTLM:T#022,254,000,184,204,211,00000000, MIM v1.07 KC8MSY>APRS:$GPGGA,162523,4059.8187,N,08254.1218,W,1,10,1.2,28726.2,M,-33.8,M,,/GPS FIX KC8MSY>APRTLM:T#023,254,000,184,204,214,00000000, MIM v1.07 KC8MSY>APRS:WSU SUNTRACKER 091402 FINDLAY,OH KC8MSY>APRTLM:T#024,254,000,177,204,214,00000000, MIM v1.07 KC8MSY>APRTLM:T#025,254,000,176,204,214,00000000, MIM v1.07 KC8MSY>APRS:$GPGGA,162540,4059.8230,N,08254.2498,W,1,10,1.1,28247.3,M,-33.8,M,,/GPS FIX KC8MSY>APRTLM:T#026,254,000,174,204,211,00000000, MIM v1.07 KC8MSY>APRTLM:T#027,254,000,175,204,213,00000000, MIM v1.07 KC8MSY>APRS:$GPGGA,162550,4059.8267,N,08254.3476,W,1,10,1.7,27883.3,M,-33.8,M,,/GPS FIX KC8MSY>APRTLM:T#028,254,004,172,205,212,00000000, MIM v1.07 KC8MSY>APRTLM:T#029,254,000,171,204,209,00000000, MIM v1.07 KC8MSY>APRTLM:T#030,254,000,169,204,213,00000000, MIM v1.07 KC8MSY>APRS:$GPGGA,162600,4059.8235,N,08254.4059,W,1,10,1.2,27545.5,M,-33.8,M,,/GPS FIX KC8MSY>APRTLM:T#031,254,000,166,204,211,00000000, MIM v1.07 KC8MSY>APRTLM:T#032,254,000,167,204,213,00000000, MIM v1.07 KC8MSY>APRS:$GPGGA,162610,4059.8141,N,08254.4537,W,1,10,1.4,27221.1,M,-33.8,M,,/GPS FIX KC8MSY>APRTLM:T#033,254,000,166,204,212,00000000, MIM v1.07 KC8MSY>APRTLM:T#034,254,000,164,204,213,00000000, MIM v1.07 KC8MSY>APRTLM:T#035,255,000,163,204,211,00000000, MIM v1.07 KC8MSY>APRS:$GPGGA,162620,4059.8027,N,08254.4927,W,1,10,1.7,26909.2,M,-33.8,M,,/GPS FIX KC8MSY>APRTLM:T#036,254,000,161,204,211,00000000, MIM v1.07 KC8MSY>APRTLM:T#037,254,000,160,204,211,00000000, MIM v1.07 KC8MSY>APRS:$GPGGA,162630,4059.7931,N,08254.5233,W,1,10,1.5,26572.2,M,-33.8,M,,/GPS FIX KC8MSY>APRTLM:T#038,254,000,161,204,212,00000000, MIM v1.07 KC8MSY>APRS:WSU SUNTRACKER 091402 FINDLAY,OH KC8MSY>APRTLM:T#039,254,000,155,204,211,00000000, MIM v1.07 KC8MSY>APRTLM:T#040,254,000,156,204,213,00000000, MIM v1.07 KC8MSY>APRS:$GPGGA,162647,4059.8131,N,08254.6524,W,1,10,2.0,26039.8,M,-33.8,M,,/GPS FIX KC8MSY>APRTLM:T#041,254,000,156,204,213,00000000, MIM v1.07 KC8MSY>APRTLM:T#042,254,000,152,204,213,00000000, MIM v1.07 KC8MSY>APRS:$GPGGA,162657,4059.8045,N,08254.7022,W,1,10,1.0,25744.6,M,-33.8,M,,/GPS FIX KC8MSY>APRTLM:T#043,255,000,153,204,213,00000000, MIM v1.07 KC8MSY>APRTLM:T#044,254,000,153,204,212,00000000, MIM v1.07 KC8MSY>APRTLM:T#045,254,000,153,204,214,00000000, MIM v1.07 KC8MSY>APRS:$GPGGA,162707,4059.7919,N,08254.7364,W,1,10,0.9,25467.1,M,-33.8,M,,/GPS FIX KC8MSY>APRTLM:T#046,254,000,152,204,212,00000000, MIM v1.07 KC8MSY>APRTLM:T#047,255,001,149,204,214,00000000, MIM v1.07 KC8MSY>APRS:$GPGGA,162717,4059.7996,N,08254.7630,W,1,10,1.0,25180.8,M,-33.8,M,,/GPS FIX KC8MSY>APRTLM:T#048,254,000,150,204,213,00000000, MIM v1.07 KC8MSY>APRTLM:T#049,254,000,147,204,214,00000000, MIM v1.07 KC8MSY>APRTLM:T#050,254,005,148,204,213,00000000, MIM v1.07 KC8MSY>APRS:$GPGGA,162727,4059.8198,N,08254.7960,W,1,10,1.9,24900.3,M,-33.8,M,,/GPS FIX KC8MSY>APRTLM:T#051,255,000,146,204,213,00000000, MIM v1.07 KC8MSY>APRTLM:T#052,254,000,145,204,212,00000000, MIM v1.07 KC8MSY>APRS:$GPGGA,162737,4059.8247,N,08254.8313,W,1,10,1.1,24614.0,M,-33.8,M,,/GPS FIX KC8MSY>APRTLM:T#053,254,000,144,204,213,00000000, MIM v1.07 KC8MSY>APRS:WSU SUNTRACKER 091402 FINDLAY,OH KC8MSY>APRTLM:T#054,254,000,141,204,211,00000000, MIM v1.07 KC8MSY>APRTLM:T#055,254,000,141,204,213,00000000, MIM v1.07 KC8MSY>APRTLM:T#056,254,000,139,204,214,00000000, MIM v1.07 KC8MSY>APRTLM:T#057,254,000,138,204,213,00000000, MIM v1.07 KC8MSY>APRS:$GPGGA,162804,4059.8642,N,08254.8248,W,1,10,1.4,23897.6,M,-33.8,M,,/GPS FIX KC8MSY>APRTLM:T#058,255,005,138,204,211,00000000, MIM v1.07 KC8MSY>APRTLM:T#059,254,000,134,204,212,00000000, MIM v1.07 KC8MSY>APRS:$GPGGA,162814,4059.9031,N,08254.8259,W,1,10,1.1,23593.9,M,-33.8,M,,/GPS FIX KC8MSY>APRTLM:T#062,254,000,132,204,210,00000000, MIM v1.07 KC8MSY>APRS:$GPGGA,162824,4059.9420,N,08254.8552,W,1,10,1.9,23326.2,M,-33.8,M,,/GPS FIX KC8MSY>APRTLM:T#063,255,006,129,204,214,00000000, MIM v1.07 KC8MSY>APRTLM:T#064,254,000,129,204,210,00000000, MIM v1.07 KC8MSY>APRTLM:T#065,254,000,124,204,212,00000000, MIM v1.07 KC8MSY>APRS:$GPGGA,162834,4059.9857,N,08254.8836,W,1,10,2.0,23086.4,M,-33.8,M,,/GPS FIX KC8MSY>APRTLM:T#066,254,000,123,204,214,00000000, MIM v1.07 KC8MSY>APRTLM:T#067,254,000,123,204,211,00000000, MIM v1.07 KC8MSY>APRS:$GPGGA,162844,4100.0012,N,08254.8965,W,1,10,1.5,22817.8,M,-33.8,M,,/GPS FIX KC8MSY>APRTLM:T#068,254,000,120,204,213,00000000, MIM v1.07 KC8MSY>APRS:WSU SUNTRACKER 091402 FINDLAY,OH KC8MSY>APRTLM:T#069,254,000,117,204,211,00000000, MIM v1.07 KC8MSY>APRTLM:T#070,254,000,116,204,213,00000000, MIM v1.07 KC8MSY>APRS:$GPGGA,162901,4059.9956,N,08254.8919,W,1,10,3.2,22411.0,M,-33.8,M,,/GPS FIX KC8MSY>APRTLM:T#071,254,000,117,203,212,00000000, MIM v1.07 KC8MSY>APRTLM:T#072,254,000,108,204,214,00000000, MIM v1.07 KC8MSY>APRS:$GPGGA,162911,4100.0037,N,08254.8817,W,1,10,1.1,22134.6,M,-33.8,M,,/GPS FIX KC8MSY>APRTLM:T#073,254,000,111,204,213,00000000, MIM v1.07 KC8MSY>APRTLM:T#074,255,000,110,205,213,00000000, MIM v1.07 KC8MSY>APRTLM:T#075,254,000,107,204,213,00000000, MIM v1.07 KC8MSY>APRS:$GPGGA,162921,4100.0079,N,08254.8857,W,1,10,1.2,21894.4,M,-33.8,M,,/GPS FIX KC8MSY>APRTLM:T#076,255,000,107,204,213,00000000, MIM v1.07 KC8MSY>APRTLM:T#077,254,000,105,204,211,00000000, MIM v1.07 KC8MSY>APRS:$GPGGA,162931,4100.0305,N,08254.8797,W,1,10,1.7,21648.9,M,-33.8,M,,/GPS FIX KC8MSY>APRTLM:T#078,254,000,103,204,213,00000000, MIM v1.07 KC8MSY>APRTLM:T#079,254,000,103,204,212,00000000, MIM v1.07 KC8MSY>APRTLM:T#080,254,000,102,205,215,00000000, MIM v1.07 KC8MSY>APRS:$GPGGA,162941,4100.0377,N,08254.8760,W,1,10,1.2,21438.0,M,-33.8,M,,/GPS FIX KC8MSY>APRTLM:T#081,254,000,102,204,212,00000000, MIM v1.07 KC8MSY>APRTLM:T#082,254,000,100,204,211,00000000, MIM v1.07 KC8MSY>APRS:$GPGGA,162951,4100.0281,N,08254.8603,W,1,10,1.8,21221.2,M,-33.8,M,,/GPS FIX KC8MSY>APRTLM:T#083,254,000,095,204,213,00000000, MIM v1.07 KC8MSY>APRS:WSU SUNTRACKER 091402 FINDLAY,OH KC8MSY>APRTLM:T#084,254,000,093,204,213,00000000, MIM v1.07 KC8MSY>APRTLM:T#085,254,000,092,204,213,00000000, MIM v1.07 KC8MSY>APRS:$GPGGA,163008,4100.0185,N,08254.8100,W,1,10,1.5,20823.8,M,-33.8,M,,/GPS FIX KC8MSY>APRTLM:T#086,254,000,090,204,213,00000000, MIM v1.07 KC8MSY>APRTLM:T#087,254,000,086,204,212,00000000, MIM v1.07 KC8MSY>APRS:$GPGGA,163018,4100.0459,N,08254.7762,W,1,10,1.0,20574.9,M,-33.8,M,,/GPS FIX KC8MSY>APRTLM:T#088,254,000,085,203,211,00000000, MIM v1.07 KC8MSY>APRTLM:T#089,254,000,083,204,210,00000000, MIM v1.07 KC8MSY>APRTLM:T#090,255,000,084,204,213,00000000, MIM v1.07 KC8MSY>APRS:$GPGGA,163028,4100.0743,N,08254.7554,W,1,10,1.5,20369.9,M,-33.8,M,,/GPS FIX KC8MSY>APRTLM:T#091,254,000,085,204,212,00000000, MIM v1.07 KC8MSY>APRTLM:T#092,254,000,081,204,214,00000000, MIM v1.07 KC8MSY>APRS:$GPGGA,163038,4100.0554,N,08254.8101,W,1,10,1.3,20155.6,M,-33.8,M,,/GPS FIX KC8MSY>APRTLM:T#093,254,000,080,204,211,00000000, MIM v1.07 KC8MSY>APRTLM:T#095,254,000,080,204,213,00000000, MIM v1.07 KC8MSY>APRS:$GPGGA,163048,4100.0524,N,08254.8239,W,1,10,1.4,19954.6,M,-33.8,M,,/GPS FIX KC8MSY>APRTLM:T#096,254,000,080,204,212,00000000, MIM v1.07 KC8MSY>APRTLM:T#097,254,000,078,204,211,00000000, MIM v1.07 KC8MSY>APRS:$GPGGA,163058,4100.0317,N,08254.8494,W,1,09,1.2,19778.0,M,-33.8,M,,/GPS FIX KC8MSY>APRTLM:T#098,255,041,076,204,215,00000000, MIM v1.07 KC8MSY>APRS:WSU SUNTRACKER 091402 FINDLAY,OH KC8MSY>APRTLM:T#099,255,000,073,204,212,00000000, MIM v1.07 KC8MSY>APRTLM:T#100,255,000,069,204,214,00000000, MIM v1.07 KC8MSY>APRS:$GPGGA,163115,4100.0072,N,08254.8143,W,1,09,1.2,19415.5,M,-33.8,M,,/GPS FIX KC8MSY>APRTLM:T#101,254,000,070,204,210,00000000, MIM v1.07 KC8MSY>APRTLM:T#102,254,002,069,205,215,00000000, MIM v1.07 KC8MSY>APRS:$GPGGA,163125,4059.9817,N,08254.7568,W,1,09,1.4,19214.1,M,-33.8,M,,/GPS FIX KC8MSY>APRTLM:T#103,254,000,066,204,212,00000000, MIM v1.07 KC8MSY>APRTLM:T#104,254,000,064,204,211,00000000, MIM v1.07 KC8MSY>APRS:$GPGGA,163145,4059.9621,N,08254.6503,W,1,09,1.2,18820.2,M,-33.8,M,,/GPS FIX KC8MSY>APRTLM:T#108,254,000,061,204,211,00000000, MIM v1.07 KC8MSY>APRTLM:T#109,254,000,060,204,211,00000000, MIM v1.07 KC8MSY>APRTLM:T#110,254,000,059,204,213,00000000, MIM v1.07 KC8MSY>APRS:$GPGGA,163155,4059.9610,N,08254.5984,W,1,10,1.1,18627.8,M,-33.8,M,,/GPS FIX KC8MSY>APRTLM:T#111,254,000,060,204,212,00000000, MIM v1.07 KC8MSY>APRTLM:T#112,254,000,060,204,213,00000000, MIM v1.07 KC8MSY>APRS:$GPGGA,163205,4059.9582,N,08254.5304,W,1,10,1.4,18445.6,M,-33.8,M,,/GPS FIX KC8MSY>APRTLM:T#113,254,000,060,204,210,00000000, MIM v1.07 KC8MSY>APRS:WSU SUNTRACKER 091402 FINDLAY,OH KC8MSY>APRTLM:T#114,254,000,055,204,209,00000000, MIM v1.07 KC8MSY>APRTLM:T#115,254,000,051,204,211,00000000, MIM v1.07 KC8MSY>APRS:$GPGGA,163222,4059.9553,N,08254.4177,W,1,10,1.8,18160.3,M,-33.8,M,,/GPS FIX KC8MSY>APRTLM:T#116,254,000,052,204,211,00000000, MIM v1.07 KC8MSY>APRTLM:T#117,254,000,049,204,213,00000000, MIM v1.07 KC8MSY>APRS:$GPGGA,163232,4059.9652,N,08254.3557,W,1,10,1.5,17941.8,M,-33.8,M,,/GPS FIX KC8MSY>APRTLM:T#118,254,000,049,204,212,00000000, MIM v1.07 KC8MSY>APRTLM:T#119,254,000,050,204,210,00000000, MIM v1.07 KC8MSY>APRTLM:T#120,254,000,049,204,210,00000000, MIM v1.07 KC8MSY>APRS:$GPGGA,163242,4059.9755,N,08254.3039,W,1,09,1.6,17806.7,M,-33.8,M,,/GPS FIX KC8MSY>APRTLM:T#121,254,000,048,204,212,00000000, MIM v1.07 KC8MSY>APRTLM:T#122,254,000,046,204,213,00000000, MIM v1.07 KC8MSY>APRS:$GPGGA,163252,4059.9984,N,08254.2495,W,1,09,1.0,17617.5,M,-33.8,M,,/GPS FIX KC8MSY>APRTLM:T#123,254,000,045,204,211,00000000, MIM v1.07 KC8MSY>APRTLM:T#124,255,000,043,204,211,00000000, MIM v1.07 KC8MSY>APRTLM:T#125,254,000,042,204,212,00000000, MIM v1.07 KC8MSY>APRS:$GPGGA,163302,4100.0141,N,08254.2206,W,1,09,2.2,17459.5,M,-33.8,M,,/GPS FIX KC8MSY>APRTLM:T#126,254,004,042,205,213,00000000, MIM v1.07 KC8MSY>APRTLM:T#127,254,000,042,204,213,00000000, MIM v1.07 KC8MSY>APRS:$GPGGA,163312,4100.0307,N,08254.2071,W,1,09,1.0,17301.8,M,-33.8,M,,/GPS FIX KC8MSY>APRTLM:T#128,254,000,043,203,213,00000000, MIM v1.07 KC8MSY>APRS:WSU SUNTRACKER 091402 FINDLAY,OH KC8MSY>APRTLM:T#129,255,011,042,204,213,00000000, MIM v1.07 KC8MSY>APRTLM:T#130,254,000,039,204,210,00000000, MIM v1.07 KC8MSY>APRS:$GPGGA,163329,4100.0116,N,08254.1330,W,1,09,1.0,17037.3,M,-33.8,M,,/GPS FIX KC8MSY>APRTLM:T#131,254,000,041,204,210,00000000, MIM v1.07 KC8MSY>APRTLM:T#132,254,003,041,204,212,00000000, MIM v1.07 KC8MSY>APRS:$GPGGA,163339,4100.0007,N,08254.0489,W,1,09,1.0,16889.4,M,-33.8,M,,/GPS FIX KC8MSY>APRTLM:T#133,254,000,040,204,209,00000000, MIM v1.07 KC8MSY>APRTLM:T#134,254,000,038,204,213,00000000, MIM v1.07 KC8MSY>APRTLM:T#135,254,000,039,204,209,00000000, MIM v1.07 KC8MSY>APRS:$GPGGA,163349,4059.9825,N,08253.9697,W,1,09,1.1,16745.5,M,-33.8,M,,/GPS FIX KC8MSY>APRTLM:T#136,255,011,040,204,213,00000000, MIM v1.07 KC8MSY>APRTLM:T#137,254,000,038,204,210,00000000, MIM v1.07 KC8MSY>APRS:$GPGGA,163359,4059.9666,N,08253.8717,W,1,09,1.1,16608.2,M,-33.8,M,,/GPS FIX KC8MSY>APRTLM:T#138,254,000,036,204,210,00000000, MIM v1.07 KC8MSY>APRTLM:T#139,254,000,036,204,212,00000000, MIM v1.07 KC8MSY>APRTLM:T#140,254,000,033,204,213,00000000, MIM v1.07 KC8MSY>APRS:$GPGGA,163409,4059.9436,N,08253.7827,W,1,09,1.1,16451.8,M,-33.8,M,,/GPS FIX KC8MSY>APRTLM:T#141,254,000,035,204,210,00000000, MIM v1.07 KC8MSY>APRTLM:T#142,254,000,033,204,212,00000000, MIM v1.07 KC8MSY>APRS:$GPGGA,163419,4059.9249,N,08253.6729,W,1,09,1.4,16296.2,M,-33.8,M,,/GPS FIX KC8MSY>APRTLM:T#143,254,000,033,204,213,00000000, MIM v1.07 KC8MSY>APRS:WSU SUNTRACKER 091402 FINDLAY,OH KC8MSY>APRTLM:T#144,255,000,033,204,213,00000000, MIM v1.07 KC8MSY>APRTLM:T#145,255,000,030,204,211,00000000, MIM v1.07 KC8MSY>APRS:$GPGGA,163436,4059.8744,N,08253.4824,W,1,09,2.3,16025.8,M,-33.8,M,,/GPS FIX KC8MSY>APRTLM:T#146,254,000,027,203,211,00000000, MIM v1.07 KC8MSY>APRTLM:T#147,254,000,029,204,212,00000000, MIM v1.07 KC8MSY>APRS:$GPGGA,163446,4059.8324,N,08253.3597,W,1,09,1.0,15880.4,M,-33.8,M,,/GPS FIX KC8MSY>APRTLM:T#148,254,000,029,204,209,00000000, MIM v1.07 KC8MSY>APRTLM:T#149,254,000,029,204,212,00000000, MIM v1.07 KC8MSY>APRTLM:T#150,254,000,029,204,213,00000000, MIM v1.07 KC8MSY>APRS:$GPGGA,163456,4059.8055,N,08253.2217,W,1,09,1.7,15761.2,M,-33.8,M,,/GPS FIX KC8MSY>APRTLM:T#151,254,000,027,204,211,00000000, MIM v1.07 KC8MSY>APRTLM:T#152,254,000,026,204,213,00000000, MIM v1.07 KC8MSY>APRS:$GPGGA,163506,4059.7754,N,08253.0946,W,1,09,1.8,15590.3,M,-33.8,M,,/GPS FIX KC8MSY>APRTLM:T#153,254,000,023,204,212,00000000, MIM v1.07 KC8MSY>APRTLM:T#154,254,000,025,204,214,00000000, MIM v1.07 KC8MSY>APRTLM:T#155,254,000,024,204,213,00000000, MIM v1.07 KC8MSY>APRS:$GPGGA,163516,4059.7527,N,08252.9473,W,1,09,1.5,15458.1,M,-33.8,M,,/GPS FIX KC8MSY>APRTLM:T#156,254,000,024,203,210,00000000, MIM v1.07 KC8MSY>APRTLM:T#157,254,000,025,204,210,00000000, MIM v1.07 KC8MSY>APRS:$GPGGA,163526,4059.7324,N,08252.7997,W,1,09,1.8,15322.0,M,-33.8,M,,/GPS FIX KC8MSY>APRTLM:T#158,254,000,022,204,209,00000000, MIM v1.07 KC8MSY>APRS:WSU SUNTRACKER 091402 FINDLAY,OH KC8MSY>APRTLM:T#159,254,000,022,204,211,00000000, MIM v1.07 KC8MSY>APRTLM:T#160,254,000,022,204,211,00000000, MIM v1.07 KC8MSY>APRS:$GPGGA,163543,4059.6701,N,08252.5314,W,1,09,1.1,15088.8,M,-33.8,M,,/GPS FIX KC8MSY>APRTLM:T#161,254,000,022,204,211,00000000, MIM v1.07 KC8MSY>APRTLM:T#162,254,000,023,204,210,00000000, MIM v1.07 KC8MSY>APRS:$GPGGA,163553,4059.6377,N,08252.3501,W,1,09,1.4,14953.0,M,-33.8,M,,/GPS FIX KC8MSY>APRTLM:T#163,254,000,020,204,212,00000000, MIM v1.07 KC8MSY>APRTLM:T#164,254,000,022,204,212,00000000, MIM v1.07 KC8MSY>APRTLM:T#165,254,000,021,205,213,00000000, MIM v1.07 KC8MSY>APRS:$GPGGA,163603,4059.6200,N,08252.1848,W,1,09,2.0,14817.6,M,-33.8,M,,/GPS FIX KC8MSY>APRTLM:T#166,254,000,023,204,209,00000000, MIM v1.07 KC8MSY>APRTLM:T#167,254,000,021,204,209,00000000, MIM v1.07 KC8MSY>APRS:$GPGGA,163613,4059.6024,N,08252.0335,W,1,09,1.7,14725.3,M,-33.8,M,,/GPS FIX KC8MSY>APRTLM:T#168,254,000,023,204,209,00000000, MIM v1.07 KC8MSY>APRTLM:T#169,254,000,021,204,211,00000000, MIM v1.07 KC8MSY>APRTLM:T#170,254,000,023,204,212,00000000, MIM v1.07 KC8MSY>APRS:$GPGGA,163623,4059.5857,N,08251.8781,W,1,09,1.0,14547.1,M,-33.8,M,,/GPS FIX KC8MSY>APRTLM:T#171,255,014,021,204,214,00000000, MIM v1.07 KC8MSY>APRTLM:T#172,254,000,020,204,209,00000000, MIM v1.07 KC8MSY>APRS:$GPGGA,163633,4059.5774,N,08251.7221,W,1,09,1.3,14425.1,M,-33.8,M,,/GPS FIX KC8MSY>APRTLM:T#173,254,000,021,204,212,00000000, MIM v1.07 KC8MSY>APRS:WSU SUNTRACKER 091402 FINDLAY,OH KC8MSY>APRTLM:T#174,254,000,020,204,211,00000000, MIM v1.07 KC8MSY>APRTLM:T#175,254,000,022,204,208,00000000, MIM v1.07 KC8MSY>APRS:$GPGGA,163650,4059.5722,N,08251.4639,W,1,09,1.1,14221.9,M,-33.8,M,,/GPS FIX KC8MSY>APRTLM:T#176,254,000,022,203,211,00000000, MIM v1.07 KC8MSY>APRTLM:T#177,254,000,021,204,211,00000000, MIM v1.07 KC8MSY>APRS:$GPGGA,163700,4059.5491,N,08251.3077,W,1,09,1.2,14083.4,M,-33.8,M,,/GPS FIX KC8MSY>APRTLM:T#178,254,000,022,203,211,00000000, MIM v1.07 KC8MSY>APRTLM:T#179,254,000,023,204,212,00000000, MIM v1.07 KC8MSY>APRTLM:T#180,254,000,023,203,208,00000000, MIM v1.07 KC8MSY>APRS:$GPGGA,163710,4059.5359,N,08251.1286,W,1,09,1.4,13973.5,M,-33.8,M,,/GPS FIX KC8MSY>APRTLM:T#181,254,000,021,204,212,00000000, MIM v1.07 KC8MSY>APRTLM:T#182,254,000,024,204,212,00000000, MIM v1.07 KC8MSY>APRS:$GPGGA,163720,4059.5118,N,08250.9360,W,1,09,2.0,13878.3,M,-33.8,M,,/GPS FIX KC8MSY>APRTLM:T#183,254,000,024,204,211,00000000, MIM v1.07 KC8MSY>APRTLM:T#184,255,000,025,204,209,00000000, MIM v1.07 KC8MSY>APRTLM:T#185,254,000,025,204,209,00000000, MIM v1.07 KC8MSY>APRS:$GPGGA,163730,4059.4917,N,08250.7363,W,1,09,0.9,13754.2,M,-33.8,M,,/GPS FIX KC8MSY>APRTLM:T#186,255,000,024,204,211,00000000, MIM v1.07 KC8MSY>APRTLM:T#187,254,000,024,204,209,00000000, MIM v1.07 KC8MSY>APRS:$GPGGA,163740,4059.4760,N,08250.5241,W,1,09,1.0,13635.1,M,-33.8,M,,/GPS FIX KC8MSY>APRTLM:T#188,254,000,025,204,210,00000000, MIM v1.07 KC8MSY>APRS:WSU SUNTRACKER 091402 FINDLAY,OH KC8MSY>APRTLM:T#189,254,000,024,203,212,00000000, MIM v1.07 KC8MSY>APRTLM:T#190,254,000,024,204,211,00000000, MIM v1.07 KC8MSY>APRS:$GPGGA,163757,4059.4771,N,08250.1647,W,1,09,1.1,13432.0,M,-33.8,M,,/GPS FIX KC8MSY>APRTLM:T#191,254,000,024,204,211,00000000, MIM v1.07 KC8MSY>APRTLM:T#192,254,000,024,204,212,00000000, MIM v1.07 KC8MSY>APRS:$GPGGA,163807,4059.4819,N,08249.9674,W,1,09,0.9,13316.0,M,-33.8,M,,/GPS FIX KC8MSY>APRTLM:T#193,254,000,026,203,210,00000000, MIM v1.07 KC8MSY>APRTLM:T#194,254,000,026,203,212,00000000, MIM v1.07 KC8MSY>APRTLM:T#195,254,000,026,204,211,00000000, MIM v1.07 KC8MSY>APRS:$GPGGA,163817,4059.4736,N,08249.7740,W,1,09,1.5,13203.9,M,-33.8,M,,/GPS FIX KC8MSY>APRTLM:T#196,254,000,025,204,211,00000000, MIM v1.07 KC8MSY>APRTLM:T#197,254,000,026,204,209,00000000, MIM v1.07 KC8MSY>APRS:$GPGGA,163827,4059.4630,N,08249.5628,W,1,09,2.1,13098.2,M,-33.8,M,,/GPS FIX KC8MSY>APRTLM:T#198,254,000,026,204,209,00000000, MIM v1.07 KC8MSY>APRTLM:T#199,254,000,025,204,212,00000000, MIM v1.07 KC8MSY>APRTLM:T#200,254,000,027,204,209,00000000, MIM v1.07 KC8MSY>APRS:$GPGGA,163837,4059.4516,N,08249.3494,W,1,09,2.0,13004.1,M,-33.8,M,,/GPS FIX KC8MSY>APRTLM:T#201,254,008,026,204,213,00000000, MIM v1.07 KC8MSY>APRTLM:T#202,254,000,026,204,211,00000000, MIM v1.07 KC8MSY>APRS:$GPGGA,163847,4059.4469,N,08249.1599,W,1,09,2.3,12894.8,M,-33.8,M,,/GPS FIX KC8MSY>APRTLM:T#203,254,000,028,204,208,00000000, MIM v1.07 KC8MSY>APRS:WSU SUNTRACKER 091402 FINDLAY,OH KC8MSY>APRTLM:T#204,254,000,026,204,212,00000000, MIM v1.07 KC8MSY>APRTLM:T#205,254,000,025,204,211,00000000, MIM v1.07 KC8MSY>APRS:$GPGGA,163904,4059.4676,N,08248.8567,W,1,09,1.4,12716.0,M,-33.8,M,,/GPS FIX KC8MSY>APRTLM:T#206,254,139,026,205,213,00000000, MIM v1.07 KC8MSY>APRTLM:T#207,254,000,027,204,211,00000000, MIM v1.07 KC8MSY>APRS:$GPGGA,163914,4059.4851,N,08248.6926,W,1,09,2.0,12617.3,M,-33.8,M,,/GPS FIX KC8MSY>APRTLM:T#208,254,000,025,204,210,00000000, MIM v1.07 KC8MSY>APRTLM:T#209,254,000,025,203,210,00000000, MIM v1.07 KC8MSY>APRTLM:T#210,254,000,024,203,208,00000000, MIM v1.07 KC8MSY>APRS:$GPGGA,163924,4059.4910,N,08248.5630,W,1,09,0.9,12513.3,M,-33.8,M,,/GPS FIX KC8MSY>APRTLM:T#211,254,000,023,204,207,00000000, MIM v1.07 KC8MSY>APRTLM:T#212,254,000,024,203,211,00000000, MIM v1.07 KC8MSY>APRS:$GPGGA,163934,4059.5011,N,08248.4338,W,1,09,0.9,12410.7,M,-33.8,M,,/GPS FIX KC8MSY>APRTLM:T#213,254,000,024,204,211,00000000, MIM v1.07 KC8MSY>APRTLM:T#214,254,000,024,203,212,00000000, MIM v1.07 KC8MSY>APRTLM:T#215,254,000,024,204,210,00000000, MIM v1.07 KC8MSY>APRS:$GPGGA,163944,4059.5024,N,08248.3301,W,1,09,0.9,12311.9,M,-33.8,M,,/GPS FIX KC8MSY>APRTLM:T#216,254,000,024,204,211,00000000, MIM v1.07 KC8MSY>APRTLM:T#217,254,000,025,204,210,00000000, MIM v1.07 KC8MSY>APRS:$GPGGA,163954,4059.5061,N,08248.2389,W,1,09,0.9,12212.4,M,-33.8,M,,/GPS FIX KC8MSY>APRTLM:T#218,254,000,025,203,209,00000000, MIM v1.07 KC8MSY>APRS:WSU SUNTRACKER 091402 FINDLAY,OH KC8MSY>APRTLM:T#219,254,000,025,203,212,00000000, MIM v1.07 KC8MSY>APRTLM:T#220,254,000,025,204,213,00000000, MIM v1.07 KC8MSY>APRS:$GPGGA,164011,4059.5028,N,08248.0846,W,1,09,0.9,12049.0,M,-33.8,M,,/GPS FIX KC8MSY>APRTLM:T#221,254,000,025,204,211,00000000, MIM v1.07 KC8MSY>APRTLM:T#222,254,000,025,204,211,00000000, MIM v1.07 KC8MSY>APRS:$GPGGA,164021,4059.4911,N,08248.0010,W,1,09,0.9,11955.5,M,-33.8,M,,/GPS FIX KC8MSY>APRTLM:T#223,254,000,024,204,210,00000000, MIM v1.07 KC8MSY>APRTLM:T#224,254,000,026,204,211,00000000, MIM v1.07 KC8MSY>APRTLM:T#225,254,000,024,204,210,00000000, MIM v1.07 KC8MSY>APRS:$GPGGA,164031,4059.4737,N,08247.9356,W,1,09,1.1,11862.9,M,-33.8,M,,/GPS FIX KC8MSY>APRTLM:T#226,254,000,024,204,211,00000000, MIM v1.07 KC8MSY>APRTLM:T#227,254,000,024,204,210,00000000, MIM v1.07 KC8MSY>APRS:$GPGGA,164041,4059.4620,N,08247.8798,W,1,09,1.2,11769.4,M,-33.8,M,,/GPS FIX KC8MSY>APRTLM:T#228,254,000,025,204,209,00000000, MIM v1.07 KC8MSY>APRTLM:T#229,254,000,023,204,207,00000000, MIM v1.07 KC8MSY>APRTLM:T#230,254,000,022,204,210,00000000, MIM v1.07 KC8MSY>APRS:$GPGGA,164051,4059.4567,N,08247.8255,W,1,09,1.0,11676.7,M,-33.8,M,,/GPS FIX KC8MSY>APRTLM:T#231,254,000,024,204,208,00000000, MIM v1.07 KC8MSY>APRTLM:T#232,254,000,023,203,208,00000000, MIM v1.07 KC8MSY>APRS:$GPGGA,164101,4059.4463,N,08247.7549,W,1,09,1.0,11585.8,M,-33.8,M,,/GPS FIX KC8MSY>APRTLM:T#233,254,000,024,204,207,00000000, MIM v1.07 KC8MSY>APRS:WSU SUNTRACKER 091402 FINDLAY,OH KC8MSY>APRTLM:T#234,254,000,025,204,210,00000000, MIM v1.07 KC8MSY>APRTLM:T#235,254,000,025,204,207,00000000, MIM v1.07 KC8MSY>APRS:$GPGGA,164118,4059.4238,N,08247.6216,W,1,09,1.4,11432.8,M,-33.8,M,,/GPS FIX KC8MSY>APRTLM:T#236,254,000,026,204,210,00000000, MIM v1.07 KC8MSY>APRTLM:T#237,254,000,026,204,209,00000000, MIM v1.07 KC8MSY>APRS:$GPGGA,164128,4059.4128,N,08247.5454,W,1,09,1.5,11341.4,M,-33.8,M,,/GPS FIX KC8MSY>APRTLM:T#238,254,000,026,204,207,00000000, MIM v1.07 KC8MSY>APRTLM:T#239,254,000,027,204,209,00000000, MIM v1.07 KC8MSY>APRTLM:T#240,254,000,028,204,211,00000000, MIM v1.07 KC8MSY>APRS:$GPGGA,164138,4059.3939,N,08247.4573,W,1,09,1.3,11249.6,M,-33.8,M,,/GPS FIX KC8MSY>APRTLM:T#241,254,000,027,203,211,00000000, MIM v1.07 KC8MSY>APRTLM:T#242,254,000,026,204,208,00000000, MIM v1.07 KC8MSY>APRS:$GPGGA,164148,4059.3725,N,08247.3528,W,1,09,1.4,11157.7,M,-33.8,M,,/GPS FIX KC8MSY>APRTLM:T#243,254,000,028,203,208,00000000, MIM v1.07 KC8MSY>APRTLM:T#244,254,000,029,204,211,00000000, MIM v1.07 KC8MSY>APRTLM:T#245,254,000,029,204,211,00000000, MIM v1.07 KC8MSY>APRS:$GPGGA,164158,4059.3565,N,08247.2522,W,1,09,1.1,11065.9,M,-33.8,M,,/GPS FIX KC8MSY>APRTLM:T#246,254,000,030,204,210,00000000, MIM v1.07 KC8MSY>APRTLM:T#247,255,000,029,204,212,00000000, MIM v1.07 KC8MSY>APRS:$GPGGA,164208,4059.3380,N,08247.1359,W,1,09,1.3,10972.2,M,-33.8,M,,/GPS FIX KC8MSY>APRTLM:T#248,254,000,029,203,207,00000000, MIM v1.07 KC8MSY>APRS:WSU SUNTRACKER 091402 FINDLAY,OH KC8MSY>APRTLM:T#249,254,000,030,204,211,00000000, MIM v1.07 KC8MSY>APRTLM:T#250,254,003,029,205,213,00000000, MIM v1.07 KC8MSY>APRS:$GPGGA,164225,4059.3128,N,08246.9450,W,1,09,0.9,10813.7,M,-33.8,M,,/GPS FIX KC8MSY>APRTLM:T#251,254,000,031,204,208,00000000, MIM v1.07 KC8MSY>APRTLM:T#252,254,001,031,203,209,00000000, MIM v1.07 KC8MSY>APRS:$GPGGA,164235,4059.3062,N,08246.8261,W,1,09,1.4,10723.6,M,-33.8,M,,/GPS FIX KC8MSY>APRTLM:T#253,254,000,033,204,207,00000000, MIM v1.07 KC8MSY>APRTLM:T#254,254,000,033,204,209,00000000, MIM v1.07 KC8MSY>APRTLM:T#255,254,000,033,204,210,00000000, MIM v1.07 KC8MSY>APRS:$GPGGA,164245,4059.2962,N,08246.7210,W,1,09,1.5,10633.5,M,-33.8,M,,/GPS FIX KC8MSY>APRTLM:T#000,254,000,033,203,207,00000000, MIM v1.07 KC8MSY>APRTLM:T#001,254,000,034,204,210,00000000, MIM v1.07 KC8MSY>APRS:$GPGGA,164255,4059.2854,N,08246.6047,W,1,09,1.1,10544.7,M,-33.8,M,,/GPS FIX KC8MSY>APRTLM:T#002,254,000,036,204,208,00000000, MIM v1.07 KC8MSY>APRTLM:T#003,254,000,035,204,211,00000000, MIM v1.07 KC8MSY>APRTLM:T#004,254,000,036,204,209,00000000, MIM v1.07 KC8MSY>APRS:$GPGGA,164305,4059.2746,N,08246.4999,W,1,09,1.7,10453.9,M,-33.8,M,,/GPS FIX KC8MSY>APRTLM:T#005,254,000,037,204,211,00000000, MIM v1.07 KC8MSY>APRTLM:T#006,254,000,037,204,208,00000000, MIM v1.07 KC8MSY>APRS:$GPGGA,164315,4059.2700,N,08246.3896,W,1,09,1.3,10365.5,M,-33.8,M,,/GPS FIX KC8MSY>APRTLM:T#007,254,000,039,203,207,00000000, MIM v1.07 KC8MSY>APRS:WSU SUNTRACKER 091402 FINDLAY,OH KC8MSY>APRS:$GPGGA,164342,4059.2472,N,08246.0981,W,1,09,1.0,10130.6,M,-33.8,M,,/GPS FIX KC8MSY>APRTLM:T#012,254,000,043,204,211,00000000, MIM v1.07 KC8MSY>APRTLM:T#013,254,000,046,204,211,00000000, MIM v1.07 KC8MSY>APRTLM:T#014,254,000,045,203,210,00000000, MIM v1.07 KC8MSY>APRS:$GPGGA,164352,4059.2488,N,08245.9852,W,1,09,1.2,10044.7,M,-33.8,M,,/GPS FIX KC8MSY>APRTLM:T#015,254,000,045,204,209,00000000, MIM v1.07 KC8MSY>APRTLM:T#016,254,000,047,204,210,00000000, MIM v1.07 KC8MSY>APRS:$GPGGA,164402,4059.2455,N,08245.8801,W,1,09,1.3,9958.9,M,-33.8,M,,/GPS FIX KC8MSY>APRTLM:T#017,254,000,049,204,209,00000000, MIM v1.07 KC8MSY>APRTLM:T#018,255,000,047,204,211,00000000, MIM v1.07 KC8MSY>APRTLM:T#019,254,000,049,204,209,00000000, MIM v1.07 KC8MSY>APRS:$GPGGA,164412,4059.2471,N,08245.7667,W,1,09,1.5,9872.5,M,-33.8,M,,/GPS FIX KC8MSY>APRTLM:T#020,254,000,050,204,210,00000000, MIM v1.07 KC8MSY>APRTLM:T#021,255,011,051,204,210,00000000, MIM v1.07 KC8MSY>APRS:$GPGGA,164422,4059.2466,N,08245.6561,W,1,09,1.7,9784.5,M,-33.8,M,,/GPS FIX KC8MSY>APRTLM:T#022,254,000,052,204,210,00000000, MIM v1.07 KC8MSY>APRS:WSU SUNTRACKER 091402 FINDLAY,OH KC8MSY>APRTLM:T#023,254,000,053,203,211,00000000, MIM v1.07 KC8MSY>APRTLM:T#024,254,008,053,205,215,00000000, MIM v1.07 KC8MSY>APRS:$GPGGA,164439,4059.2538,N,08245.4727,W,1,09,1.3,9637.8,M,-33.8,M,,/GPS FIX KC8MSY>APRTLM:T#025,254,000,056,204,210,00000000, MIM v1.07 KC8MSY>APRTLM:T#026,254,000,057,204,210,00000000, MIM v1.07 KC8MSY>APRS:$GPGGA,164449,4059.2571,N,08245.3594,W,1,09,1.3,9553.6,M,-33.8,M,,/GPS FIX KC8MSY>APRTLM:T#027,254,000,056,204,211,00000000, MIM v1.07 KC8MSY>APRTLM:T#028,254,000,058,204,210,00000000, MIM v1.07 KC8MSY>APRTLM:T#029,254,001,057,204,212,00000000, MIM v1.07 KC8MSY>APRS:$GPGGA,164459,4059.2595,N,08245.2596,W,1,09,1.3,9468.7,M,-33.8,M,,/GPS FIX KC8MSY>APRTLM:T#030,254,000,059,204,211,00000000, MIM v1.07 KC8MSY>APRTLM:T#031,254,000,058,204,208,00000000, MIM v1.07 KC8MSY>APRS:$GPGGA,164509,4059.2659,N,08245.1471,W,1,09,1.4,9384.7,M,-33.8,M,,/GPS FIX KC8MSY>APRTLM:T#032,254,003,060,204,209,00000000, MIM v1.07 KC8MSY>APRTLM:T#033,254,000,061,203,212,00000000, MIM v1.07 KC8MSY>APRTLM:T#034,254,000,062,204,212,00000000, MIM v1.07 KC8MSY>APRS:$GPGGA,164519,4059.2612,N,08245.0340,W,1,09,1.6,9299.7,M,-33.8,M,,/GPS FIX KC8MSY>APRTLM:T#035,254,000,063,204,210,00000000, MIM v1.07 KC8MSY>APRTLM:T#036,254,000,062,204,211,00000000, MIM v1.07 KC8MSY>APRS:$GPGGA,164529,4059.2639,N,08244.9229,W,1,09,1.4,9215.0,M,-33.8,M,,/GPS FIX KC8MSY>APRTLM:T#037,254,000,066,204,211,00000000, MIM v1.07 KC8MSY>APRS:WSU SUNTRACKER 091402 FINDLAY,OH KC8MSY>APRTLM:T#038,254,000,066,204,211,00000000, MIM v1.07 KC8MSY>APRTLM:T#039,254,000,067,204,211,00000000, MIM v1.07 KC8MSY>APRS:$GPGGA,164546,4059.2699,N,08244.7300,W,1,09,1.4,9072.8,M,-33.8,M,,/GPS FIX KC8MSY>APRTLM:T#040,254,000,066,204,209,00000000, MIM v1.07 KC8MSY>APRTLM:T#041,254,000,070,204,209,00000000, MIM v1.07 KC8MSY>APRS:$GPGGA,164556,4059.2720,N,08244.6306,W,1,09,1.2,8990.0,M,-33.8,M,,/GPS FIX KC8MSY>APRTLM:T#042,255,001,069,204,211,00000000, MIM v1.07 KC8MSY>APRTLM:T#043,254,000,071,204,208,00000000, MIM v1.07 KC8MSY>APRTLM:T#044,254,000,071,204,212,00000000, MIM v1.07 KC8MSY>APRS:$GPGGA,164606,4059.2798,N,08244.5172,W,1,09,1.5,8907.3,M,-33.8,M,,/GPS FIX KC8MSY>APRTLM:T#045,255,000,072,204,210,00000000, MIM v1.07 KC8MSY>APRTLM:T#046,254,000,073,203,212,00000000, MIM v1.07 KC8MSY>APRS:$GPGGA,164616,4059.2853,N,08244.4121,W,1,09,1.2,8824.4,M,-33.8,M,,/GPS FIX KC8MSY>APRTLM:T#047,254,000,073,204,209,00000000, MIM v1.07 KC8MSY>APRTLM:T#048,254,000,074,203,211,00000000, MIM v1.07 KC8MSY>APRTLM:T#049,254,000,075,204,212,00000000, MIM v1.07 KC8MSY>APRS:$GPGGA,164626,4059.2931,N,08244.2934,W,1,09,1.5,8742.3,M,-33.8,M,,/GPS FIX KC8MSY>APRTLM:T#050,255,000,076,204,211,00000000, MIM v1.07 KC8MSY>APRTLM:T#051,254,000,073,204,210,00000000, MIM v1.07 KC8MSY>APRS:$GPGGA,164636,4059.2976,N,08244.1887,W,1,09,1.1,8660.9,M,-33.8,M,,/GPS FIX KC8MSY>APRTLM:T#052,255,000,075,204,209,00000000, MIM v1.07 KC8MSY>APRS:WSU SUNTRACKER 091402 FINDLAY,OH KC8MSY>APRTLM:T#053,254,000,077,204,212,00000000, MIM v1.07 KC8MSY>APRTLM:T#054,254,001,078,204,212,00000000, MIM v1.07 KC8MSY>APRS:$GPGGA,164653,4059.3106,N,08244.0116,W,1,09,1.3,8528.4,M,-33.8,M,,/GPS FIX KC8MSY>APRTLM:T#055,254,000,079,204,209,00000000, MIM v1.07 KC8MSY>APRTLM:T#056,254,000,081,204,212,00000000, MIM v1.07 KC8MSY>APRS:$GPGGA,164703,4059.3215,N,08243.9177,W,1,09,1.1,8448.8,M,-33.8,M,,/GPS FIX KC8MSY>APRTLM:T#057,255,006,082,205,210,00000000, MIM v1.07 KC8MSY>APRTLM:T#058,254,000,082,204,210,00000000, MIM v1.07 KC8MSY>APRTLM:T#059,255,082,084,205,215,00000000, MIM v1.07 KC8MSY>APRS:$GPGGA,164713,4059.3285,N,08243.8140,W,1,09,1.0,8370.0,M,-33.8,M,,/GPS FIX KC8MSY>APRTLM:T#060,254,000,084,204,208,00000000, MIM v1.07 KC8MSY>APRTLM:T#061,254,000,084,204,212,00000000, MIM v1.07 KC8MSY>APRS:$GPGGA,164723,4059.3462,N,08243.7143,W,1,09,1.3,8291.7,M,-33.8,M,,/GPS FIX KC8MSY>APRTLM:T#062,255,065,085,205,213,00000000, MIM v1.07 KC8MSY>APRTLM:T#063,254,000,086,204,212,00000000, MIM v1.07 KC8MSY>APRTLM:T#064,254,000,086,204,211,00000000, MIM v1.07 KC8MSY>APRS:$GPGGA,164733,4059.3613,N,08243.6140,W,1,09,1.3,8215.8,M,-33.8,M,,/GPS FIX KC8MSY>APRTLM:T#065,254,000,087,204,211,00000000, MIM v1.07 KC8MSY>APRTLM:T#066,254,049,089,204,215,00000000, MIM v1.07 KC8MSY>APRS:$GPGGA,164743,4059.3828,N,08243.5107,W,1,09,1.0,8138.6,M,-33.8,M,,/GPS FIX KC8MSY>APRTLM:T#067,254,000,088,204,211,00000000, MIM v1.07 KC8MSY>APRS:WSU SUNTRACKER 091402 FINDLAY,OH KC8MSY>APRTLM:T#068,255,123,091,204,210,00000000, MIM v1.07 KC8MSY>APRTLM:T#069,254,000,091,204,210,00000000, MIM v1.07 KC8MSY>APRS:$GPGGA,164759,4059.4061,N,08243.3510,W,1,09,1.4,8015.1,M,-33.8,M,,/GPS FIX KC8MSY>APRTLM:T#070,254,000,092,204,212,00000000, MIM v1.07 KC8MSY>APRTLM:T#071,254,000,093,204,212,00000000, MIM v1.07 KC8MSY>APRS:$GPGGA,164809,4059.4201,N,08243.2424,W,1,09,1.4,7939.4,M,-33.8,M,,/GPS FIX KC8MSY>APRTLM:T#072,254,000,095,204,211,00000000, MIM v1.07 KC8MSY>APRTLM:T#073,254,000,094,204,208,00000000, MIM v1.07 KC8MSY>APRTLM:T#074,254,000,095,204,210,00000000, MIM v1.07 KC8MSY>APRS:$GPGGA,164819,4059.4441,N,08243.1342,W,1,09,1.4,7864.5,M,-33.8,M,,/GPS FIX KC8MSY>APRTLM:T#075,254,000,095,204,211,00000000, MIM v1.07 KC8MSY>APRTLM:T#076,255,069,098,205,213,00000000, MIM v1.07 KC8MSY>APRS:$GPGGA,164829,4059.4670,N,08243.0191,W,1,09,1.3,7788.2,M,-33.8,M,,/GPS FIX KC8MSY>APRTLM:T#077,254,000,098,204,211,00000000, MIM v1.07 KC8MSY>APRTLM:T#078,255,004,097,204,213,00000000, MIM v1.07 KC8MSY>APRTLM:T#079,254,000,099,204,212,00000000, MIM v1.07 KC8MSY>APRS:$GPGGA,164839,4059.4959,N,08242.8932,W,1,09,1.3,7711.2,M,-33.8,M,,/GPS FIX KC8MSY>APRTLM:T#080,254,009,098,204,211,00000000, MIM v1.07 KC8MSY>APRTLM:T#081,254,000,099,204,209,00000000, MIM v1.07 KC8MSY>APRS:$GPGGA,164849,4059.5221,N,08242.7807,W,1,09,1.1,7635.3,M,-33.8,M,,/GPS FIX KC8MSY>APRTLM:T#082,254,000,102,204,211,00000000, MIM v1.07 KC8MSY>APRS:WSU SUNTRACKER 091402 FINDLAY,OH KC8MSY>APRTLM:T#083,254,000,102,204,212,00000000, MIM v1.07 KC8MSY>APRTLM:T#084,254,000,103,204,211,00000000, MIM v1.07 KC8MSY>APRS:$GPGGA,164906,4059.5595,N,08242.5841,W,1,09,1.2,7506.1,M,-33.8,M,,/GPS FIX KC8MSY>APRTLM:T#085,254,000,103,204,212,00000000, MIM v1.07 KC8MSY>APRTLM:T#086,254,000,104,204,212,00000000, MIM v1.07 KC8MSY>APRS:$GPGGA,164916,4059.5784,N,08242.4746,W,1,09,1.3,7431.8,M,-33.8,M,,/GPS FIX KC8MSY>APRTLM:T#087,254,000,103,204,212,00000000, MIM v1.07 KC8MSY>APRTLM:T#088,254,000,105,204,212,00000000, MIM v1.07 KC8MSY>APRTLM:T#089,254,000,105,204,212,00000000, MIM v1.07 KC8MSY>APRS:$GPGGA,164926,4059.6006,N,08242.3596,W,1,09,1.3,7357.5,M,-33.8,M,,/GPS FIX KC8MSY>APRTLM:T#090,254,000,105,204,212,00000000, MIM v1.07 KC8MSY>APRTLM:T#091,254,000,106,203,212,00000000, MIM v1.07 KC8MSY>APRS:$GPGGA,164936,4059.6254,N,08242.2542,W,1,09,1.2,7284.2,M,-33.8,M,,/GPS FIX KC8MSY>APRTLM:T#092,254,000,107,204,212,00000000, MIM v1.07 KC8MSY>APRTLM:T#093,254,000,108,204,212,00000000, MIM v1.07 KC8MSY>APRTLM:T#094,255,010,109,205,215,00000000, MIM v1.07 KC8MSY>APRS:$GPGGA,164946,4059.6466,N,08242.1359,W,1,09,1.1,7210.9,M,-33.8,M,,/GPS FIX KC8MSY>APRTLM:T#095,254,000,110,204,212,00000000, MIM v1.07 KC8MSY>APRTLM:T#096,255,000,110,204,212,00000000, MIM v1.07 KC8MSY>APRS:$GPGGA,164956,4059.6771,N,08242.0197,W,1,09,1.0,7137.8,M,-33.8,M,,/GPS FIX KC8MSY>APRTLM:T#097,254,009,110,205,210,00000000, MIM v1.07 KC8MSY>APRS:WSU SUNTRACKER 091402 FINDLAY,OH KC8MSY>APRTLM:T#098,254,000,111,204,209,00000000, MIM v1.07 KC8MSY>APRTLM:T#099,254,000,111,204,212,00000000, MIM v1.07 KC8MSY>APRS:$GPGGA,165013,4059.7244,N,08241.8325,W,1,09,0.9,7012.8,M,-33.8,M,,/GPS FIX KC8MSY>APRTLM:T#100,254,000,113,204,209,00000000, MIM v1.07 KC8MSY>APRTLM:T#101,255,113,113,205,213,00000000, MIM v1.07 KC8MSY>APRS:$GPGGA,165023,4059.7591,N,08241.7163,W,1,09,1.3,6939.3,M,-33.8,M,,/GPS FIX KC8MSY>APRTLM:T#102,254,001,114,204,212,00000000, MIM v1.07 KC8MSY>APRTLM:T#103,255,050,114,205,211,00000000, MIM v1.07 KC8MSY>APRTLM:T#104,254,000,115,204,210,00000000, MIM v1.07 KC8MSY>APRS:$GPGGA,165033,4059.7877,N,08241.6047,W,1,09,1.3,6867.1,M,-33.8,M,,/GPS FIX KC8MSY>APRTLM:T#105,254,000,115,204,211,00000000, MIM v1.07 KC8MSY>APRTLM:T#106,254,000,116,204,213,00000000, MIM v1.07 KC8MSY>APRS:$GPGGA,165043,4059.8256,N,08241.4854,W,1,09,1.1,6794.6,M,-33.8,M,,/GPS FIX KC8MSY>APRTLM:T#107,254,000,116,204,209,00000000, MIM v1.07 KC8MSY>APRTLM:T#108,254,000,117,204,211,00000000, MIM v1.07 KC8MSY>APRTLM:T#109,254,008,117,204,212,00000000, MIM v1.07 KC8MSY>APRS:$GPGGA,165053,4059.8656,N,08241.3798,W,1,09,1.3,6721.2,M,-33.8,M,,/GPS FIX KC8MSY>APRTLM:T#110,254,000,119,204,212,00000000, MIM v1.07 KC8MSY>APRTLM:T#111,254,000,119,204,212,00000000, MIM v1.07 KC8MSY>APRS:$GPGGA,165103,4059.9083,N,08241.2693,W,1,09,1.2,6648.4,M,-33.8,M,,/GPS FIX KC8MSY>APRTLM:T#112,254,000,120,204,211,00000000, MIM v1.07 KC8MSY>APRS:WSU SUNTRACKER 091402 FINDLAY,OH KC8MSY>APRTLM:T#113,254,000,120,204,212,00000000, MIM v1.07 KC8MSY>APRTLM:T#114,254,044,121,205,214,00000000, MIM v1.07 KC8MSY>APRS:$GPGGA,165119,4059.9721,N,08241.0940,W,1,09,1.1,6534.1,M,-33.8,M,,/GPS FIX KC8MSY>APRTLM:T#115,254,000,122,204,211,00000000, MIM v1.07 KC8MSY>APRTLM:T#116,254,000,122,204,213,00000000, MIM v1.07 KC8MSY>APRS:$GPGGA,165129,4100.0097,N,08240.9661,W,1,09,1.1,6462.5,M,-33.8,M,,/GPS FIX KC8MSY>APRTLM:T#117,254,000,123,204,212,00000000, MIM v1.07 KC8MSY>APRTLM:T#118,254,000,123,204,211,00000000, MIM v1.07 KC8MSY>APRTLM:T#119,254,000,123,204,210,00000000, MIM v1.07 KC8MSY>APRS:$GPGGA,165139,4100.0501,N,08240.8476,W,1,09,1.1,6391.3,M,-33.8,M,,/GPS FIX KC8MSY>APRTLM:T#120,254,000,124,204,209,00000000, MIM v1.07 KC8MSY>APRTLM:T#121,254,068,126,204,212,00000000, MIM v1.07 KC8MSY>APRS:$GPGGA,165149,4100.0849,N,08240.7262,W,1,09,1.1,6321.5,M,-33.8,M,,/GPS FIX KC8MSY>APRTLM:T#122,254,000,126,204,212,00000000, MIM v1.07 KC8MSY>APRTLM:T#123,254,000,127,204,213,00000000, MIM v1.07 KC8MSY>APRTLM:T#124,254,000,126,204,210,00000000, MIM v1.07 KC8MSY>APRS:$GPGGA,165159,4100.1262,N,08240.6078,W,1,09,1.0,6251.3,M,-33.8,M,,/GPS FIX KC8MSY>APRTLM:T#125,254,000,129,204,212,00000000, MIM v1.07 KC8MSY>APRTLM:T#126,254,000,127,204,210,00000000, MIM v1.07 KC8MSY>APRS:$GPGGA,165209,4100.1633,N,08240.4939,W,1,09,1.0,6183.4,M,-33.8,M,,/GPS FIX KC8MSY>APRTLM:T#127,254,000,129,204,212,00000000, MIM v1.07 KC8MSY>APRS:WSU SUNTRACKER 091402 FINDLAY,OH KC8MSY>APRTLM:T#128,254,000,130,204,212,00000000, MIM v1.07 KC8MSY>APRTLM:T#129,254,000,129,204,213,00000000, MIM v1.07 KC8MSY>APRS:$GPGGA,165226,4100.2240,N,08240.2905,W,1,09,1.1,6067.7,M,-33.8,M,,/GPS FIX KC8MSY>APRTLM:T#130,254,000,131,204,210,00000000, MIM v1.07 KC8MSY>APRTLM:T#131,255,000,131,204,213,00000000, MIM v1.07 KC8MSY>APRS:$GPGGA,165236,4100.2731,N,08240.1688,W,1,09,1.1,6001.2,M,-33.8,M,,/GPS FIX KC8MSY>APRTLM:T#132,254,020,131,205,214,00000000, MIM v1.07 KC8MSY>APRTLM:T#133,254,001,132,205,214,00000000, MIM v1.07 KC8MSY>APRTLM:T#134,254,000,132,204,212,00000000, MIM v1.07 KC8MSY>APRS:$GPGGA,165246,4100.3195,N,08240.0507,W,1,09,1.0,5935.4,M,-33.8,M,,/GPS FIX KC8MSY>APRTLM:T#135,254,000,132,204,212,00000000, MIM v1.07 KC8MSY>APRTLM:T#136,255,004,133,204,214,00000000, MIM v1.07 KC8MSY>APRS:$GPGGA,165256,4100.3625,N,08239.9212,W,1,09,0.9,5870.8,M,-33.8,M,,/GPS FIX KC8MSY>APRTLM:T#137,254,000,134,204,212,00000000, MIM v1.07 KC8MSY>APRTLM:T#138,254,000,135,204,211,00000000, MIM v1.07 KC8MSY>APRTLM:T#139,254,000,135,204,211,00000000, MIM v1.07 KC8MSY>APRS:$GPGGA,165306,4100.3979,N,08239.7914,W,1,09,1.1,5804.9,M,-33.8,M,,/GPS FIX KC8MSY>APRTLM:T#140,254,000,135,204,211,00000000, MIM v1.07 KC8MSY>APRTLM:T#141,255,000,136,204,212,00000000, MIM v1.07 KC8MSY>APRS:$GPGGA,165316,4100.4311,N,08239.6689,W,1,09,1.2,5740.1,M,-33.8,M,,/GPS FIX KC8MSY>APRTLM:T#142,254,000,138,204,211,00000000, MIM v1.07 KC8MSY>APRS:WSU SUNTRACKER 091402 FINDLAY,OH KC8MSY>APRTLM:T#143,255,000,138,204,209,00000000, MIM v1.07 KC8MSY>APRTLM:T#144,254,000,139,204,210,00000000, MIM v1.07 KC8MSY>APRS:$GPGGA,165333,4100.4740,N,08239.4888,W,1,08,1.1,5633.2,M,-33.8,M,,/GPS FIX KC8MSY>APRTLM:T#145,254,000,138,204,209,00000000, MIM v1.07 KC8MSY>APRTLM:T#146,254,071,138,205,212,00000000, MIM v1.07 KC8MSY>APRS:$GPGGA,165343,4100.5036,N,08239.3704,W,1,09,1.1,5568.4,M,-33.8,M,,/GPS FIX KC8MSY>APRTLM:T#147,254,000,141,204,211,00000000, MIM v1.07 KC8MSY>APRTLM:T#148,254,000,139,204,212,00000000, MIM v1.07 KC8MSY>APRTLM:T#149,254,000,142,204,211,00000000, MIM v1.07 KC8MSY>APRS:$GPGGA,165353,4100.5272,N,08239.2545,W,1,09,1.1,5505.8,M,-33.8,M,,/GPS FIX KC8MSY>APRTLM:T#150,254,000,140,204,213,00000000, MIM v1.07 KC8MSY>APRTLM:T#151,254,000,141,204,211,00000000, MIM v1.07 KC8MSY>APRS:$GPGGA,165403,4100.5545,N,08239.1469,W,1,09,1.2,5444.6,M,-33.8,M,,/GPS FIX KC8MSY>APRTLM:T#152,255,000,142,204,212,00000000, MIM v1.07 KC8MSY>APRTLM:T#153,254,000,142,204,210,00000000, MIM v1.07 KC8MSY>APRTLM:T#154,255,011,141,204,215,00000000, MIM v1.07 KC8MSY>APRS:$GPGGA,165413,4100.5757,N,08239.0380,W,1,09,1.2,5382.5,M,-33.8,M,,/GPS FIX KC8MSY>APRTLM:T#155,255,048,143,205,214,00000000, MIM v1.07 KC8MSY>APRTLM:T#156,254,000,143,204,210,00000000, MIM v1.07 KC8MSY>APRS:$GPGGA,165423,4100.5946,N,08238.9366,W,1,09,1.1,5321.0,M,-33.8,M,,/GPS FIX KC8MSY>APRTLM:T#157,254,000,143,204,209,00000000, MIM v1.07 KC8MSY>APRS:WSU SUNTRACKER 091402 FINDLAY,OH KC8MSY>APRTLM:T#158,254,000,144,204,212,00000000, MIM v1.07 KC8MSY>APRTLM:T#159,254,000,145,204,213,00000000, MIM v1.07 KC8MSY>APRS:$GPGGA,165439,4100.6178,N,08238.7929,W,1,09,1.1,5223.9,M,-33.8,M,,/GPS FIX KC8MSY>APRTLM:T#160,254,000,146,204,212,00000000, MIM v1.07 KC8MSY>APRTLM:T#161,254,000,146,204,212,00000000, MIM v1.07 KC8MSY>APRS:$GPGGA,165449,4100.6426,N,08238.7044,W,1,09,1.3,5161.6,M,-33.8,M,,/GPS FIX KC8MSY>APRTLM:T#162,254,000,146,204,208,00000000, MIM v1.07 KC8MSY>APRTLM:T#163,255,000,147,204,211,00000000, MIM v1.07 KC8MSY>APRTLM:T#164,254,000,146,204,210,00000000, MIM v1.07 KC8MSY>APRS:$GPGGA,165459,4100.6687,N,08238.6059,W,1,08,1.3,5100.2,M,-33.8,M,,/GPS FIX KC8MSY>APRTLM:T#165,254,000,147,204,213,00000000 MIM v1.07 KC8MSY>APRTLM:T#166,254,000,146,204,212,00000000, MIM v1.07 KC8MSY>APRS:$GPGGA,165509,4100.6985,N,08238.5410,W,1,08,1.2,5039.5,M,-33.8,M,,/GPS FIX KC8MSY>APRTLM:T#167,254,000,148,204,211,00000000, MIM v1.07 KC8MSY>APRTLM:T#168,255,065,146,205,215,00000000, MIM v1.07 KC8MSY>APRTLM:T#169,254,000,148,204,210,00000000, MIM v1.07 KC8MSY>APRS:$GPGGA,165519,4100.7228,N,08238.4440,W,1,09,1.4,4978.5,M,-33.8,M,,/GPS FIX KC8MSY>APRTLM:T#170,254,000,149,204,212,00000000, MIM v1.07 KC8MSY>APRTLM:T#171,254,000,148,204,211,00000000, MIM v1.07 KC8MSY>APRS:$GPGGA,165529,4100.7544,N,08238.3787,W,1,09,1.1,4917.8,M,-33.8,M,,/GPS FIX KC8MSY>APRTLM:T#172,254,000,149,204,211,00000000, MIM v1.07 KC8MSY>APRS:WSU SUNTRACKER 091402 FINDLAY,OH KC8MSY>APRTLM:T#173,254,000,151,204,211,00000000, MIM v1.07 KC8MSY>APRTLM:T#174,254,000,150,204,211,00000000, MIM v1.07 KC8MSY>APRS:$GPGGA,165545,4100.7893,N,08238.2572,W,1,08,1.4,4819.6,M,-33.8,M,,/GPS FIX KC8MSY>APRTLM:T#175,254,000,151,204,213,00000000, MIM v1.07 KC8MSY>APRTLM:T#176,254,000,152,204,213,00000000, MIM v1.07 KC8MSY>APRS:$GPGGA,165555,4100.8101,N,08238.1626,W,1,09,1.2,4764.6,M,-33.8,M,,/GPS FIX KC8MSY>APRTLM:T#177,254,000,151,204,210,00000000, MIM v1.07 KC8MSY>APRTLM:T#178,254,000,152,204,208,00000000, MIM v1.07 KC8MSY>APRTLM:T#179,255,000,153,204,209,00000000, MIM v1.07 KC8MSY>APRS:$GPGGA,165605,4100.8381,N,08238.0971,W,1,09,1.3,4700.0,M,-33.8,M,,/GPS FIX KC8MSY>APRTLM:T#180,254,000,153,204,209,00000000, MIM v1.07 KC8MSY>APRTLM:T#181,254,000,151,204,206,00000000, MIM v1.07 KC8MSY>APRS:$GPGGA,165615,4100.8692,N,08238.0193,W,1,09,1.1,4635.6,M,-33.8,M,,/GPS FIX KC8MSY>APRTLM:T#182,254,000,153,204,211,00000000, MIM v1.07 KC8MSY>APRTLM:T#183,255,000,152,204,211,00000000, MIM v1.07 KC8MSY>APRTLM:T#184,255,000,154,204,212,00000000, MIM v1.07 KC8MSY>APRS:$GPGGA,165625,4100.8960,N,08237.9478,W,1,09,1.3,4574.5,M,-33.8,M,,/GPS FIX KC8MSY>APRTLM:T#185,254,000,154,204,209,00000000, MIM v1.07 KC8MSY>APRTLM:T#186,254,000,154,204,211,00000000, MIM v1.07 KC8MSY>APRS:$GPGGA,165635,4100.9222,N,08237.8782,W,1,09,1.4,4512.6,M,-33.8,M,,/GPS FIX KC8MSY>APRTLM:T#187,255,000,154,204,210,00000000, MIM v1.07 KC8MSY>APRS:WSU SUNTRACKER 091402 FINDLAY,OH KC8MSY>APRTLM:T#188,254,000,155,204,210,00000000, MIM v1.07 KC8MSY>APRTLM:T#189,255,000,155,204,213,00000000, MIM v1.07 KC8MSY>APRS:$GPGGA,165651,4100.9682,N,08237.7848,W,1,09,1.0,4410.3,M,-33.8,M,,/GPS FIX KC8MSY>APRTLM:T#190,254,000,156,204,210,00000000, MIM v1.07 KC8MSY>APRTLM:T#191,254,000,157,204,212,00000000, MIM v1.07 KC8MSY>APRS:$GPGGA,165701,4100.9944,N,08237.7338,W,1,09,1.4,4348.9,M,-33.8,M,,/GPS FIX KC8MSY>APRTLM:T#192,254,000,158,204,212,00000000, MIM v1.07 KC8MSY>APRTLM:T#193,254,000,158,204,211,00000000, MIM v1.07 KC8MSY>APRTLM:T#194,254,000,159,204,212,00000000, MIM v1.07 KC8MSY>APRS:$GPGGA,165711,4101.0168,N,08237.6877,W,1,09,1.6,4283.7,M,-33.8,M,,/GPS FIX KC8MSY>APRTLM:T#195,254,000,160,204,212,00000000, MIM v1.07 KC8MSY>APRTLM:T#196,255,026,159,205,213,00000000, MIM v1.07 KC8MSY>APRS:$GPGGA,165721,4101.0396,N,08237.6397,W,1,09,1.3,4223.1,M,-33.8,M,,/GPS FIX KC8MSY>APRTLM:T#197,254,000,159,204,209,00000000, MIM v1.07 KC8MSY>APRTLM:T#198,254,041,160,204,214,00000000, MIM v1.07 KC8MSY>APRTLM:T#199,254,000,161,204,211,00000000, MIM v1.07 KC8MSY>APRS:$GPGGA,165731,4101.0675,N,08237.5956,W,1,08,1.3,4160.2,M,-33.8,M,,/GPS FIX KC8MSY>APRTLM:T#200,254,015,160,204,214,00000000, MIM v1.07 KC8MSY>APRTLM:T#201,254,000,162,204,212,00000000, MIM v1.07 KC8MSY>APRS:$GPGGA,165741,4101.1053,N,08237.5540,W,1,09,1.7,4099.0,M,-33.8,M,,/GPS FIX KC8MSY>APRTLM:T#202,254,000,160,204,211,00000000, MIM v1.07 KC8MSY>APRS:WSU SUNTRACKER 091402 FINDLAY,OH KC8MSY>APRTLM:T#203,255,086,161,204,214,00000000, MIM v1.07 KC8MSY>APRTLM:T#204,254,000,161,204,211,00000000, MIM v1.07 KC8MSY>APRS:$GPGGA,165757,4101.1736,N,08237.4934,W,1,09,1.6,4006.3,M,-33.8,M,,/GPS FIX KC8MSY>APRTLM:T#205,254,000,162,204,209,00000000, MIM v1.07 KC8MSY>APRTLM:T#206,254,003,159,204,213,00000000, MIM v1.07 KC8MSY>APRS:$GPGGA,165807,4101.2268,N,08237.4445,W,1,09,1.6,3942.6,M,-33.8,M,,/GPS FIX KC8MSY>APRTLM:T#207,254,000,161,204,207,00000000, MIM v1.07 KC8MSY>APRTLM:T#208,255,000,160,204,210,00000000, MIM v1.07 KC8MSY>APRTLM:T#209,254,000,161,204,211,00000000, MIM v1.07 KC8MSY>APRS:$GPGGA,165817,4101.2768,N,08237.3871,W,1,08,2.2,3880.4,M,-33.8,M,,/GPS FIX KC8MSY>APRTLM:T#210,254,000,161,204,212,00000000, MIM v1.07 KC8MSY>APRTLM:T#211,254,000,161,204,212,00000000, MIM v1.07 KC8MSY>APRS:$GPGGA,165827,4101.3344,N,08237.3428,W,1,08,1.6,3817.5,M,-33.8,M,,/GPS FIX KC8MSY>APRTLM:T#212,254,052,162,204,212,00000000, MIM v1.07 KC8MSY>APRTLM:T#213,255,000,162,204,209,00000000, MIM v1.07 KC8MSY>APRTLM:T#214,254,000,161,204,211,00000000, MIM v1.07 KC8MSY>APRS:$GPGGA,165837,4101.3957,N,08237.2894,W,1,08,1.3,3753.2,M,-33.8,M,,/GPS FIX KC8MSY>APRTLM:T#215,254,000,162,204,213,00000000, MIM v1.07 KC8MSY>APRTLM:T#216,254,000,163,204,213,00000000, MIM v1.07 KC8MSY>APRTLM:T#217,254,000,163,204,210,00000000, MIM v1.07 KC8MSY>APRS:WSU SUNTRACKER 091402 FINDLAY,OH KC8MSY>APRTLM:T#218,254,000,164,204,209,00000000, MIM v1.07 KC8MSY>APRTLM:T#219,254,000,163,204,207,00000000, MIM v1.07 KC8MSY>APRS:$GPGGA,165903,4101.5401,N,08237.1484,W,1,08,1.2,3576.3,M,-33.8,M,,/GPS FIX KC8MSY>APRTLM:T#220,254,000,164,204,207,00000000, MIM v1.07 KC8MSY>APRTLM:T#221,254,000,163,204,208,00000000, MIM v1.07 KC8MSY>APRS:$GPGGA,165913,4101.5970,N,08237.0777,W,1,08,1.4,3502.5,M,-33.8,M,,/GPS FIX KC8MSY>APRTLM:T#222,254,000,166,204,207,00000000, MIM v1.07 KC8MSY>APRTLM:T#223,254,000,167,204,208,00000000, MIM v1.07 KC8MSY>APRTLM:T#224,254,000,167,204,208,00000000, MIM v1.07 KC8MSY>APRS:$GPGGA,165923,4101.6533,N,08237.0148,W,1,07,1.2,3446.2,M,-33.8,M,,/GPS FIX KC8MSY>APRTLM:T#225,254,000,167,204,206,00000000, MIM v1.07 KC8MSY>APRTLM:T#226,255,000,169,204,208,00000000, MIM v1.07 KC8MSY>APRS:$GPGGA,165933,4101.7043,N,08236.9479,W,1,07,1.8,3386.2,M,-33.8,M,,/GPS FIX KC8MSY>APRTLM:T#227,254,000,169,204,206,00000000, MIM v1.07 KC8MSY>APRTLM:T#228,255,000,169,204,208,00000000, MIM v1.07 KC8MSY>APRTLM:T#229,254,000,170,204,208,00000000, MIM v1.07 KC8MSY>APRS:$GPGGA,165943,4101.7557,N,08236.8766,W,1,07,1.6,3327.5,M,-33.8,M,,/GPS FIX KC8MSY>APRTLM:T#230,254,000,171,204,210,00000000, MIM v1.07 KC8MSY>APRTLM:T#231,254,000,171,204,208,00000000, MIM v1.07 KC8MSY>APRS:$GPGGA,165953,4101.8030,N,08236.8179,W,1,07,1.4,3267.8,M,-33.8,M,,/GPS FIX KC8MSY>APRTLM:T#232,254,000,172,204,206,00000000, MIM v1.07 KC8MSY>APRS:WSU SUNTRACKER 091402 FINDLAY,OH KC8MSY>APRTLM:T#233,254,000,173,204,210,00000000, MIM v1.07 KC8MSY>APRTLM:T#234,254,001,173,204,209,00000000, MIM v1.07 KC8MSY>APRS:$GPGGA,170009,4101.8769,N,08236.7158,W,1,07,1.3,3170.2,M,-33.8,M,,/GPS FIX KC8MSY>APRTLM:T#235,254,000,174,204,210,00000000, MIM v1.07 KC8MSY>APRTLM:T#236,254,000,175,204,209,00000000, MIM v1.07 KC8MSY>APRS:$GPGGA,170019,4101.9268,N,08236.6524,W,1,07,1.2,3109.1,M,-33.8,M,,/GPS FIX KC8MSY>APRTLM:T#237,254,000,175,204,210,00000000, MIM v1.07 KC8MSY>APRTLM:T#238,254,000,176,204,209,00000000, MIM v1.07 KC8MSY>APRTLM:T#239,254,000,176,204,209,00000000, MIM v1.07 KC8MSY>APRS:$GPGGA,170029,4101.9754,N,08236.5929,W,1,07,1.2,3048.3,M,-33.8,M,,/GPS FIX KC8MSY>APRTLM:T#240,254,000,176,204,210,00000000, MIM v1.07 KC8MSY>APRTLM:T#241,254,000,177,204,211,00000000, MIM v1.07 KC8MSY>APRS:$GPGGA,170039,4102.0250,N,08236.5311,W,1,08,1.6,2978.3,M,-33.8,M,,/GPS FIX KC8MSY>APRTLM:T#242,254,000,178,204,207,00000000, MIM v1.07 KC8MSY>APRTLM:T#243,255,000,178,204,210,00000000, MIM v1.07 KC8MSY>APRTLM:T#244,254,000,178,204,207,00000000, MIM v1.07 KC8MSY>APRS:$GPGGA,170049,4102.0642,N,08236.4688,W,1,08,1.5,2918.5,M,-33.8,M,,/GPS FIX KC8MSY>APRTLM:T#245,254,000,178,204,211,00000000, MIM v1.07 KC8MSY>APRTLM:T#246,254,000,178,203,207,00000000, MIM v1.07 KC8MSY>APRS:$GPGGA,170059,4102.1014,N,08236.4025,W,1,08,1.2,2859.0,M,-33.8,M,,/GPS FIX KC8MSY>APRTLM:T#247,254,000,179,204,207,00000000, MIM v1.07 KC8MSY>APRS:WSU SUNTRACKER 091402 FINDLAY,OH KC8MSY>APRTLM:T#248,254,000,180,204,210,00000000, MIM v1.07 KC8MSY>APRTLM:T#249,254,000,181,204,211,00000000, MIM v1.07 KC8MSY>APRS:$GPGGA,170115,4102.1618,N,08236.2994,W,1,08,1.3,2761.8,M,-33.8,M,,/GPS FIX KC8MSY>APRTLM:T#250,254,000,182,204,209,00000000, MIM v1.07 KC8MSY>APRTLM:T#251,254,000,182,204,209,00000000, MIM v1.07 KC8MSY>APRS:$GPGGA,170125,4102.2013,N,08236.2378,W,1,08,1.1,2700.5,M,-33.8,M,,/GPS FIX KC8MSY>APRTLM:T#252,254,000,182,204,210,00000000, MIM v1.07 KC8MSY>APRTLM:T#253,254,000,183,204,210,00000000, MIM v1.07 KC8MSY>APRTLM:T#254,254,000,183,204,209,00000000, MIM v1.07 KC8MSY>APRS:$GPGGA,170135,4102.2408,N,08236.1779,W,1,08,1.2,2639.6,M,-33.8,M,,/GPS FIX KC8MSY>APRTLM:T#255,254,000,183,204,210,00000000, MIM v1.07 KC8MSY>APRTLM:T#000,255,001,185,204,210,00000000, MIM v1.07 KC8MSY>APRS:$GPGGA,170145,4102.2827,N,08236.1140,W,1,08,1.4,2578.8,M,-33.8,M,,/GPS FIX KC8MSY>APRTLM:T#001,254,000,185,204,207,00000000, MIM v1.07 KC8MSY>APRTLM:T#002,254,000,186,204,207,00000000, MIM v1.07 KC8MSY>APRTLM:T#003,254,000,186,204,211,00000000, MIM v1.07 KC8MSY>APRS:$GPGGA,170155,4102.3285,N,08236.0493,W,1,08,1.5,2519.6,M,-33.8,M,,/GPS FIX KC8MSY>APRTLM:T#004,254,000,187,204,208,00000000, MIM v1.07 KC8MSY>APRTLM:T#007,254,000,187,204,208,00000000, MIM v1.07 KC8MSY>APRTLM:T#008,254,000,187,204,207,00000000, MIM v1.07 KC8MSY>APRS:$GPGGA,170221,4102.4506,N,08235.8907,W,1,08,1.3,2361.5,M,-33.8,M,,/GPS FIX KC8MSY>APRTLM:T#009,254,000,188,204,208,00000000, MIM v1.07 KC8MSY>APRTLM:T#010,254,000,188,204,210,00000000, MIM v1.07 KC8MSY>APRS:$GPGGA,170231,4102.4983,N,08235.8293,W,1,08,1.1,2300.5,M,-33.8,M,,/GPS FIX KC8MSY>APRTLM:T#011,254,000,190,204,209,00000000, MIM v1.07 KC8MSY>APRTLM:T#012,254,000,189,204,207,00000000, MIM v1.07 KC8MSY>APRTLM:T#013,254,000,189,204,208,00000000, MIM v1.07 KC8MSY>APRS:$GPGGA,170241,4102.5466,N,08235.7678,W,1,08,1.3,2240.2,M,-33.8,M,,/GPS FIX KC8MSY>APRTLM:T#014,254,000,189,204,210,00000000, MIM v1.07 KC8MSY>APRTLM:T#015,254,000,190,204,208,00000000, MIM v1.07 KC8MSY>APRS:$GPGGA,170251,4102.5905,N,08235.7105,W,1,08,1.8,2179.6,M,-33.8,M,,/GPS FIX KC8MSY>APRTLM:T#016,254,000,191,204,209,00000000, MIM v1.07 KC8MSY>APRTLM:T#017,254,000,191,204,211,00000000, MIM v1.07 KC8MSY>APRTLM:T#018,254,000,192,204,207,00000000, MIM v1.07 KC8MSY>APRS:$GPGGA,170301,4102.6346,N,08235.6466,W,1,08,1.3,2119.6,M,-33.8,M,,/GPS FIX KC8MSY>APRTLM:T#019,254,001,193,204,208,00000000, MIM v1.07 KC8MSY>APRTLM:T#020,254,000,192,204,208,00000000, MIM v1.07 KC8MSY>APRS:$GPGGA,170311,4102.6769,N,08235.5862,W,1,08,1.4,2059.6,M,-33.8,M,,/GPS FIX KC8MSY>APRTLM:T#021,254,000,193,204,208,00000000, MIM v1.07 KC8MSY>APRS:WSU SUNTRACKER 091402 FINDLAY,OH KC8MSY>APRTLM:T#022,254,000,194,204,208,00000000, MIM v1.07 KC8MSY>APRTLM:T#023,254,000,194,204,207,00000000, MIM v1.07 KC8MSY>APRS:$GPRMC,170328,A,4102.7561,N,08235.4883,W,027.0,045.7,140902,007.1,W/GPS FIX KC8MSY>APRTLM:T#024,254,000,194,204,207,00000000, MIM v1.07 KC8MSY>APRTLM:T#025,254,000,195,204,208,00000000, MIM v1.07 KC8MSY>APRS:$GPGGA,170337,4102.7897,N,08235.4365,W,1,08,1.3,1901.1,M,-33.8,M,,/GPS FIX KC8MSY>APRTLM:T#026,254,000,195,204,206,00000000, MIM v1.07 KC8MSY>APRTLM:T#027,254,000,196,204,208,00000000, MIM v1.07 KC8MSY>APRTLM:T#028,254,001,197,204,211,00000000, MIM v1.07 KC8MSY>APRS:$GPRMC,170348,A,4102.8314,N,08235.3652,W,019.8,036.1,140902,007.1,W/GPS FIX KC8MSY>APRTLM:T#029,254,000,196,204,210,00000000, MIM v1.07 KC8MSY>APRTLM:T#030,254,000,197,204,208,00000000, MIM v1.07 KC8MSY>APRS:$GPGGA,170357,4102.8659,N,08235.3108,W,1,08,1.3,1778.5,M,-33.8,M,,/GPS FIX KC8MSY>APRTLM:T#031,254,000,198,204,209,00000000, MIM v1.07 KC8MSY>APRTLM:T#032,254,001,199,204,207,00000000, MIM v1.07 KC8MSY>APRTLM:T#033,254,000,199,204,207,00000000, MIM v1.07 KC8MSY>APRS:$GPGGA,170407,4102.9016,N,08235.2564,W,1,08,1.1,1714.7,M,-33.8,M,,/GPS FIX KC8MSY>APRTLM:T#034,254,000,199,204,207,00000000, MIM v1.07 KC8MSY>APRTLM:T#035,254,000,199,204,211,00000000, MIM v1.07 KC8MSY>APRS:$GPGGA,170417,4102.9357,N,08235.1970,W,1,08,1.3,1648.6,M,-33.8,M,,/GPS FIX KC8MSY>APRTLM:T#036,254,000,200,204,209,00000000, MIM v1.07 KC8MSY>APRS:WSU SUNTRACKER 091402 FINDLAY,OH KC8MSY>APRTLM:T#037,254,000,200,204,210,00000000, MIM v1.07 KC8MSY>APRTLM:T#038,254,000,201,204,210,00000000, MIM v1.07 KC8MSY>APRS:$GPRMC,170434,A,4102.9937,N,08235.1021,W,024.8,049.1,140902,007.1,W/GPS FIX KC8MSY>APRTLM:T#039,255,000,201,204,207,00000000, MIM v1.07 KC8MSY>APRTLM:T#040,254,001,202,204,211,00000000, MIM v1.07 KC8MSY>APRS:$GPRMC,170444,A,4103.0245,N,08235.0416,W,024.5,057.5,140902,007.1,W/GPS FIX KC8MSY>APRTLM:T#041,254,001,201,204,207,00000000, MIM v1.07 KC8MSY>APRTLM:T#042,254,000,202,204,206,00000000, MIM v1.07 KC8MSY>APRTLM:T#043,254,000,202,204,208,00000000, MIM v1.07 KC8MSY>APRS:$GPGGA,170453,4103.0496,N,08234.9944,W,1,08,1.5,1379.7,M,-33.8,M,,/GPS FIX KC8MSY>APRTLM:T#044,254,000,202,204,210,00000000, MIM v1.07 KC8MSY>APRTLM:T#045,254,000,202,204,209,00000000, MIM v1.07 KC8MSY>APRS:$GPGGA,170503,4103.0744,N,08234.9337,W,1,08,1.3,1293.6,M,-33.8,M,,/GPS FIX KC8MSY>APRTLM:T#046,254,000,203,204,210,00000000, MIM v1.07 KC8MSY>APRTLM:T#047,254,000,202,204,210,00000000, MIM v1.07 KC8MSY>APRTLM:T#048,254,000,204,204,210,00000000, MIM v1.07 KC8MSY>APRS:$GPGGA,170513,4103.1013,N,08234.8912,W,1,08,1.4,1211.2,M,-33.8,M,,/GPS FIX KC8MSY>APRTLM:T#049,254,000,205,204,208,00000000, MIM v1.07 KC8MSY>APRTLM:T#050,255,002,204,204,210,00000000, MIM v1.07 KC8MSY>APRS:$GPGGA,170523,4103.1238,N,08234.8562,W,1,08,1.4,1114.4,M,-33.8,M,,/GPS FIX KC8MSY>APRTLM:T#051,255,000,205,204,210,00000000, MIM v1.07 KC8MSY>APRS:WSU SUNTRACKER 091402 FINDLAY,OH KC8MSY>APRTLM:T#052,254,000,206,204,210,00000000, MIM v1.07 KC8MSY>APRTLM:T#053,254,000,206,204,207,00000000, MIM v1.07 KC8MSY>APRS:$GPGGA,170539,4103.1685,N,08234.8086,W,1,08,1.3,1000.8,M,-33.8,M,,/GPS FIX KC8MSY>APRTLM:T#054,255,000,206,204,210,00000000, MIM v1.07 KC8MSY>APRTLM:T#055,254,000,206,204,210,00000000, MIM v1.07 KC8MSY>APRS:$GPGGA,170549,4103.1989,N,08234.7793,W,1,08,1.4,936.8,M,-33.8,M,,/GPS FIX KC8MSY>APRTLM:T#056,254,000,207,204,207,00000000, MIM v1.07 KC8MSY>APRTLM:T#057,254,000,207,204,209,00000000, MIM v1.07 KC8MSY>APRTLM:T#058,254,000,208,204,208,00000000, MIM v1.07 KC8MSY>APRS:$GPGGA,170559,4103.2298,N,08234.7570,W,1,08,1.4,873.2,M,-33.8,M,,/GPS FIX KC8MSY>APRTLM:T#059,254,000,208,204,208,00000000, MIM v1.07 KC8MSY>APRTLM:T#060,254,000,207,204,210,00000000, MIM v1.07 KC8MSY>APRS:$GPGGA,170609,4103.2582,N,08234.7332,W,1,08,1.3,815.1,M,-33.8,M,,/GPS FIX KC8MSY>APRTLM:T#061,254,000,208,204,210,00000000, MIM v1.07 KC8MSY>APRTLM:T#062,254,001,209,204,208,00000000, MIM v1.07 KC8MSY>APRTLM:T#063,254,000,209,204,209,00000000, MIM v1.07 KC8MSY>APRS:$GPGGA,170619,4103.2923,N,08234.7081,W,1,08,1.6,753.8,M,-33.8,M,,/GPS FIX KC8MSY>APRTLM:T#064,254,000,209,204,211,00000000, MIM v1.07 KC8MSY>APRTLM:T#065,254,000,209,204,210,00000000, MIM v1.07 KC8MSY>APRS:$GPRMC,170630,A,4103.3221,N,08234.6755,W,015.1,065.1,140902,007.1,W/GPS FIX KC8MSY>APRS:WSU SUNTRACKER 091402 FINDLAY,OH KC8MSY>APRTLM:T#067,254,000,212,204,208,00000000, MIM v1.07 KC8MSY>APRTLM:T#068,254,000,213,204,210,00000000, MIM v1.07 KC8MSY>APRS:$GPRMC,170646,A,4103.3589,N,08234.6234,W,016.8,044.6,140902,007.1,W/GPS FIX KC8MSY>APRTLM:T#069,254,006,213,205,211,00000000, MIM v1.07 KC8MSY>APRTLM:T#070,254,000,213,204,207,00000000, MIM v1.07 KC8MSY>APRS:$GPGGA,170655,4103.3754,N,08234.6001,W,1,08,1.5,524.3,M,-33.8,M,,/GPS FIX KC8MSY>APRTLM:T#071,254,000,214,204,210,00000000, MIM v1.07 KC8MSY>APRTLM:T#072,254,000,213,204,210,00000000, MIM v1.07